     2.11           OBSERVATION DATA    G (GPS)             RINEX VERSION / TYPE
teqc 2010Oct21 OPUS Account 20111028 20:24:25UTC            PGM / RUN BY / DATE
H 1527                                                      MARKER NAME
3068                                                        MARKER NUMBER
CSMIDDLETON NGS                                             OBSERVER / AGENCY
0220316069 TRIMBLE 5700 1.30                                REC # / TYPE / VERS
60183425 TRM41249.00 NONE                                   ANT # / TYPE
  -730969.9513 -5587697.0842  2977264.1211                  APPROX POSITION XYZ
        2.0010        0.0000        0.0000                  ANTENNA: DELTA H/E/N
     1     1                                                WAVELENGTH FACT L1/2
     5    L1    L2    C1    P1    P2                        # / TYPES OF OBSERV
    15                                                      LEAP SECONDS
  2011     8    27     0     0   30.0000000     GPS         TIME OF FIRST OBS
                                                            END OF HEADER
 11  8 27  0  0 30.0000000  0  8G17G10G04G12G09G05G02G25
 -96999822.87557 -75564921.21054  23343089.5164                   23343091.5314
 -54819802.02358 -42698992.60856  20885960.1954                   20885961.2624
 -76305184.82058 -59438204.02955  21953584.1884                   21953585.2734
 -40291335.07058 -31377761.48456  21277437.6254                   21277437.1954
 -44029415.75856 -34289594.02454  23895909.6334                   23895915.8634
 -32907256.96958 -25623562.47956  21652817.7894                   21652818.8874
 -63357952.97358 -49350637.30856  20635856.9614                   20635854.7664
  -8737407.21956  -6790283.56154  23840173.4844                   23840177.4534
 11  8 27  0  1  0.0000000  0  8G17G10G04G12G09G05G02G25
 -97049264.89847 -75603447.57444  23333681.6174                   23333683.5044
 -54911084.48848 -42770121.78746  20868589.7504                   20868590.2854
 -76330553.05948 -59457971.50245  21948757.1564                   21948757.9804
 -40448776.48048 -31500443.06246  21247477.5084                   21247477.5164
 -44053723.14146 -34308535.05044  23891283.7664                   23891290.0234
 -33094868.35947 -25769753.05146  21617116.3204                   21617117.5784
 -63457405.22748 -49428132.54947  20616932.0944                   20616929.5824
  -8937770.55547  -6946410.75144  23802045.5864                   23802049.6994
 11  8 27  0  1 30.0000000  0  8G17G10G04G12G09G05G02G25
 -97098506.96947 -75641818.10544  23324311.1724                   23324313.1524
 -55001705.24648 -42840735.33946  20851345.7814                   20851345.7114
 -76355789.91047 -59477636.59345  21943954.9454                   21943955.8134
 -40605721.67648 -31622737.97946  21217611.9144                   21217611.8134
 -44077889.07446 -34327365.81944  23886685.8134                   23886691.6564
 -33282089.80948 -25915639.78546  21581489.4774                   21581490.3164
 -63556560.51248 -49505396.39547  20598063.4534                   20598061.3674
  -9137884.87547  -7102343.89544  23763964.8984                   23763968.9804
 11  8 27  0  2  0.0000000  0  8G17G10G04G12G09G05G02G25
 -97147552.47347 -75680035.48144  23314977.9224                   23314980.4384
 -55091667.98048 -42910836.14246  20834225.9064                   20834226.3404
 -76380900.65248 -59497203.42945  21939176.6644                   21939177.3054
 -40762172.00848 -31744647.28946  21187840.2974                   21187840.1804
 -44101919.99647 -34346091.40144  23882113.1414                   23882118.4844
 -33468922.40247 -26061223.51646  21545936.0084                   21545937.2424
 -63655423.64848 -49582432.59747  20579250.2814                   20579248.0434
  -9337751.13747  -7258083.78144  23725931.6884                   23725935.5434
 11  8 27  0  2 30.0000000  0  8G17G10G04G12G09G05G02G25
 -97196399.88747 -75718098.50944  23305682.3674                   23305684.8284
 -55180972.59448 -42980424.12146  20817232.1094                   20817232.0314
 -76405886.62548 -59516673.03345  21934421.4774                   21934422.8134
 -40918124.50848 -31866168.67646  21158163.4534                   21158163.8204
 -44125818.90247 -34364714.06544  23877565.2504                   23877571.3014
 -33655362.60247 -26206501.48746  21510457.5314                   21510458.7624
 -63753994.95748 -49659241.39147  20560492.7664                   20560490.4224
  -9537366.00047  -7413627.77144  23687946.1254                   23687950.2234
 11  8 27  0  3  0.0000000  0  8G17G10G04G12G09G05G02G25
 -97245049.41847 -75756007.31144  23296424.2274                   23296427.4264
 -55269620.25448 -43049500.19146  20800362.9224                   20800363.3244
 -76430750.05148 -59536047.15845  21929690.2424                   21929691.8094
 -41073577.93048 -31987301.16946  21128581.7664                   21128581.5824
 -44149589.69147 -34383236.93544  23873041.5704                   23873047.6994
 -33841408.49647 -26351472.20546  21475054.1024                   21475055.5514
 -63852276.66448 -49735824.51446  20541790.2734                   20541787.6174
  -9736727.48847  -7568974.30544  23650008.8284                   23650012.6954
 11  8 27  0  3 30.0000000  0  8G17G10G04G12G09G05G02G25
 -97293499.94547 -75793761.07544  23287204.8524                   23287207.5474
 -55357610.34048 -43118063.87546  20783618.8444                   20783619.1914
 -76455492.03947 -59555326.63545  21924982.0784                   21924982.8594
 -41228529.14148 -32108042.32946  21099095.4304                   21099095.2504
 -44173234.84046 -34401661.90144  23868542.4774                   23868548.4734
 -34027056.41447 -26496132.81046  21439726.2344                   21439727.7234
 -63950269.00048 -49812182.16647  20523142.9224                   20523140.6024
  -9935832.12147  -7724120.71844  23612120.6954                   23612124.4804
 11  8 27  0  4  0.0000000  0  8G17G10G04G12G09G05G02G25
 -95766326.37147 -74603755.78244  23577816.0864                   23577819.1094
 -53869518.01248 -41958511.40046  21066793.6954                   21066793.6214
 -74904690.95748 -58346910.22745  22220089.5634                   22220090.7234
 -39807548.37548 -31000784.55146  21369499.1644                   21369498.6884
 -42621334.35547 -33192388.96044  24163860.1644                   24163865.6254
 -32636874.93047 -25412874.39946  21704268.8834                   21704270.3914
 -62472547.35248 -48660710.74547  20804344.2274                   20804341.5084
  -8559248.05947  -6651457.75744  23874076.0164                   23874079.5044
 11  8 27  0  4 30.0000000  0  8G17G10G04G12G09G05G02G25
 -95814375.33647 -74641196.61644  23568672.9384                   23568675.9734
 -53956193.03548 -42026050.36046  21050299.6804                   21050299.7664
 -74929193.88347 -58366003.43245  22215427.0314                   22215428.0084
 -39961487.55948 -31120737.13546  21340205.4304                   21340204.8204
 -42644736.44546 -33210624.49843  24159406.2734                   24159412.2114
 -32821716.96147 -25556907.03546  21669094.6804                   21669095.6644
 -62569963.06648 -48736619.07147  20785806.5084                   20785804.0474
  -8757829.26247  -6806196.29944  23836287.3134                   23836290.4964
 11  8 27  0  5  0.0000000  0  8G17G10G04G12G09G05G02G25
 -95862223.05147 -74678480.64844  23559568.1564                   23559570.7584
 -54042211.51648 -42093077.72646  21033930.8444                   21033931.3834
 -74953579.84847 -58385005.50445  22210786.0784                   22210787.3554
 -40114917.97747 -31240293.27346  21311008.8984                   21311008.3324
 -42668022.07046 -33228769.32644  24154974.6644                   24154981.0044
 -33006152.64147 -25700623.04146  21633997.7734                   21633999.0474
 -62667092.22748 -48812304.12446  20767323.2274                   20767321.1564
  -8956144.96947  -6960727.98544  23798548.9924                   23798551.6214
 11  8 27  0  5 30.0000000  0  8G17G10G04G12G09G05G02G25
 -95909868.68747 -74715607.20544  23550501.5314                   23550504.5784
 -54127573.97348 -42159593.92446  21017686.8594                   21017687.4414
 -74977850.55547 -58403917.75345  22206167.6414                   22206169.1214
 -40267837.24248 -31359451.11346  21281908.9064                   21281908.4964
 -42691194.68747 -33246826.04743  24150566.0554                   24150571.3954
 -33190178.96547 -25844020.07246  21598978.4304                   21598979.9304
 -62763936.18448 -48887766.91547  20748894.4614                   20748892.1884
  -9154192.37547  -7115050.61844  23760861.8134                   23760864.8914
 11  8 27  0  6  0.0000000  0  8G17G10G04G12G09G05G02G25
 -95957314.52047 -74752578.05944  23541472.9534                   23541475.5164
 -54212283.77048 -42225601.54946  21001567.2274                   21001567.4734
 -75002010.50447 -58422743.71045  22201570.3134                   22201571.3094
 -40420245.99648 -31478211.16246  21252906.5704                   21252905.9574
 -42714260.05946 -33264799.18443  24146176.1954                   24146182.7034
 -33373795.88347 -25987098.09646  21564037.5394                   21564038.5664
 -62860498.74248 -48963010.45047  20730519.1884                   20730517.0594
  -9351971.50847  -7269164.17444  23723225.2194                   23723228.6994
 11  8 27  0  6 30.0000000  0  8G17G10G04G12G09G05G02G25
 -96004555.96147 -74789389.61144  23532483.4454                   23532485.8054
 -54296337.30548 -42291097.80846  20985572.0864                   20985572.6254
 -75026057.19947 -58441481.41745  22196994.5084                   22196995.6564
 -40572137.91848 -31596568.47646  21224002.6644                   21224002.0634
 -42737217.24246 -33282688.06943  24141808.0084                   24141813.8754
 -33556996.39547 -26129851.64546  21529175.5164                   21529176.7544
 -62956776.81648 -49038032.29747  20712198.1484                   20712195.7734
  -9549475.32447  -7423063.20044  23685641.7194                   23685644.8914
 11  8 27  0  7  0.0000000  0  8G17G10G04G12G09G05G02G25
 -96051591.77347 -74826040.97044  23523532.7274                   23523535.3634
 -54379734.52048 -42356082.63746  20969702.1484                   20969702.8134
 -75049991.69947 -58460131.69045  22192440.0864                   22192440.9494
 -40723510.43448 -31714521.06246  21195197.3054                   21195196.8794
 -42760069.05946 -33300494.75243  24137459.9304                   24137465.6134
 -33739777.59447 -26272278.45146  21494393.2504                   21494394.4024
 -63052770.87548 -49112832.83947  20693930.9534                   20693928.9184
  -9746700.68447  -7576745.24344  23648110.4924                   23648114.6844
 11  8 27  0  7 30.0000000  0  8G17G10G04G12G09G05G02G25
 -96098426.34447 -74862535.50444  23514620.0554                   23514623.0434
 -54462480.69948 -42420560.17346  20953956.1334                   20953956.7234
 -75073820.38747 -58478699.49945  22187905.6334                   22187906.2344
 -40874366.40648 -31832071.14646  21166490.2504                   21166489.5944
 -42782823.45346 -33318225.62443  24133129.6724                   24133135.6804
 -33922141.41847 -26414380.02546  21459690.6484                   21459691.4534
 -63148487.24648 -49187417.00247  20675716.9844                   20675714.8404
  -9943649.56647  -7730211.84044  23610633.1884                   23610636.3914
 11  8 27  0  8  0.0000000  0  8G17G10G04G12G09G05G02G25
 -96145055.54347 -74898870.00144  23505747.1024                   23505749.9224
 -54544572.89848 -42484528.10346  20938334.7034                   20938334.9804
 -75097541.43747 -58497183.44945  22183391.2974                   22183392.8014
 -41024700.19948 -31949214.33046  21137882.8594                   21137882.3164
 -42805479.89846 -33335880.14643  24128818.0784                   24128824.6564
 -34104081.75048 -26556151.61046  21425068.1254                   21425069.3714
 -63243923.05548 -49261782.52747  20657555.8364                   20657553.6684
 -10140315.66447  -7883458.09844  23573208.3204                   23573211.6294
 11  8 27  0  8 30.0000000  0  8G17G10G04G12G09G05G02G25
 -96191480.50047 -74935045.36844  23496912.8674                   23496914.7774
 -54626013.18748 -42547988.06446  20922837.0704                   20922837.4774
 -75121158.02047 -58515586.01045  22178897.2974                   22178898.8954
 -41174511.25448 -32065950.19246  21109374.5864                   21109374.0004
 -42828043.05146 -33353462.09743  24124524.7894                   24124530.4654
 -34285597.32448 -26697592.21946  21390527.2194                   21390528.2934
 -63339081.17648 -49335931.68547  20639448.1884                   20639445.6024
 -10336697.78547  -8036483.04244  23535837.8204                   23535841.7934
 11  8 27  0  9  0.0000000  0  8G17G10G04G12G09G05G02G25
 -96237701.99647 -74971062.17844  23488116.9454                   23488119.7304
 -54706804.06248 -42610941.97746  20907462.9224                   20907463.6374
 -75144673.24247 -58533909.57845  22174422.4844                   22174424.0784
 -41323799.48048 -32182278.64946  21080965.8754                   21080965.2704
 -42850517.95746 -33370975.18743  24120248.4224                   24120254.9064
 -34466687.05547 -26838701.00546  21356066.5784                   21356067.4494
 -63433964.39548 -49409866.63447  20621392.0784                   20621389.9024
 -10532794.83647  -8189285.85044  23498521.5164                   23498525.6294
 11  8 27  0  9 30.0000000  0  8G17G10G04G12G09G05G02G25
 -96283715.14147 -75006916.64944  23479361.1414                   23479363.5704
 -54786941.83248 -42673386.95646  20892213.1724                   20892214.0474
 -75168084.12547 -58552151.84345  22169967.3984                   22169968.4144
 -41472558.14848 -32298194.45146  21052658.0004                   21052657.4654
 -42872902.98046 -33388418.29043  24115988.5314                   24115995.3874
 -34647343.62148 -26979472.25046  21321688.7114                   21321689.7274
 -63528569.18448 -49483584.62746  20603389.4694                   20603387.3954
 -10728599.29347  -8341860.68545  23461261.5314                   23461265.1564
 11  8 27  0 10  0.0000000  0  8G17G10G04G12G09G05G02G25
 -96329520.71947 -75042609.32844  23470645.5234                   23470647.6134
 -54866428.29748 -42735324.44646  20877087.2584                   20877088.2734
 -75191393.61747 -58570315.08745  22165531.9144                   22165532.8984
 -41620786.40648 -32413696.96146  21024451.0634                   21024450.6134
 -42895202.84847 -33405794.97344  24111745.6954                   24111751.6914
 -34827565.86348 -27119905.07046  21287393.7344                   21287394.6024
 -63622898.18448 -49557087.71846  20585439.3134                   20585436.8404
 -10924109.78547  -8494206.40845  23424056.6094                   23424060.2154
 11  8 27  0 10 30.0000000  0  8G17G10G04G12G09G05G02G25
 -96375121.21947 -75078142.23444  23461967.7974                   23461970.4694
 -54945267.71948 -42796757.74046  20862084.8754                   20862085.3094
 -75214606.43447 -58588403.02145  22161114.6644                   22161115.9924
 -41768485.39548 -32528787.04146  20996344.8204                   20996344.1334
 -42917423.66846 -33423110.04343  24107517.5084                   24107523.2704
 -35007353.97748 -27259999.59346  21253181.0394                   21253181.9574
 -63716955.45748 -49630379.07246  20567540.8204                   20567538.0314
 -11119326.76247  -8646323.42244  23386908.7114                   23386912.1094
 11  8 27  0 11  0.0000000  0  8G17G10G04G12G09G05G02G25
 -96420513.25046 -75113512.70244  23453329.5314                   23453332.5044
 -55023457.71148 -42857684.96846  20847205.9924                   20847206.3554
 -75237721.24247 -58606414.58345  22156716.1644                   22156717.2114
 -41915650.30948 -32643460.96546  20968340.1484                   20968339.6684
 -42939566.10946 -33440364.07144  24103303.8674                   24103310.2424
 -35186703.12148 -27399752.08546  21219052.0314                   21219052.7664
 -63810739.37948 -49703457.42547  20549694.2664                   20549691.7704
 -11314244.55947  -8798207.31344  23349816.7734                   23349819.8794
 11  8 27  0 11 30.0000000  0  8G17G10G04G12G09G05G02G25
 -96465693.57446 -75148718.19744  23444732.4454                   23444735.0984
 -55100996.94948 -42918105.12746  20832450.4454                   20832450.6484
 -75260737.30547 -58624349.21145  22152336.2504                   22152337.6844
 -42062277.06648 -32757715.55046  20940438.2344                   20940437.6294
 -42961630.62146 -33457557.44044  24099104.7344                   24099111.6174
 -35365607.95348 -27539158.34446  21185007.6334                   21185008.2194
 -63904248.75048 -49776321.86347  20531899.8284                   20531897.4224
 -11508858.17247  -8949854.19944  23312783.0234                   23312786.0434
 11  8 27  0 12  0.0000000  0  8G17G10G04G12G09G05G02G25
 -94935243.02746 -73956159.38444  23735967.1884                   23735969.5234
 -53602465.44548 -41750418.21346  21117611.4844                   21117611.5784
 -73708237.07047 -57414608.79945  22447767.5474                   22447768.8054
 -40632940.69548 -31643946.91246  21212431.6724                   21212431.3524
 -41408201.66847 -32247093.56244  24394713.0084                   24394719.3794
 -33968641.82048 -26450613.21846  21450841.1804                   21450842.1214
 -62422063.55948 -48621372.35046  20813950.5554                   20813948.1054
 -10127740.15647  -7873658.24945  23575600.7814                   23575604.1454
 11  8 27  0 12 30.0000000  0  8G17G10G04G12G09G05G02G25
 -94980002.94946 -73991037.27344  23727449.8204                   23727452.5274
 -53678708.72748 -41809828.53346  21103103.0784                   21103103.3834
 -73731063.08647 -57432395.31545  22443423.5084                   22443425.0354
 -40778488.31248 -31757360.61546  21184734.9384                   21184734.4924
 -41430123.24647 -32264175.52644  24390541.7504                   24390548.4884
 -34146653.50048 -26589323.51146  21416966.4614                   21416967.5984
 -62515030.18748 -48693813.85546  20796259.6174                   20796257.2234
 -10321740.12147  -8024826.96145  23538683.7274                   23538687.0664
 11  8 27  0 13  0.0000000  0  8G17G10G04G12G09G05G02G25
 -95024552.09446 -74025750.90044  23718972.3594                   23718974.9924
 -53754305.64848 -41868735.19346  21088717.4844                   21088717.5664
 -73753796.75447 -57450109.90145  22439097.6334                   22439099.4454
 -40923493.79348 -31870351.85746  21157141.2344                   21157140.8834
 -41451978.28547 -32281205.67344  24386382.9844                   24386390.0164
 -34324214.93448 -26727682.97446  21383177.5084                   21383178.4104
 -62607727.69948 -48766045.67446  20778619.7734                   20778617.1174
 -10515429.49247  -8175753.70245  23501825.9144                   23501829.1374
 11  8 27  0 13 30.0000000  0  8G17G10G04G12G09G05G02G25
 -95068892.80946 -74060302.14744  23710534.6804                   23710537.3984
 -53829260.04747 -41927141.17346  21074454.2194                   21074454.3364
 -73776442.47747 -57467755.96645  22434788.7664                   22434790.1994
 -41067958.26248 -31982921.54046  21129650.6484                   21129650.0944
 -41473772.75047 -32298188.60644  24382235.9774                   24382242.4024
 -34501326.59448 -26865691.96146  21349474.3594                   21349474.8984
 -62700159.99648 -48838070.83547  20761030.3524                   20761028.1454
 -10708808.39547  -8326438.48345  23465027.4454                   23465029.9774
 11  8 27  0 14  0.0000000  0  8G17G10G04G12G09G05G02G25
 -95113020.85246 -74094687.68344  23702137.2344                   23702139.5044
 -53903569.37548 -41985044.52046  21060313.4224                   21060313.3834
 -73798998.45747 -57485332.08745  22430496.3134                   22430497.7384
 -41211876.31248 -32095065.45546  21102263.9694                   21102263.4494
 -41495506.19947 -32315123.96544  24378100.3524                   24378107.2584
 -34677982.53148 -27003345.84446  21315857.6884                   21315858.6374
 -62792324.63348 -48909887.41547  20743491.7974                   20743490.0204
 -10901870.57447  -8476876.51544  23428288.5784                   23428291.8284
 11  8 27  0 14 30.0000000  0  8G17G10G04G12G09G05G02G25
 -95156935.16846 -74128906.67644  23693780.6254                   23693783.8524
 -53977233.64148 -42042445.22446  21046295.3204                   21046295.9534
 -73821464.75847 -57502838.32545  22426220.4694                   22426222.4304
 -41355245.28948 -32206781.51846  21074981.4454                   21074980.9494
 -41517180.69146 -32332013.40944  24373976.0704                   24373982.9574
 -34854178.53548 -27140641.34146  21282328.6884                   21282329.6334
 -62884222.14148 -48981495.84846  20726004.3524                   20726002.2234
 -11094612.29747  -8627064.82345  23391611.1414                   23391614.2624
 11  8 27  0 15  0.0000000  0  8G17G10G04G12G09G05G02G25
 -95200637.97346 -74162960.82844  23685464.4924                   23685467.1764
 -54050256.65248 -42099346.24346  21032399.6644                   21032399.9384
 -73843846.03947 -57520278.31345  22421961.9774                   22421963.7424
 -41498066.18048 -32318070.50046  21047803.5084                   21047803.1484
 -41538802.38746 -32348861.72443  24369860.9304                   24369868.1994
 -35029916.16448 -27277579.66046  21248887.1484                   21248887.5824
 -62975855.90248 -49052898.76746  20708567.1644                   20708564.7384
 -11287033.73847  -8777003.52645  23354994.6954                   23354997.6994
 11  8 27  0 15 30.0000000  0  8G17G10G04G12G09G05G02G25
 -95244130.54346 -74196851.19644  23677188.0234                   23677190.2584
 -54122641.73048 -42155750.17646  21018625.2114                   21018625.2114
 -73866145.40247 -57537654.48045  22417718.6334                   22417719.9614
 -41640338.50448 -32428932.02646  21020730.1804                   21020729.4774
 -41560376.02346 -32365672.63543  24365756.4304                   24365763.5274
 -35205194.25448 -27414159.88746  21215532.2034                   21215533.1914
 -63067229.33248 -49124098.84347  20691179.4924                   20691177.1334
 -11479133.77346  -8926691.80144  23318438.5004                   23318442.0084
 11  8 27  0 16  0.0000000  0  8G17G10G04G12G09G05G02G25
 -95287408.36746 -74230574.25244  23668953.2664                   23668955.3284
 -54194385.62947 -42211654.49146  21004972.6724                   21004973.2234
 -73888360.16447 -57554964.71945  22413491.2814                   22413493.0084
 -41782056.88348 -32539361.91146  20993762.0554                   20993761.5274
 -41581900.71946 -32382445.40643  24361660.4454                   24361666.9414
 -35380005.93748 -27550376.69046  21182266.7894                   21182267.4884
 -63158339.26648 -49195093.59247  20673841.8444                   20673839.5784
 -11670905.62547  -9076124.33245  23281946.2114                   23281948.8284
 11  8 27  0 16 30.0000000  0  8G17G10G04G12G09G05G02G25
 -95330471.92646 -74264130.30744  23660757.8754                   23660761.1644
 -54265489.98448 -42267060.46146  20991441.8754                   20991442.2854
 -73910492.61347 -57572210.81345  22409279.7114                   22409280.7934
 -41923220.31248 -32649359.36946  20966899.8284                   20966899.0274
 -41603380.57046 -32399183.19143  24357573.2274                   24357580.4964
 -35554349.49648 -27686228.71846  21149090.5314                   21149091.0594
 -63249187.24248 -49265884.21946  20656553.8754                   20656551.8364
 -11862347.27747  -9225299.56145  23245515.5314                   23245518.5904
 11  8 27  0 17  0.0000000  0  8G17G10G04G12G09G05G02G25
 -95373322.67646 -74297520.59244  23652603.7664                   23652606.4694
 -54335957.91448 -42321970.52046  20978032.2274                   20978032.9734
 -73932546.34847 -57589395.58245  22405083.4454                   22405084.4184
 -42063829.15648 -32758924.68546  20940142.4384                   20940141.7074
 -41624820.46946 -32415889.79643  24353493.8284                   24353501.3324
 -35728224.77048 -27821715.86346  21116002.8834                   21116003.4884
 -63339777.19948 -49336473.79047  20639315.0634                   20639312.8364
 -12053458.22747  -9374217.07845  23209148.4774                   23209151.6374
 11  8 27  0 17 30.0000000  0  8G17G10G04G12G09G05G02G25
 -95415957.77046 -74330742.79844  23644490.0634                   23644493.6254
 -54405788.10548 -42376383.64046  20964743.9144                   20964744.4344
 -73954520.29347 -57606518.17645  22400901.8204                   22400903.1334
 -42203878.83648 -32868054.28146  20913491.8444                   20913491.1374
 -41646220.87946 -32432565.79543  24349421.7974                   24349428.7894
 -35901626.70348 -27956834.16346  21083005.4454                   21083005.9304
 -63430107.32048 -49406860.89147  20622126.1174                   20622123.6214
 -12244233.06647  -9522872.71445  23172844.9064                   23172847.7774
 11  8 27  0 18  0.0000000  0  8G17G10G04G12G09G05G02G25
 -95458377.37946 -74363797.10844  23636418.4924                   23636421.5704
 -54474982.51248 -42430301.34446  20951576.8204                   20951577.2504
 -73976416.35947 -57623580.08944  22396735.0634                   22396736.2624
 -42343368.92248 -32976747.83146  20886948.0944                   20886947.2974
 -41667585.75446 -32449213.84443  24345355.8444                   24345362.8054
 -36074553.65648 -28091582.34646  21050098.5164                   21050099.0084
 -63520179.58648 -49477047.06146  20604985.8524                   20604983.8674
 -12434669.86747  -9671264.90145  23136606.3134                   23136609.4614
 11  8 27  0 18 30.0000000  0  8G17G10G04G12G09G05G02G25
 -95500581.37146 -74396683.39644  23628387.7194                   23628390.1844
 -54543542.58648 -42483724.77246  20938530.3284                   20938530.6094
 -73998236.40647 -57640582.77345  22392582.8594                   22392583.6954
 -42482297.69548 -33085004.00646  20860510.5234                   20860510.0704
 -41688918.31246 -32465836.88343  24341296.2974                   24341303.7734
 -36247003.48848 -28225958.75046  21017282.1884                   21017283.0084
 -63609995.55548 -49547033.52446  20587894.6484                   20587892.2384
 -12624766.10247  -9819391.73045  23100432.4064                   23100435.1334
 11  8 27  0 19  0.0000000  0  8G17G10G04G12G09G05G02G25
 -95542570.93746 -74429402.59344  23620396.9144                   23620400.1994
 -54611471.24248 -42536656.17046  20925603.7344                   20925604.2424
 -74019983.27347 -57657528.43645  22388444.6884                   22388445.5354
 -42620664.96548 -33192822.63446  20834179.8834                   20834179.6054
 -41710223.24646 -32482438.43443  24337241.8984                   24337249.8164
 -36418975.32048 -28359962.68546  20984557.1484                   20984557.9734
 -63699557.71548 -49616822.20846  20570851.2664                   20570848.7624
 -12814520.65647  -9967252.31045  23064322.5004                   23064326.0744
 11  8 27  0 19 30.0000000  0  8G17G10G04G12G09G05G02G25
 -94008925.26646 -73234354.07644  23912240.6334                   23912243.4574
 -53103348.42248 -41361495.51846  21212590.1954                   21212590.6484
 -72466238.77747 -56446818.48945  22684112.2584                   22684113.3714
 -41183045.58648 -32072599.71446  21107750.0004                   21107749.3874
 -40156083.77346 -31271420.94043  24632985.7814                   24632993.3834
 -35015042.06248 -27265988.63546  21251716.8984                   21251717.3874
 -62213445.04348 -48458812.32546  20853649.0474                   20853646.5164
 -11428505.46147  -8887240.38145  23328072.5314                   23328075.4414
 11  8 27  0 20  0.0000000  0  8G17G10G04G12G09G05G02G25
 -94050485.25046 -73266738.61144  23904331.5234                   23904334.7114
 -53170018.32448 -41413446.09646  21199903.2424                   21199903.5164
 -72487844.14847 -56463653.90045  22680000.7894                   22680001.7544
 -41320285.64548 -32179540.00446  21081634.0864                   21081633.3954
 -40177342.95346 -31287986.73443  24628940.5944                   24628947.6094
 -35186051.52348 -27399242.67146  21219174.8444                   21219174.8284
 -62302503.31248 -48528208.37046  20836701.9304                   20836699.5784
 -11617569.02047  -9034562.53045  23292094.8984                   23292097.8524
 11  8 27  0 20 30.0000000  0  8G17G10G04G12G09G05G02G25
 -94091829.64546 -73298955.07744  23896464.4224                   23896466.7544
 -53236060.70348 -41464907.66746  21187336.0474                   21187335.8364
 -72509380.40647 -56480435.46544  22675902.7814                   22675903.4534
 -41456959.52048 -32286039.10946  21055625.7194                   21055625.6174
 -40198583.39546 -31304537.89543  24624898.9534                   24624906.0394
 -35356575.79348 -27532118.64446  21186724.8984                   21186725.3324
 -62391311.26248 -48597409.35246  20819802.0234                   20819800.1054
 -11806282.64147  -9181612.02445  23256183.8914                   23256186.9534
 11  8 27  0 21  0.0000000  0  8G17G10G04G12G09G05G02G25
 -94132959.93446 -73331004.70144  23888637.6414                   23888640.0084
 -53301478.81248 -41515882.80546  21174887.1254                   21174887.3324
 -72530851.10947 -56497165.93544  22671817.0474                   22671818.1994
 -41593067.52048 -32392097.26546  21029725.3524                   21029724.7894
 -40219810.51246 -31321078.77243  24620860.1024                   24620867.0004
 -35526614.85548 -27664616.53146  21154367.6484                   21154368.1054
 -62479872.24248 -48666417.90847  20802949.6414                   20802946.9884
 -11994645.81647  -9328388.45345  23220339.4224                   23220342.6524
 11  8 27  0 21 30.0000000  0  8G17G10G04G12G09G05G02G25
 -94173874.77046 -73362886.43744  23880851.8914                   23880854.1094
 -53366273.11748 -41566371.84846  21162557.2734                   21162557.3834
 -72552256.65247 -56513845.64145  22667743.7894                   22667744.9574
 -41728607.14148 -32497712.54446  21003932.9144                   21003932.3404
 -40241026.30146 -31337610.77343  24616823.1414                   24616830.3244
 -35696165.10548 -27796733.54346  21122103.1724                   21122103.4344
 -62568186.06248 -48735233.85546  20786144.2194                   20786141.6374
 -12182654.79747  -9474888.88145  23184562.0474                   23184565.5354
 11  8 27  0 22  0.0000000  0  8G17G10G04G12G09G05G02G25
 -94214575.02746 -73394600.99344  23873106.4774                   23873109.6684
 -53430446.01248 -41616376.69446  21150345.4224                   21150345.9614
 -72573599.25447 -56530476.31344  22663682.6954                   22663683.7274
 -41863577.83248 -32602884.49146  20978248.8444                   20978248.1884
 -40262234.37147 -31354136.78743  24612787.1024                   24612794.6604
 -35865225.57848 -27928468.89646  21089932.0234                   21089932.0864
 -62656254.93448 -48803858.92746  20769385.0084                   20769382.5864
 -12370307.83647  -9621111.94245  23148853.1644                   23148856.0354
 11  8 27  0 22 30.0000000  0  8G17G10G04G12G09G05G02G25
 -94255058.23446 -73426146.41744  23865403.3524                   23865405.6564
 -53493996.85548 -41665896.82446  21138252.1564                   21138252.6484
 -72594878.20747 -56547057.39644  22659633.5784                   22659634.4384
 -41997976.04748 -32707610.36146  20952673.7664                   20952672.7194
 -40283435.87947 -31370657.68543  24608752.7664                   24608760.1484
 -36033791.64848 -28059819.00446  21057854.6024                   21057854.8954
 -62744078.18048 -48872292.60646  20752672.7274                   20752670.5044
 -12557600.26247  -9767054.05045  23113212.8284                   23113215.0474
 11  8 27  0 23  0.0000000  0  8G17G10G04G12G09G05G02G25
 -94295324.09447 -73457522.42944  23857741.2034                   23857743.5704
 -53556927.26648 -41714933.49346  21126277.0704                   21126277.3444
 -72616094.99247 -56563590.00344  22655595.8674                   22655597.1524
 -42131800.40248 -32811889.06146  20927207.9694                   20927207.1054
 -40304633.87147 -31387175.88243  24604719.4454                   24604726.4224
 -36201861.35948 -28190782.33346  21025872.1174                   21025872.6954
 -62831656.70748 -48940535.59446  20736007.2894                   20736004.8324
 -12744529.45747  -9912713.12145  23077641.3134                   23077643.9614
 11  8 27  0 23 30.0000000  0  8G17G10G04G12G09G05G02G25
 -94335372.22347 -73488728.80444  23850120.2034                   23850122.9344
 -53619238.52748 -41763487.71846  21114419.3594                   21114419.8594
 -72637251.05147 -56580075.30844  22651570.1644                   22651571.1564
 -42265049.69548 -32915719.67446  20901851.4694                   20901850.4104
 -40325831.48446 -31403693.73743  24600685.3594                   24600693.1134
 -36369432.54348 -28321357.21446  20993984.1094                   20993984.7464
 -62918991.75448 -49008588.85646  20719388.0944                   20719385.5864
 -12931092.76247 -10058087.08645  23042139.2194                   23042142.0904
 11  8 27  0 24  0.0000000  0  8G17G10G04G12G09G05G02G25
 -94375206.10246 -73519768.28844  23842540.0784                   23842542.7194
 -53680935.74248 -41811563.46246  21102678.6804                   21102679.1174
 -72658351.10947 -56596516.98745  22647554.7664                   22647556.2154
 -42397726.14148 -33019103.89746  20876603.8984                   20876603.1914
 -40347035.20346 -31420216.46744  24596650.5084                   24596659.4924
 -36536506.30148 -28451544.47446  20962191.1564                   20962191.3794
 -63006088.23048 -49076456.21547  20702813.7734                   20702811.4534
 -13117291.09847 -10203176.63245  23006706.8134                   23006709.6414
 11  8 27  0 24 30.0000000  0  8G17G10G04G12G09G05G02G25
 -94414823.94546 -73550639.35344  23835000.6644                   23835003.4654
 -53742019.32048 -41859161.03846  21091055.2274                   21091055.3014
 -72679395.25847 -56612915.07844  22643550.5944                   22643551.4144
 -42529826.39148 -33122039.14646  20851465.9064                   20851465.3594
 -40368246.87546 -31436745.33443  24592614.7114                   24592623.0354
 -36703079.61348 -28581341.78546  20930493.0944                   20930493.5904
 -63092945.88748 -49144137.47146  20686285.4454                   20686282.9924
 -13303120.59847 -10347978.79545  22971344.5234                   22971347.3954
 11  8 27  0 25  0.0000000  0  8G17G10G04G12G09G05G02G25
 -94454224.75047 -73581341.37244  23827503.0314                   23827506.3094
 -53802490.14848 -41906281.15346  21079547.8594                   21079547.6414
 -72700384.13747 -56629270.07445  22639556.4384                   22639557.5164
 -42661348.94148 -33224524.22546  20826438.0944                   20826436.9964
 -40389468.50046 -31453281.95643  24588576.6564                   24588584.8594
 -36869149.29748 -28710746.66746  20898891.4224                   20898892.0434
 -63179565.07048 -49211632.90746  20669802.3444                   20669800.0044
 -13488577.74647 -10492490.83045  22936052.8204                   22936056.3164
 11  8 27  0 25 30.0000000  0  8G17G10G04G12G09G05G02G25
 -94493408.98046 -73611874.53644  23820046.4304                   23820049.3754
 -53862350.39148 -41952925.49046  21068156.7974                   21068156.9344
 -72721319.73847 -56645583.57945  22635572.7424                   22635574.0904
 -42792293.00048 -33326558.54946  20801520.1884                   20801519.5004
 -40410704.22746 -31469829.56343  24584535.6094                   24584543.6294
 -37034713.95348 -28839758.00146  20867385.3444                   20867385.9614
 -63265947.83648 -49278944.12346  20653364.3284                   20653362.1884
 -13673660.79347 -10636711.34145  22900832.7194                   22900835.7664
 11  8 27  0 26  0.0000000  0  8G17G10G04G12G09G05G02G25
 -94532375.46146 -73642238.05244  23812631.5234                   23812634.5554
 -53921600.52048 -41999094.40846  21056881.9064                   21056882.2464
 -72742202.26247 -56661855.73345  22631598.9304                   22631600.4304
 -42922656.12148 -33428140.18346  20776712.9454                   20776712.3014
 -40431955.83646 -31486389.58043  24580491.6804                   24580499.9804
 -37199770.58648 -28968373.48246  20835975.4534                   20835975.9304
 -63352094.37548 -49346071.26446  20636971.1174                   20636968.6914
 -13858365.98847 -10780637.42645  22865685.0004                   22865687.9454
 11  8 27  0 26 30.0000000  0  8G17G10G04G12G09G05G02G25
 -94571121.89546 -73672430.13944  23805258.3134                   23805261.3554
 -53980240.25848 -42044787.70846  21045722.9694                   21045723.3594
 -72763031.04347 -56678086.00244  22627635.3364                   22627636.6564
 -43052435.39548 -33529266.86546  20752016.6024                   20752016.2424
 -40453224.29746 -31502962.65043  24576444.4384                   24576453.0864
 -37364314.87948 -29096589.73646  20804663.8674                   20804664.0864
 -63438003.80948 -49413013.66246  20620623.0084                   20620620.8164
 -14042688.79347 -10924265.52745  22830609.4924                   22830612.2384
 11  8 27  0 27  0.0000000  0  8G17G10G04G12G09G05G02G25
 -93034227.66046 -72474850.25844  24097719.3054                   24097722.2974
 -52462850.60248 -40862406.13846  21334472.6334                   21334472.7814
 -71208387.92247 -55466675.81444  22923474.1024                   22923475.1134
 -41606206.08648 -32402334.91146  21027225.3134                   21027224.2074
 -38899093.04346 -30291951.65343  24872186.2894                   24872194.7234
 -35952920.66448 -27996801.96046  21073243.4384                   21073243.8204
 -61948255.51248 -48252170.79546  20904112.8284                   20904110.3794
 -12651201.56647  -9839989.73445  23095400.7114                   23095403.4224
 11  8 27  0 27 30.0000000  0  8G17G10G04G12G09G05G02G25
 -93072536.56246 -72504701.35844  24090429.7814                   24090432.6604
 -52520278.56648 -40907155.19646  21323544.2114                   21323544.7584
 -71229116.81647 -55482828.24844  22919529.1024                   22919530.6914
 -41734816.88348 -32502551.09346  21002751.1254                   21002750.2894
 -38920407.68746 -30308560.78143  24868130.3984                   24868139.0004
 -36116438.11747 -28124218.08146  21042126.8984                   21042127.0044
 -62033697.58648 -48318749.00546  20887853.8134                   20887851.2624
 -12834755.32447  -9983018.56745  23060471.3134                   23060474.1294
 11  8 27  0 28  0.0000000  0  8G17G10G04G12G09G05G02G25
 -93110623.37146 -72534379.43944  24083182.0164                   24083185.2464
 -52577100.03147 -40951431.65746  21312731.6334                   21312731.9804
 -71249794.37147 -55498940.66644  22915594.3674                   22915595.8554
 -41862838.21148 -32602307.94346  20978389.3834                   20978388.5744
 -38941746.66846 -30325188.90843  24864069.6024                   24864078.6954
 -36279435.78948 -28251229.17446  21011109.4694                   21011109.4734
 -62118904.77748 -48385144.19646  20871639.0474                   20871637.0084
 -13017917.48847 -10125742.27645  23025616.5164                   23025619.8754
 11  8 27  0 28 30.0000000  0  8G17G10G04G12G09G05G02G25
 -93148489.52046 -72563885.55744  24075976.4694                   24075979.6174
 -52633318.46147 -40995238.21646  21302033.7274                   21302033.9574
 -71270423.69547 -55515015.49644  22911669.0704                   22911669.7154
 -41990270.89148 -32701606.10846  20954139.9774                   20954139.4494
 -38963114.50446 -30341839.45443  24860003.9844                   24860013.0204
 -36441913.38348 -28377835.02046  20980190.9844                   20980191.3164
 -62203879.67648 -48451358.39246  20855469.0004                   20855466.9494
 -13200687.14547 -10268160.14145  22990836.7344                   22990839.6764
 11  8 27  0 29  0.0000000  0  8G17G10G04G12G09G05G02G25
 -93186140.34846 -72593223.91344  24068811.1564                   24068814.9494
 -52688941.06648 -41038580.49246  21291449.1254                   21291449.0784
 -71291011.42247 -55531057.90744  22907751.4304                   22907752.4964
 -42117119.35948 -32800449.03546  20930001.4774                   20930000.4884
 -38984519.83646 -30358519.31943  24855931.0314                   24855939.6604
 -36603874.71948 -28504038.57746  20949370.7194                   20949370.6024
 -62288629.36748 -48517397.09046  20839341.7114                   20839339.1374
 -13383067.41047 -10410274.57245  22956131.2034                   22956133.6724
 11  8 27  0 29 30.0000000  0  8G17G10G04G12G09G05G02G25
 -93223568.51646 -72622388.72343  24061689.1094                   24061692.8524
 -52743962.41448 -41081454.26046  21280979.0234                   21280979.3164
 -71311551.93747 -55547063.53844  22903842.7344                   22903844.0514
 -42243375.24648 -32898830.21646  20905975.8834                   20905974.8674
 -39005958.45746 -30375225.04343  24851851.4614                   24851860.5704
 -36765310.63748 -28629832.72746  20918650.3984                   20918650.1914
 -62373147.57848 -48583255.42046  20823258.7424                   20823256.1994
 -13565048.56247 -10552077.98445  22921501.0704                   22921503.9574
 11  8 27  0 30  0.0000000  0  8G17G10G04G12G09G05G02G25
 -93260777.08246 -72651382.48344  24054609.4064                   24054612.4414
 -52798387.93448 -41123863.74746  21270622.3054                   21270622.2814
 -71332049.63347 -55563035.79244  22899942.0164                   22899943.3594
 -42369040.71148 -32996751.32046  20882062.2344                   20882061.8014
 -39027436.52346 -30391961.51143  24847765.1724                   24847774.0044
 -36926222.17248 -28755218.28146  20888029.8524                   20888029.9964
 -62457439.00448 -48648937.03346  20807218.1884                   20807215.6844
 -13746631.28547 -10693570.93845  22886946.7424                   22886949.7704
 11  8 27  0 30 30.0000000  0  8G17G10G04G12G09G05G02G25
 -93297763.81646 -72680203.36344  24047570.8284                   24047573.2424
 -52852217.39848 -41165808.76746  21260378.5314                   21260378.5664
 -71352503.71147 -55578974.08044  22896049.9924                   22896051.6804
 -42494112.89848 -33094210.13046  20858261.9144                   20858261.0824
 -39048955.20746 -30408729.63843  24843670.1884                   24843679.0274
 -37086605.43448 -28880192.16946  20857509.9924                   20857510.1844
 -62541502.68048 -48714441.20046  20791221.4694                   20791219.0514
 -13927811.09047 -10834749.92945  22852469.5784                   22852472.6174
 11  8 27  0 31  0.0000000  0  8G17G10G04G12G09G05G02G25
 -93334527.86346 -72708850.76644  24040574.6884                   24040578.3634
 -52905451.89548 -41207290.18546  21250248.6954                   21250248.7154
 -71372914.91847 -55594878.94944  22892165.6804                   22892167.5164
 -42618589.73048 -33191205.02646  20834574.4224                   20834573.6604
 -39070516.63746 -30425531.07743  24839567.3284                   24839576.6524
 -37246458.10548 -29004752.63846  20827091.0234                   20827091.0664
 -62625339.08648 -48779768.25946  20775268.0554                   20775265.2504
 -14108584.72347 -10975612.42345  22818068.9844                   22818071.9694
 11  8 27  0 31 30.0000000  0  8G17G10G04G12G09G05G02G25
 -93371070.53546 -72737325.58844  24033620.7274                   24033624.5784
 -52958094.34047 -41248310.25546  21240231.1724                   21240230.8134
 -71393285.13347 -55610751.89244  22888288.9454                   22888291.3244
 -42742471.16448 -33287735.98446  20811000.7424                   20811000.2274
 -39092124.58246 -30442368.76043  24835455.4694                   24835464.6724
 -37405779.48848 -29128899.10047  20796773.0784                   20796773.4844
 -62708950.40648 -48844919.92346  20759357.2424                   20759354.9264
 -14288950.65247 -11116157.22345  22783746.3284                   22783749.4734
 11  8 27  0 32  0.0000000  0  7G17G10G04G12G05G02G25
 -93407390.03146 -72765626.54944  24026709.6254                   24026712.6414
 -53010145.35547 -41288869.47846  21230326.0164                   21230326.2074
 -71413614.53547 -55626593.00744  22884420.4064                   22884422.9104
 -42865755.14848 -33383801.39946  20787540.8594                   20787539.9924
 -37564565.80148 -29252628.61146  20766556.7344                   20766557.0784
 -62792336.76248 -48909896.29546  20743489.2664                   20743486.8164
 -14468905.23448 -11256381.49645  22749502.3594                   22749504.6684
 11  8 27  0 32 30.0000000  0  7G17G10G04G12G05G02G25
 -93443489.03946 -72793755.63944  24019840.6334                   24019842.8634
 -53061609.73047 -41328971.57346  21220532.3754                   21220532.8244
 -71433907.12947 -55642405.46044  22880558.9694                   22880561.0354
 -42988443.30548 -33479402.53546  20764193.8594                   20764193.0434
 -37722818.70748 -29375942.50847  20736442.5944                   20736442.5084
 -62875502.01648 -48974700.38846  20727663.4844                   20727661.1054
 -14648448.63747 -11396285.38445  22715336.1804                   22715339.2814
 11  8 27  0 33  0.0000000  0  7G17G10G04G12G05G02G25
 -93479356.19546 -72821704.14244  24013014.5474                   24013017.9454
 -53112478.27348 -41368609.38546  21210852.7274                   21210852.6484
 -71454152.62947 -55658181.19844  22876706.7274                   22876708.4884
 -43110523.60248 -33574530.01046  20740962.9304                   20740962.2424
 -37880524.75448 -29498830.26847  20706432.1094                   20706431.9734
 -62958435.58648 -49039323.94346  20711881.8364                   20711879.5664
 -14827566.98448 -11535858.04945  22681251.2894                   22681253.2544
 11  8 27  0 33 30.0000000  0  7G17G10G04G12G05G02G25
 -93514988.16446 -72849469.34844  24006234.5164                   24006237.2344
 -53162749.69948 -41407781.93346  21201286.2734                   21201286.2234
 -71474349.20347 -55673918.81044  22872863.8444                   22872865.3914
 -43231991.42648 -33669180.23646  20717847.9064                   20717847.1414
 -38037678.97748 -29621288.04547  20676526.5394                   20676526.3014
 -63041135.84048 -49103765.69846  20696144.4614                   20696141.8754
 -15006254.89847 -11675095.32545  22647247.5944                   22647250.2934
 11  8 27  0 34  0.0000000  0  7G17G10G04G12G05G02G25
 -93550385.33246 -72877051.63444  23999498.4454                   23999501.6484
 -53212426.41448 -41446491.04746  21191833.2734                   21191832.9804
 -71494498.59447 -55689619.67545  22869029.2974                   22869030.6954
 -43352847.27048 -33763353.59746  20694850.3204                   20694848.9654
 -38194280.19548 -29743314.90147  20646726.1174                   20646726.5044
 -63123604.58248 -49168027.05946  20680451.1334                   20680448.8014
 -15184510.29748 -11813995.59645  22613326.8834                   22613329.3204
 11  8 27  0 34 30.0000000  0  7G17G10G04G12G05G02G25
 -93585553.19146 -72904455.18944  23992807.0394                   23992809.3324
 -53261515.94948 -41484742.61646  21182491.5164                   21182491.8754
 -71514607.28547 -55705288.81745  22865202.9144                   22865204.6254
 -43473094.94548 -33857053.06546  20671967.6804                   20671967.0274
 -38350332.04748 -29864913.69147  20617030.2974                   20617030.6454
 -63205848.17648 -49232112.97446  20664800.3984                   20664798.4844
 -15362336.11747 -11952561.10245  22579488.0314                   22579490.6564
 11  8 27  0 35  0.0000000  0  7G17G10G04G12G05G02G25
 -92045071.22746 -71704079.62943  24285950.4844                   24285953.3014
 -51734599.73848 -40294937.75846  21473054.1174                   21473054.3134
 -69959256.45747 -54493327.16944  23161176.4304                   23161177.8714
 -42017310.78148 -32722675.78046  20948994.0784                   20948993.2114
 -36930408.45748 -28758479.65447  20887232.8054                   20887233.0514
 -61712445.89848 -48068422.88446  20948985.5394                   20948983.0124
 -13964304.77047 -10863185.96645  22845524.3594                   22845526.4734
 11  8 27  0 35 30.0000000  0  7G17G10G04G12G05G02G25
 -92079784.64846 -71731129.06043  24279344.7584                   24279347.3204
 -51782525.95748 -40332282.87446  21463933.8984                   21463933.9104
 -69979291.82847 -54508939.19245  23157364.1804                   23157365.7814
 -42136344.48048 -32815429.28946  20926343.1024                   20926341.9494
 -37085361.15248 -28879221.95647  20857746.2504                   20857746.3794
 -61794247.40248 -48132164.30646  20933419.2274                   20933416.8284
 -14141268.62147 -11001079.83145  22811849.6884                   22811851.7074
 11  8 27  0 36  0.0000000  0  7G17G10G04G12G05G02G25
 -92114272.90246 -71758003.07843  24272782.1094                   24272784.4224
 -51829875.71548 -40369178.79246  21454923.4844                   21454924.0084
 -69999294.31647 -54524525.56344  23153557.5004                   23153559.5394
 -42254772.13748 -32907710.56146  20903806.7274                   20903805.7774
 -37239763.77748 -28999535.62847  20828364.1804                   20828364.3484
 -61875831.90248 -48195736.63846  20917894.4304                   20917891.5634
 -14317800.03947 -11138636.73645  22778256.3754                   22778258.9614
 11  8 27  0 36 30.0000000  0  7G17G10G04G12G05G02G25
 -92148534.82046 -71784700.67043  24266262.0394                   24266264.5664
 -51876650.06248 -40405626.35746  21446022.9304                   21446023.0784
 -70019264.20347 -54540086.57844  23149757.5314                   23149758.7114
 -42372592.10948 -32999518.31547  20881386.5634                   20881385.1254
 -37393613.70748 -29119418.62447  20799087.6174                   20799087.7074
 -61957199.66848 -48259140.08746  20902410.5004                   20902408.3054
 -14493895.53147 -11275853.95645  22744746.4064                   22744749.4104
 11  8 27  0 37  0.0000000  0  7G17G10G04G12G05G02G25
 -92182571.68746 -71811222.93943  24259784.7344                   24259787.5824
 -51922852.48848 -40441628.25246  21437230.4774                   21437230.9024
 -70039203.73047 -54555623.87844  23145962.7424                   23145964.3134
 -42489804.74248 -33090852.82346  20859081.3754                   20859080.2304
 -37546910.60948 -29238870.69647  20769915.7114                   20769916.1684
 -62038352.62148 -48322376.15146  20886967.6724                   20886965.0944
 -14669553.96547 -11412730.60545  22711319.7584                   22711322.2894
 11  8 27  0 37 30.0000000  0  7G17G10G04G12G05G02G25
 -92216382.53546 -71837568.99143  24253350.5164                   24253353.6134
 -51968484.46948 -40477185.64646  21428547.4384                   21428547.9494
 -70059113.35547 -54571137.89244  23142173.8524                   23142175.6454
 -42606408.58248 -33181712.94546  20836892.5314                   20836891.8554
 -37699652.23448 -29357890.08446  20740850.4064                   20740850.2584
 -62119291.23448 -48385445.19446  20871565.3524                   20871563.1254
 -14844772.19947 -11549264.25045  22677976.7664                   22677979.3954
 11  8 27  0 38  0.0000000  0  7G17G10G04G12G05G02G25
 -92249969.57446 -71863740.73243  24246959.3444                   24246962.8164
 -52013549.83648 -40512301.52846  21419971.6414                   21419971.8284
 -70078996.31247 -54586631.15044  23138390.5944                   23138392.1564
 -42722404.87148 -33272099.65847  20814819.0314                   20814818.3324
 -37851838.83648 -29476476.97946  20711889.8444                   20711889.8984
 -62200018.80948 -48448349.78646  20856203.9144                   20856200.8164
 -15019549.94547 -11685454.65445  22644717.8204                   22644720.3754
 11  8 27  0 38 30.0000000  0  7G17G10G04G12G05G02G25
 -92283333.39146 -71889738.54943  24240610.8284                   24240613.9534
 -52058051.65648 -40546978.28446  21411503.2424                   21411503.7384
 -70098854.08647 -54602104.74444  23134612.0704                   23134613.1024
 -42837793.63348 -33362012.96146  20792861.1024                   20792860.8134
 -38003469.18748 -29594630.44247  20683035.5554                   20683035.9774
 -62280537.18048 -48511091.35946  20840881.4614                   20840879.0784
 -15193885.31247 -11821300.34245  22611542.8914                   22611545.4654
 11  8 27  0 39  0.0000000  0  7G17G10G04G12G05G02G25
 -92316473.27046 -71915561.97143  24234304.0784                   24234307.2774
 -52101991.50448 -40581217.13245  21403141.8674                   21403141.9654
 -70118687.08646 -54617559.06043  23130837.7034                   23130839.0044
 -42952573.59048 -33451451.88646  20771019.5704                   20771018.8874
 -38154541.56248 -29712349.12747  20654287.4384                   20654287.7854
 -62360846.74648 -48573670.23546  20825599.0554                   20825596.6484
 -15367775.30547 -11956798.97045  22578452.5164                   22578455.1914
 11  8 27  0 39 30.0000000  0  7G17G10G04G12G05G02G25
 -92349386.88346 -71941208.95643  24228040.9384                   24228043.4574
 -52145369.32847 -40615018.04645  21394887.3524                   21394887.7154
 -70138494.20347 -54632993.18444  23127068.3914                   23127070.4224
 -43066741.84048 -33540414.14046  20749293.8984                   20749293.1804
 -38305052.07448 -29829629.98847  20625646.5234                   20625646.5554
 -62440946.62548 -48636085.71246  20810356.4304                   20810354.1214
 -15541215.37147 -12091947.01645  22545447.9384                   22545450.7384
 11  8 27  0 40  0.0000000  0  7G17G10G04G12G05G02G25
 -92382074.69146 -71966679.97243  24221820.8914                   24221824.3054
 -52188187.59447 -40648382.95846  21386739.3444                   21386739.5944
 -70158276.68047 -54648408.10644  23123304.3054                   23123305.6684
 -43180297.87948 -33628899.36246  20727685.0164                   20727684.3014
 -38454999.09448 -29946471.76047  20597112.3444                   20597112.0354
 -62520837.85548 -48698338.61546  20795153.3594                   20795151.2034
 -15714203.30147 -12226742.74445  22512529.4224                   22512531.5274
 11  8 27  0 40 30.0000000  0  7G17G10G04G12G05G02G25
 -92414535.96146 -71991974.57343  24215643.7344                   24215647.2034
 -52230448.11347 -40681313.25646  21378697.4304                   21378697.6564
 -70178035.24247 -54663804.41744  23119544.6644                   23119545.8714
 -43293240.79348 -33716906.81646  20706192.6414                   20706191.6884
 -38604381.12148 -30062873.28847  20568685.6334                   20568686.1994
 -62600521.21148 -48760429.53646  20779990.4534                   20779988.3134
 -15886736.32447 -12361184.00045  22479697.5704                   22479700.0004
 11  8 27  0 41  0.0000000  0  7G17G10G04G12G05G02G25
 -92446771.25846 -72017092.97543  24209509.4924                   24209513.0594
 -52272153.84047 -40713811.23446  21370761.0314                   21370761.4344
 -70197771.34446 -54679183.21844  23115788.7894                   23115790.4804
 -43405570.57848 -33804436.51246  20684816.8134                   20684816.2664
 -38753197.09048 -30178833.72747  20540366.9844                   20540367.2544
 -62679998.47348 -48822359.85446  20764866.2734                   20764863.9454
 -16058812.67247 -12495269.41645  22446952.6334                   22446955.0164
 11  8 27  0 41 30.0000000  0  7G17G10G04G12G05G02G25
 -92478780.93046 -72042035.62944  24203418.2194                   24203422.1684
 -52313306.86748 -40745878.52445  21362929.9304                   21362930.6134
 -70217486.22346 -54694545.48544  23112036.9534                   23112038.8954
 -43517286.40248 -33891487.80346  20663558.1884                   20663557.3984
 -38901445.35248 -30294351.80047  20512156.6334                   20512156.1134
 -62759270.66448 -48884130.38246  20749781.1884                   20749778.6994
 -16230429.98447 -12628997.13345  22414294.8524                   22414296.5594
 11  8 27  0 42  0.0000000  0  7G17G10G04G12G05G02G25
 -92510565.04746 -72066802.49944  24197370.4614                   24197373.3554
 -52353909.86347 -40777517.22345  21355203.5234                   21355203.6174
 -70237180.73046 -54709891.85544  23108289.4694                   23108290.2664
 -43628387.96948 -33978060.44346  20642416.4534                   20642415.3014
 -39049124.98448 -30409426.78047  20484053.9454                   20484053.9024
 -62838338.68447 -48945741.83046  20734735.4924                   20734732.8634
 -16401586.04347 -12762365.43445  22381725.0004                   22381727.1254
 11  8 27  0 42 30.0000000  0  7G17G10G04G12G05G02G25
 -90966701.53146 -70863791.97644  24491158.0314                   24491161.3404
 -50818542.68747 -39581127.23845  21647373.9774                   21647374.1914
 -68681434.43746 -53497622.06444  23404338.1724                   23404340.1414
 -42163450.54748 -32836550.76146  20921184.6954                   20921183.4144
 -37620808.38748 -29296452.74947  20755853.8524                   20755853.3244
 -61341780.46547 -47779592.56746  21019520.8444                   21019518.4304
 -14996851.91847 -11667767.37245  22649036.8524                   22649039.2974
 11  8 27  0 43  0.0000000  0  7G17G10G04G12G05G02G25
 -90998033.75046 -70888206.76744  24485195.4064                   24485199.0354
 -50858051.40648 -39611913.24346  21639856.1174                   21639856.0044
 -68701090.71146 -53512938.64944  23400597.9614                   23400599.1174
 -42273322.21147 -32922165.03846  20900276.7034                   20900275.7584
 -37767345.41048 -29410637.40447  20727968.0234                   20727967.8594
 -61420443.48047 -47840888.42046  21004552.0554                   21004549.0204
 -15167077.96547 -11800410.99345  22616643.8364                   22616646.1024
 11  8 27  0 43 30.0000000  0  7G17G10G04G12G05G02G25
 -91029141.89146 -70912446.88944  24479275.7974                   24479279.1484
 -50897018.65648 -39642277.34046  21632440.7114                   21632440.2504
 -68720731.38746 -53528243.10144  23396860.2664                   23396861.8324
 -42382579.80947 -33007300.81947  20879485.6884                   20879484.7234
 -37913311.08648 -29524376.83347  20700192.1024                   20700191.7704
 -61498907.35547 -47902029.10446  20989620.3914                   20989618.1914
 -15336837.39847 -11932691.04445  22584339.6724                   22584341.6724
 11  8 27  0 44  0.0000000  0  8G17G10G04G12G29G05G02G25
 -91060026.27047 -70936512.68744  24473398.7814                   24473402.2894
 -50935446.67648 -39672221.26345  21625127.7974                   21625128.0744
 -68740357.37546 -53543536.11844  23393125.8674                   23393127.3014
 -42491223.21948 -33091958.02146  20858811.4064                   20858810.9344
   9183619.52356   7176615.70153  24726673.5554                   24726676.1134
 -38058704.00848 -29637669.96647  20672524.6334                   20672524.5394
 -61577173.46948 -47963015.67946  20974727.3204                   20974724.5904
 -15506128.15647 -12064605.87545  22552124.6564                   22552126.9264
 11  8 27  0 44 30.0000000  0  8G17G10G04G12G29G05G02G25
 -91090694.48446 -70960410.00244  24467562.8444                   24467566.2464
 -50973345.48848 -39701752.80945  21617916.4844                   21617916.0394
 -68759977.23846 -53558824.35044  23389392.2894                   23389393.9844
 -42599259.44948 -33176142.10647  20838253.1644                   20838252.5084
   9002775.92647   7035698.75943  24692261.1094                   24692262.9804
 -38203530.36748 -29750521.62947  20644965.0234                   20644964.7854
 -61655250.37948 -48023854.82546  20959869.1094                   20959867.0664
 -15674955.47747 -12196159.60045  22519997.7274                   22520000.3674
 11  8 27  0 45  0.0000000  0  8G17G10G04G12G29G05G02G25
 -91121147.03147 -70984139.26644  24461768.0164                   24461771.3134
 -51010717.81248 -39730874.10245  21610804.3834                   21610804.2424
 -68779592.46146 -53574109.00344  23385659.1564                   23385661.0044
 -42706688.57848 -33259853.10546  20817809.7034                   20817809.2934
   8821877.53147   6894739.01544  24657837.1804                   24657839.2584
 -38347789.71148 -29862931.45047  20617513.1174                   20617513.1254
 -61733139.56647 -48084547.70246  20945047.6804                   20945045.4534
 -15843317.65247 -12327350.85945  22487959.9534                   22487961.8204
 11  8 27  0 45 30.0000000  0  8G17G10G04G12G29G05G02G25
 -91151386.00446 -71007702.13744  24456013.6094                   24456017.2114
 -51047568.09048 -39759588.61645  21603792.3984                   21603792.1914
 -68799205.98047 -53589392.32044  23381926.9534                   23381929.0394
 -42813512.37547 -33343092.42646  20797482.0394                   20797480.9384
   8640923.00846   6753735.60544  24623402.3984                   24623404.6454
 -38491482.44948 -29974899.76947  20590169.7194                   20590169.0944
 -61810844.00847 -48145096.61846  20930260.9454                   20930258.5124
 -16011214.31647 -12458179.39745  22456009.9224                   22456011.8484
 11  8 27  0 46  0.0000000  0  8G17G10G04G12G29G05G02G25
 -91181407.10246 -71031095.19543  24450300.8914                   24450304.4924
 -51083894.68748 -39787895.04945  21596879.1644                   21596879.9574
 -68818814.33247 -53604671.63344  23378195.6334                   23378197.5634
 -42919726.39547 -33425856.59346  20777270.0164                   20777269.2734
   8459916.89847   6612691.94744  24588957.9064                   24588959.9494
 -38634603.23848 -30086422.40047  20562934.2274                   20562933.9964
 -61888360.84847 -48205499.35046  20915509.9924                   20915507.7464
 -16178639.09847 -12588640.23245  22424150.0944                   22424151.6954
 11  8 27  0 46 30.0000000  0  8G17G10G04G12G29G05G02G25
 -91211210.73046 -71054318.73443  24444629.3914                   24444632.8324
 -51119700.04748 -39815795.33645  21590065.5864                   21590065.8014
 -68838418.50447 -53619947.69044  23374465.3524                   23374467.3524
 -43025329.89548 -33508145.03647  20757174.1884                   20757173.8754
   8278859.91046   6471608.63544  24554504.1644                   24554506.0084
 -38777150.84848 -30197498.41147  20535808.4774                   20535808.2734
 -61965690.93748 -48265756.56246  20900794.8444                   20900792.1024
 -16345589.64847 -12718731.51045  22392380.3834                   22392382.6334
 11  8 27  0 47  0.0000000  0  8G17G10G04G12G29G05G02G25
 -91240792.85246 -71077369.77243  24438999.9384                   24439003.4614
 -51154982.81248 -39843288.41445  21583351.8054                   21583351.5944
 -68858015.49646 -53635218.14244  23370736.1954                   23370738.1844
 -43130319.18448 -33589954.87446  20737195.6564                   20737194.9414
   8097756.66847   6330489.33043  24520041.2814                   24520043.3094
 -38919120.00448 -30308123.68847  20508792.4774                   20508792.2774
 -62042831.76648 -48325866.29346  20886115.2974                   20886112.5594
 -16512059.97347 -12848448.60045  22360701.6024                   22360704.1214
 11  8 27  0 47 30.0000000  0  8G17G10G04G12G29G05G02G25
 -91270155.94546 -71100250.13043  24433412.7664                   24433415.9344
 -51189747.25848 -39870377.59445  21576736.0554                   21576736.8164
 -68877608.25446 -53650485.28944  23367007.6094                   23367009.4304
 -43234696.20348 -33671287.60347  20717333.4924                   20717332.9454
   7916605.48846   6189332.56043  24485569.2664                   24485571.0904
 -39060511.54748 -30418298.86247  20481886.4454                   20481886.1334
 -62119786.00848 -48385830.63246  20871471.4924                   20871469.1054
 -16678050.00447 -12977791.43745  22329114.9844                   22329117.3054
 11  8 27  0 48  0.0000000  0  8G17G10G04G12G29G05G02G25
 -91299297.78946 -71122957.94343  24427867.3364                   24427870.4304
 -51223994.06648 -39897063.44845  21570218.9774                   21570219.7114
 -68897195.87146 -53665748.44644  23363280.4454                   23363282.6134
 -43338458.32048 -33752141.19947  20697588.0234                   20697587.1334
   7735409.13746   6048140.72343  24451088.9304                   24451089.6804
 -39201322.73048 -30528021.80347  20455091.1724                   20455091.2934
 -62196552.69148 -48445648.82446  20856863.0944                   20856860.4654
 -16843555.50847 -13106756.71945  22297620.1884                   22297622.4774
 11  8 27  0 48 30.0000000  0  7G10G04G12G29G05G02G25
 -51257727.48848 -39923349.23045  21563800.0784                   21563799.8714
 -68916781.19546 -53681009.81844  23359553.5864                   23359555.5554
 -43441607.53548 -33832517.20547  20677959.1484                   20677958.7274
   7554165.96946   5906912.35743  24416598.9304                   24416600.3524
 -39341554.08248 -30637292.94047  20428406.1954                   20428405.7234
 -62273135.06648 -48505323.41546  20842290.0864                   20842287.5824
 -17008576.36347 -13235344.33645  22266217.5944                   22266219.8834
 11  8 27  0 49  0.0000000  0  7G10G04G12G29G05G02G25
 -51290948.82848 -39949235.99245  21557478.3754                   21557478.0744
 -68936363.21546 -53696268.62244  23355827.5394                   23355828.9964
 -43544142.28147 -33912414.41147  20658447.7894                   20658446.8714
   7372878.28946   5765649.27443  24382100.3834                   24382102.7194
 -39481202.97348 -30746110.21447  20401831.5864                   20401831.3014
 -62349532.48448 -48564853.87446  20827752.1954                   20827749.5664
 -17173108.83647 -13363551.40745  22234908.4064                   22234910.9494
 11  8 27  0 49 30.0000000  0  7G10G04G12G29G05G02G25
 -51323649.30147 -39974716.87745  21551255.0784                   21551255.8874
 -68955931.67246 -53711516.84644  23352103.3054                   23352105.3984
 -43646051.08648 -33991823.86047  20639054.9224                   20639054.6054
   7191558.03146   5624360.80143  24347597.0084                   24347598.9774
 -39620257.14148 -30854464.06147  20375370.4614                   20375369.9654
 -62425734.82048 -48624232.30946  20813251.3444                   20813248.9494
 -17337139.37947 -13491367.35345  22203694.5004                   22203696.6644
 11  8 27  0 50  0.0000000  0  7G10G04G12G29G05G02G25
 -51355830.73448 -39999793.32245  21545131.3984                   21545131.4924
 -68975486.83646 -53726754.74144  23348382.5394                   23348384.5124
 -43747333.12148 -34070744.91747  20619781.6094                   20619781.1374
   7010206.35246   5483047.90443  24313086.7424                   24313087.9804
 -39758714.91848 -30962353.19347  20349022.7034                   20349022.2384
 -62501742.64548 -48683459.19346  20798787.6174                   20798784.9964
 -17500665.45347 -13618790.22445  22172576.0704                   22172578.5204
 11  8 27  0 50 30.0000000  0  7G10G04G12G29G05G02G25
 -49812075.60248 -38796867.25945  21838898.4304                   21838898.6994
 -67419609.94547 -52514383.22244  23644455.4774                   23644457.5594
 -42272565.99648 -32921575.73847  20900420.7664                   20900419.7624
   8404248.97346   6569314.95643  24578364.5474                   24578365.3834
 -38321151.57848 -29842173.92147  20622581.9144                   20622581.4534
 -61002135.01648 -47514933.76046  21084153.3754                   21084151.0354
 -16088260.42647 -12518214.80845  22441348.0784                   22441350.6804
 11  8 27  0 51  0.0000000  0  7G10G04G12G29G05G02G25
 -49843230.53548 -38821143.83045  21832969.6804                   21832970.0314
 -67439144.77047 -52529605.21643  23640738.3984                   23640740.6174
 -42372598.27048 -32999522.94947  20881385.0394                   20881384.4694
   8222832.75046   6427951.74243  24543841.9844                   24543843.4924
 -38458417.15248 -29949134.06547  20596460.9614                   20596460.6604
 -61077760.01248 -47573862.32846  21069762.4304                   21069759.9494
 -16250774.93747 -12644849.43946  22410422.3054                   22410424.6134
 11  8 27  0 51 30.0000000  0  7G10G04G12G29G05G02G25
 -49873879.32448 -38845026.00245  21827137.3754                   21827137.2344
 -67458673.94947 -52544822.79743  23637022.9614                   23637023.9844
 -42472008.77048 -33076985.67946  20862467.7894                   20862466.9804
   8041381.75046   6286561.49043  24509312.8284                   24509314.2194
 -38595088.63747 -30055631.28347  20570453.2114                   20570452.8134
 -61153198.74247 -47632645.76946  21055406.6174                   21055404.1954
 -16412783.84047 -12771090.10145  22379593.5084                   22379595.4924
 11  8 27  0 52  0.0000000  0  7G10G04G12G29G05G02G25
 -49904024.93748 -38868516.08345  21821401.2344                   21821401.1524
 -67478198.59447 -52560036.86544  23633307.0394                   23633308.7584
 -42570797.62148 -33153963.99647  20843668.7584                   20843667.9454
   7859896.42246   6145144.48943  24474777.1644                   24474778.9534
 -38731165.14848 -30161664.87847  20544558.8984                   20544558.1134
 -61228452.21548 -47691284.82946  21041086.6024                   21041084.0984
 -16574285.40247 -12896935.43045  22348860.2974                   22348862.9614
 11  8 27  0 52 30.0000000  0  7G10G04G12G29G05G02G25
 -49933669.25448 -38891615.55745  21815760.2664                   21815760.2424
 -67497718.82047 -52575247.45244  23629592.5634                   23629594.7504
 -42668964.55948 -33230457.71047  20824988.2424                   20824987.7034
   7678378.09446   6003701.75444  24440235.4694                   24440236.7774
 -38866645.16048 -30267233.67647  20518777.7664                   20518777.3324
 -61303520.87148 -47749779.88546  21026801.5634                   21026799.2584
 -16735276.94548 -13022383.32946  22318224.7344                   22318227.0634
 11  8 27  0 53  0.0000000  0  7G10G04G12G29G05G02G25
 -49962816.39148 -38914327.61545  21810213.5944                   21810213.6604
 -67517237.32847 -52590456.73044  23625878.7584                   23625880.4884
 -42766511.13348 -33306468.02247  20806425.7734                   20806425.2934
   7496825.98446   5862232.74444  24405686.8204                   24405688.1054
 -39001529.47348 -30372338.30147  20493110.3834                   20493109.9454
 -61378407.28148 -47808132.92746  21012551.0784                   21012548.6414
 -16895758.06648 -13147433.50646  22287685.9924                   22287687.8094
 11  8 27  0 53 30.0000000  0  7G10G04G12G29G05G02G25
 -49991472.29748 -38936656.88945  21804760.3834                   21804760.6884
 -67536757.75047 -52605667.46544  23622164.0704                   23622165.3524
 -42863440.98048 -33381997.77046  20787980.9224                   20787980.1724
   7315237.47346   5720735.38543  24371131.2894                   24371133.7814
 -39135820.34048 -30476980.48347  20467555.5554                   20467555.1134
 -61453115.64148 -47866347.22346  20998334.5474                   20998332.1844
 -17055729.81647 -13272086.76946  22257244.3984                   22257246.7774
 11  8 27  0 54  0.0000000  0  7G10G04G12G29G05G02G25
 -50019638.45748 -38958604.55445  21799400.4694                   21799400.9344
 -67556279.78947 -52620879.51744  23618448.9064                   23618450.5164
 -42959752.97748 -33457046.07247  20769653.4774                   20769652.6374
   7133614.27746   5579210.94844  24336569.8284                   24336571.9614
 -39269515.70748 -30581158.65047  20442113.5784                   20442113.5004
 -61527646.03948 -47924422.85946  20984152.0314                   20984149.4454
 -17215189.21547 -13396340.79246  22226900.2344                   22226902.7934
 11  8 27  0 54 30.0000000  0  7G10G04G12G29G05G02G25
 -50047320.30948 -38980174.82345  21794132.6024                   21794133.1134
 -67575807.07047 -52636095.56844  23614733.2424                   23614735.0124
 -43055449.46148 -33531614.74746  20751442.7584                   20751442.0744
   6951954.47347   5437657.98243  24302001.4614                   24302003.1094
 -39402617.48848 -30684874.28247  20416785.5084                   20416785.3094
 -61602001.77748 -47982362.38246  20970002.3674                   20969999.9224
 -17374136.86347 -13520196.04946  22196653.3204                   22196655.5084
 11  8 27  0 55  0.0000000  0  7G10G04G12G29G05G02G25
 -50074521.08648 -39001370.24545  21788956.9774                   21788956.8714
 -67595340.73447 -52651316.61443  23611016.1094                   23611018.4064
 -43150531.23048 -33605704.42846  20733349.4064                   20733348.3204
   6770258.36347   5296076.76444  24267424.8594                   24267426.5784
 -39535125.34848 -30788127.11947  20391570.0944                   20391569.8284
 -61676184.53148 -48040167.12346  20955885.8674                   20955883.1414
 -17532571.41848 -13643651.50246  22166504.4774                   22166506.3714
 11  8 27  0 55 30.0000000  0  7G10G04G12G29G05G02G25
 -50101238.37148 -39022188.92445  21783872.3204                   21783872.7034
 -67614876.62547 -52666539.38444  23607298.4384                   23607300.4734
 -43244994.10548 -33679311.86446  20715373.5634                   20715372.8364
   6588531.31347   5154471.38744  24232844.2194                   24232844.9884
 -39667033.47748 -30890912.62747  20366468.7194                   20366467.9614
 -61750190.29348 -48097833.93546  20941802.8914                   20941800.4144
 -17690485.94548 -13766701.73346  22136454.2584                   22136455.9264
 11  8 27  0 56  0.0000000  0  7G10G04G12G29G05G02G25
 -50127476.16848 -39042633.97045  21778879.7584                   21778880.3164
 -67634416.62546 -52681765.39043  23603579.8834                   23603581.3014
 -43338839.31248 -33752437.98447  20697515.5004                   20697514.6294
   6406772.80947   5012841.53244  24198256.3984                   24198257.9224
 -39798342.81647 -30993231.55147  20341481.3284                   20341480.9414
 -61824021.52748 -48155364.75546  20927753.5314                   20927750.9574
 -17847879.88348 -13889346.30146  22106502.9454                   22106505.3594
 11  8 27  0 56 30.0000000  0  7G10G04G12G29G05G02G25
 -50153237.89848 -39062708.05245  21773977.4064                   21773977.6054
 -67653962.70346 -52696996.11043  23599859.8284                   23599862.0984
 -43432067.95748 -33825083.68046  20679774.5864                   20679773.5704
   6224982.73446   4871187.00744  24163662.4844                   24163664.5514
 -39929053.38348 -31095083.89447  20316608.1024                   20316607.6524
 -61897680.04748 -48212760.99946  20913736.6884                   20913733.8834
 -18004752.15648 -14011584.39746  22076651.2584                   22076653.4024
 11  8 27  0 57  0.0000000  0  7G10G04G12G29G05G02G25
 -50178527.34448 -39082414.13045  21769164.7504                   21769165.4844
 -67673516.08247 -52712232.51044  23596139.0234                   23596141.7624
 -43524680.79348 -33897249.51047  20662151.0634                   20662150.2424
   6043161.55146   4729508.29144  24129062.9924                   24129064.5004
 -40059164.77748 -31196469.36247  20291848.5164                   20291847.9694
 -61971167.10248 -48270023.62046  20899752.5164                   20899749.9614
 -18161101.42648 -14133414.93546  22046898.8524                   22046900.9964
 11  8 27  0 57 30.0000000  0  7G10G04G12G29G05G02G25
 -50203345.96547 -39101753.31945  21764442.5944                   21764442.5434
 -67693076.18447 -52727474.16143  23592417.1484                   23592419.1334
 -43616677.02048 -33968934.89347  20644644.6484                   20644644.0664
   5861310.71146   4587806.39544  24094458.3594                   24094459.6994
 -40188675.32448 -31297386.63347  20267203.7504                   20267203.0944
 -62044482.45348 -48327152.46046  20885801.2504                   20885798.6484
 -18316924.70748 -14254835.62446  22017246.7974                   22017248.6054
 11  8 27  0 58  0.0000000  0  7G10G04G12G29G05G02G25
 -48652276.44147 -37893127.73445  22059601.2814                   22059601.2234
 -66137223.80547 -51515121.64544  23888486.2814                   23888488.5474
 -42132634.69948 -32812538.28047  20927048.6884                   20927047.9144
   7254856.77346   5673686.50844  24359641.0004                   24359642.6564
 -38742160.75448 -30170232.37547  20542465.9534                   20542465.5044
 -60542205.79348 -47156547.26046  21171674.8674                   21171672.6254
 -16896795.80548 -13148241.63746  22287488.1724                   22287489.9574
 11  8 27  0 58 30.0000000  0  7G10G04G12G29G05G02G25
 -48676165.51247 -37911742.59745  22055055.3984                   22055055.4264
 -66156803.90247 -51530378.87544  23884760.2584                   23884762.5514
 -42223402.93448 -32883266.77546  20909775.7734                   20909774.9454
   7072945.23446   5531937.31844  24325024.6334                   24325025.8674
 -38870472.06648 -30270215.18447  20518049.1724                   20518048.7074
 -60615185.72348 -47213414.73346  21157787.3594                   21157784.8204
 -17051565.98848 -13268841.73846  22258036.5634                   22258038.2544
 11  8 27  0 59  0.0000000  0  7G10G04G12G29G05G02G25
 -48699592.71147 -37929997.55845  22050597.1724                   22050597.1374
 -66176393.87547 -51545643.79443  23881032.9774                   23881034.4304
 -42313556.98048 -32953516.68046  20892620.0474                   20892619.4414
   6891005.58246   5390166.20344  24290402.2974                   24290403.6764
 -38998181.58648 -30369729.05947  20493746.9304                   20493746.4494
 -60687997.80548 -47270151.42146  21143931.6564                   21143929.0394
 -17205805.59448 -13389028.42646  22228685.4064                   22228687.7424
 11  8 27  0 59 30.0000000  0  7G10G04G12G29G05G02G25
 -48722561.14148 -37947895.06345  22046226.4844                   22046226.3324
 -66195994.49247 -51560917.04644  23877302.8134                   23877304.2704
 -42403097.14148 -33023288.23746  20875581.4144                   20875580.6054
   6709038.41446   5248373.71143  24255775.0164                   24255776.4534
 -39125288.98048 -30468773.73047  20469558.8524                   20469558.5354
 -60760643.23848 -47326758.24846  21130107.3204                   21130105.4414
 -17359513.02748 -13508800.40946  22199436.0474                   22199438.0204
 11  8 27  1  0  0.0000000  0  7G10G04G12G29G05G02G25
 -48745073.60247 -37965437.24645  22041942.4384                   22041942.5704
 -66215607.12947 -51576199.61543  23873570.1094                   23873572.1094
 -42492024.09848 -33092581.97146  20858658.9144                   20858658.4844
   6527044.70346   5106560.45444  24221142.3594                   24221144.6054
 -39251794.01248 -30567349.05347  20445486.0164                   20445485.3524
 -60833123.34048 -47383236.23346  21116315.0944                   21116312.5984
 -17512686.91448 -13628156.66746  22170287.9774                   22170290.1884
 11  8 27  1  0 30.0000000  0  7G10G04G12G29G05G02G25
 -48767134.09447 -37982627.25345  22037744.2504                   22037744.6094
 -66235232.83647 -51591492.43443  23869835.9694                   23869837.4774
 -42580339.09048 -33161398.85046  20841852.9774                   20841852.4264
   6345023.58646   4964725.93343  24186504.8834                   24186506.9384
 -39377697.11348 -30665455.32047  20421527.4224                   20421526.8244
 -60905440.41848 -47439587.19746  21102553.5164                   21102550.8594
 -17665326.30948 -13747096.44245  22141242.1174                   22141243.4184
 11  8 27  1  1  0.0000000  0  7G10G04G12G29G05G02G25
 -48788743.47347 -37999465.74845  22033632.1724                   22033632.6604
 -66254870.66846 -51606794.63143  23866098.7344                   23866100.7814
 -42668041.10548 -33229738.09647  20825164.0944                   20825163.5744
   6162978.06646   4822872.35044  24151862.8754                   24151864.1414
 -39502995.81248 -30763090.63547  20397683.6954                   20397683.2194
 -60977592.68048 -47495809.74146  21088823.3984                   21088820.7344
 -17817427.55148 -13865616.87645  22112297.5314                   22112299.5474
 11  8 27  1  1 30.0000000  0  7G10G04G12G29G05G02G25
 -48809905.88747 -38015955.96445  22029605.2424                   22029605.6604
 -66274522.60547 -51622107.83543  23862358.9304                   23862360.6914
 -42755131.78948 -33297600.96747  20808591.2344                   20808590.3554
   5980907.77346   4680999.45543  24117215.4304                   24117217.0864
 -39627690.95348 -30860255.64547  20373955.1954                   20373954.4414
 -61049582.52748 -47551905.72846  21075124.1414                   21075121.6374
 -17968990.37548 -13983717.78146  22083456.2274                   22083458.2504
 11  8 27  1  2  0.0000000  0  7G10G04G12G29G05G02G25
 -48830623.12547 -38032099.27845  22025662.7734                   22025663.1094
 -66294187.76246 -51637431.37143  23858616.8594                   23858618.8834
 -42841610.44948 -33364986.93746  20792135.0164                   20792133.9964
   5798814.86746   4539108.98143  24082564.6564                   24082566.1524
 -39751780.94548 -30956949.10447  20350341.5864                   20350341.1134
 -61121409.74648 -47607874.98146  21061455.8134                   21061453.3794
 -18120011.60548 -14101396.65246  22054718.1174                   22054719.5204
 11  8 27  1  2 30.0000000  0  7G10G04G12G29G05G02G25
 -48850897.52747 -38047897.52745  22021804.7034                   22021804.8554
 -66313866.84446 -51652765.79043  23854872.6254                   23854874.4344
 -42927477.53948 -33431896.36946  20775795.2734                   20775794.0704
   5616700.22746   4397201.56543  24047909.2734                   24047910.5084
 -39875265.12548 -31053170.51447  20326843.1644                   20326842.8954
 -61193075.06648 -47663718.09246  21047818.5164                   21047815.9774
 -18270489.42248 -14218652.09246  22026082.9064                   22026084.5944
 11  8 27  1  3  0.0000000  0  7G10G04G12G29G05G02G25
 -48870731.08247 -38063352.26945  22018030.7734                   22018030.7034
 -66333559.59046 -51668110.81543  23851125.3444                   23851126.5314
 -43012732.94948 -33498329.15746  20759571.1484                   20759570.5704
   5434565.25846   4255278.30043  24013250.3204                   24013251.4104
 -39998142.30148 -31148918.91547  20303460.4384                   20303459.8834
 -61264578.75848 -47719435.25446  21034211.9064                   21034209.3554
 -18420421.53148 -14335482.31646  21997551.7734                   21997553.6604
 11  8 27  1  3 30.0000000  0  7G10G04G12G29G05G02G25
 -48890127.06247 -38078466.02345  22014339.3284                   22014339.7154
 -66353267.07846 -51683467.34843  23847375.3134                   23847376.8014
 -43097377.38348 -33564285.86346  20743464.1804                   20743463.3634
   5252410.69546   4113339.76544  23978587.2274                   23978588.6024
 -40120412.85248 -31244194.64147  20280193.2974                   20280192.8484
 -61335922.21148 -47775027.54746  21020635.6094                   21020632.8674
 -18569806.66448 -14451886.32446  21969124.7034                   21969126.8834
 11  8 27  1  4  0.0000000  0  7G10G04G12G29G05G02G25
 -48909086.41047 -38093239.54645  22010731.6334                   22010732.4224
 -66372987.93746 -51698834.28443  23843622.6094                   23843623.8094
 -43181409.26648 -33629765.25546  20727473.5634                   20727472.5594
   5070239.77746   3971388.53244  23943921.2114                   23943922.4064
 -40242073.62148 -31338995.20047  20257041.6484                   20257041.4804
 -61407103.85548 -47830493.77046  21007090.0004                   21007087.4844
 -18718640.97348 -14567861.10746  21940802.4144                   21940804.5434
 11  8 27  1  4 30.0000000  0  7G10G04G12G29G05G02G25
 -48927611.09447 -38107674.39445  22007206.8134                   22007207.2934
 -66392721.95347 -51714211.42443  23839866.9454                   23839868.2384
 -43264829.04748 -33694767.68346  20711599.2034                   20711598.5354
   4888053.73046   3829425.45144  23909252.8284                   23909253.4964
 -40363124.57848 -31433320.59247  20234006.3674                   20234005.7934
 -61478123.84047 -47885834.00846  20993575.7664                   20993572.7274
 -18866922.22348 -14683404.93346  21912585.3834                   21912587.3874
 11  8 27  1  5  0.0000000  0  7G10G04G12G29G05G02G25
 -48945707.68047 -38121775.64745  22003763.0164                   22003763.0164
 -66412473.39846 -51729602.19143  23836108.4224                   23836110.3834
 -43347641.68048 -33759297.00846  20695840.5704                   20695839.8834
   4705849.58247   3687448.29744  23874579.9454                   23874581.4144
 -40483568.60948 -31527173.04247  20211086.6804                   20211086.0514
 -61548986.96147 -47941052.02146  20980090.7034                   20980087.7304
 -19014652.44548 -14798519.39646  21884473.4454                   21884475.4654
 11  8 27  1  5 30.0000000  0  7G10G04G12G29G05G02G25
 -48963376.00847 -38135543.18345  22000400.8594                   22000400.7194
 -66432239.66446 -51745004.49743  23832346.6644                   23832349.5634
 -43429843.87148 -33823350.66346  20680197.6484                   20680196.9964
   4523631.77047   3545460.43844  23839905.3134                   23839906.5204
 -40603402.12148 -31620549.76147  20188283.0944                   20188282.5554
 -61619690.64548 -47996145.79846  20966636.2974                   20966633.2704
 -19161827.03548 -14913200.88746  21856467.1094                   21856469.3874
 11  8 27  1  6  0.0000000  0  7G10G04G12G29G05G02G25
 -47405199.93747 -36921380.02145  22296912.0164                   22296912.0394
 -64876602.30546 -50532819.62643  24128375.1254                   24128377.5554
 -41936015.52348 -32659328.58346  20964464.0314                   20964463.4774
   5916825.56347   4631066.06344  24105020.9774                   24105022.0514
 -39147202.61748 -30485848.83147  20465388.6804                   20465388.0234
 -60114815.12948 -46823515.52246  21253004.3914                   21253001.9264
 -17733021.06648 -13799845.57346  22128359.6884                   22128361.9844
 11  8 27  1  6 30.0000000  0  7G10G04G12G29G05G02G25
 -47422024.87947 -36934490.38445  22293710.2274                   22293710.4344
 -64896404.57446 -50548250.00143  24124606.4224                   24124609.2424
 -42017004.00448 -32722436.49146  20949052.4614                   20949051.6254
   5734578.46147   4489055.44444  24070340.5474                   24070341.3954
 -39265819.44548 -30578277.48947  20442816.7894                   20442816.0744
 -60185207.68448 -46878366.84846  21239608.9924                   21239606.3674
 -17879084.20748 -13913661.00546  22100564.7974                   22100566.9104
 11  8 27  1  7  0.0000000  0  7G10G04G12G29G05G02G25
 -47438431.89847 -36947275.09945  22290588.2504                   22290588.0274
 -64916225.03946 -50563694.56743  24120835.5004                   24120837.3324
 -42097386.44548 -32785072.16646  20933756.2194                   20933755.1454
   5552318.57847   4347034.85244  24035657.7814                   24035658.0744
 -39383826.85948 -30670231.28547  20420360.5944                   20420359.7624
 -60255445.31648 -46933097.47046  21226243.6094                   21226240.8524
 -18024588.67648 -14027041.07846  22072876.1954                   22072878.4264
 11  8 27  1  7 30.0000000  0  7G10G04G12G29G05G02G25
 -47454419.82847 -36959733.24245  22287545.5944                   22287545.5234
 -64936060.45346 -50579150.71443  24117060.4694                   24117062.6684
 -42177159.97748 -32847233.36746  20918575.5004                   20918575.0514
   5370050.57847   4205007.90544  24000972.9144                   24000974.0044
 -39501221.03548 -30761707.23747  20398021.1644                   20398020.3794
 -60325524.90648 -46987704.93346  21212907.5944                   21212905.0984
 -18169529.27048 -14139981.78846  22045295.1334                   22045297.2074
 11  8 27  1  8  0.0000000  0  7G10G04G12G29G05G02G25
 -47469994.47347 -36971869.34045  22284582.3204                   22284582.1134
 -64955914.01646 -50594621.09943  24113282.1954                   24113284.9614
 -42256328.14548 -32908922.84646  20903510.5474                   20903509.5394
   5187772.78547   4062973.33044  23966286.7974                   23966287.6054
 -39618004.58648 -30852707.36347  20375797.9614                   20375797.5394
 -60395450.18748 -47042192.16546  21199601.7194                   21199599.1294
 -18313907.25448 -14252484.08146  22017820.6804                   22017822.9964
 11  8 27  1  8 30.0000000  0  7G10G04G12G29G05G02G25
 -47485160.93047 -36983687.37545  22281696.0394                   22281696.2074
 -64975788.46146 -50610107.73543  24109500.7664                   24109502.4804
 -42334893.53948 -32970142.64546  20888560.1414                   20888558.9884
   5005484.13747   3920930.28244  23931598.2504                   23931599.5164
 -39734179.38748 -30943233.15147  20353690.3364                   20353689.9304
 -60465223.79748 -47096561.19946  21186323.9774                   21186321.5784
 -18457723.10548 -14364548.35346  21990453.7424                   21990455.1914
 11  8 27  1  9  0.0000000  0  7G10G04G12G29G05G02G25
 -47499922.43447 -36995189.86745  22278886.9454                   22278887.1484
 -64995685.00846 -50625611.58743  24105713.9924                   24105716.1334
 -42412857.95748 -33030894.14746  20873723.7894                   20873723.2624
   4823184.92647   3778879.01544  23896907.3914                   23896908.6254
 -39849746.14848 -31033285.14147  20331699.1564                   20331698.1914
 -60534847.47348 -47150813.41046  21173075.0474                   21173072.3094
 -18600976.08648 -14476174.02146  21963193.6564                   21963195.0394
 11  8 27  1  9 30.0000000  0  7G10G04G12G29G05G02G25
 -47514279.02347 -37006376.83045  22276155.1564                   22276155.4064
 -65015601.09446 -50641130.62644  24101924.1334                   24101926.1764
 -42490219.29348 -33091175.71646  20859002.6024                   20859001.4024
   4640879.14147   3636822.65444  23862215.7734                   23862217.3324
 -39964701.78948 -31122860.92947  20309823.4924                   20309823.0044
 -60604318.99648 -47204947.06346  21159855.1414                   21159852.4774
 -18743662.00448 -14587357.82046  21936041.3204                   21936043.1134
 11  8 27  1 10  0.0000000  0  7G10G04G12G29G05G02G25
 -47528234.59847 -37017251.33045  22273499.5084                   22273499.3524
 -65035538.04746 -50656665.98043  24098130.2504                   24098132.7894
 -42566979.53948 -33150988.90646  20844395.4694                   20844394.7304
   4458566.76647   3494761.13944  23827522.8204                   23827524.2114
 -40079047.24248 -31211961.25647  20288064.3754                   20288063.7814
 -60673639.81248 -47258963.27246  21146663.3134                   21146660.8484
 -18885780.18048 -14698099.22146  21908996.9924                   21908998.9494
 11  8 27  1 10 30.0000000  0  7G10G04G12G29G05G02G25
 -47541789.70347 -37027813.78545  22270919.9614                   22270919.9964
 -65055494.06646 -50672216.15143  24094333.2664                   24094334.9344
 -42643137.49248 -33210332.78246  20829903.3674                   20829902.2774
   4276251.40147   3352697.33144  23792829.3054                   23792830.3984
 -40192779.89548 -31300584.07847  20266421.5634                   20266420.7624
 -60742808.54348 -47312860.98446  21133501.2664                   21133498.7974
 -19027326.96148 -14808395.38646  21882061.3754                   21882063.0204
 11  8 27  1 11  0.0000000  0  7G10G04G12G29G05G02G25
 -47554948.07047 -37038067.08045  22268415.8754                   22268415.9804
 -65075470.40646 -50687782.19343  24090532.0474                   24090534.3094
 -42718694.61748 -33269208.46846  20815525.1484                   20815523.8954
   4093933.25847   3210631.30144  23758135.5554                   23758136.6134
 -40305900.80548 -31388730.20247  20244895.4844                   20244894.9264
 -60811826.76648 -47366641.41446  21120367.5314                   21120365.1024
 -19168301.62948 -14918245.75146  21855234.8834                   21855236.9224
 11  8 27  1 11 30.0000000  0  7G10G04G12G29G05G02G25
 -47567717.48047 -37048017.28145  22265986.3754                   22265986.4804
 -65095472.09846 -50703367.95943  24086725.8284                   24086727.8014
 -42793656.76648 -33327620.54646  20801260.2344                   20801259.4804
   3911608.67647   3068560.22744  23723440.4384                   23723441.5124
 -40418414.59448 -31476403.26047  20223484.7344                   20223484.1604
 -60880699.80948 -47420308.71846  21107261.3054                   21107258.5274
 -19308707.65648 -15027653.02346  21828516.1644                   21828518.0394
 11  8 27  1 12  0.0000000  0  7G10G04G12G29G05G02G25
 -47580097.97747 -37057664.44245  22263630.3054                   22263630.7624
 -65115497.21546 -50718971.98643  24082914.9694                   24082917.3244
 -42868022.58248 -33385567.95046  20787109.1724                   20787108.5394
   3729281.12947   2926486.88844  23688744.3444                   23688745.6994
 -40530318.83248 -31563601.33947  20202190.0784                   20202189.3134
 -60949425.94148 -47473861.53746  21094183.3364                   21094180.5824
 -19448541.25448 -15136614.24346  21801907.0084                   21801908.6604
 11  8 27  1 12 30.0000000  0  7G10G04G12G29G05G02G25
 -47592098.82047 -37067015.77145  22261346.4224                   22261346.5824
 -65135552.47346 -50734599.50143  24079098.6724                   24079100.7464
 -42941799.05948 -33443056.12946  20773069.6954                   20773068.6174
   3546945.40647   2784407.15544  23654047.5004                   23654048.4024
 -40641619.63748 -31650329.20847  20181010.4694                   20181009.3484
 -61018012.14848 -47527305.33746  21081131.5704                   21081129.5124
 -19587807.22748 -15245133.14146  21775405.4384                   21775407.3914
 11  8 27  1 13  0.0000000  0  7G10G04G12G29G05G02G25
 -47603719.16447 -37076070.61145  22259135.1254                   22259135.2774
 -65155634.39846 -50750247.80043  24075277.3594                   24075278.7934
 -43014983.77348 -33500083.17946  20759143.0634                   20759142.3364
   3364606.83247   2642325.19044  23619349.0004                   23619350.2034
 -40752313.63748 -31736584.24747  20159945.9844                   20159945.5474
 -61086455.37948 -47580637.71246  21068107.3594                   21068104.9614
 -19726500.57048 -15353205.85946  21749012.8524                   21749014.8014
 11  8 27  1 13 30.0000000  0  8G26G10G04G12G29G05G02G25
  13895606.99256  10849339.08753  24699817.4614                   24699821.3874
 -47614964.90647 -37084833.55045  22256994.9144                   22256995.6914
 -65175746.57846 -50765919.72443  24071450.0004                   24071452.1954
 -43087580.91048 -33556652.38246  20745328.2504                   20745327.3794
   3182262.91447   2500239.08944  23584650.0314                   23584651.6024
 -40862403.82048 -31822368.78647  20138996.3524                   20138996.0044
 -61154759.69548 -47633861.86646  21055109.3754                   21055107.0204
 -19864623.18448 -15460833.85946  21722728.8984                   21722730.9654
 11  8 27  1 14  0.0000000  0  8G26G10G04G12G29G05G02G25
  15280537.03146  11928505.62743  24963360.3134                   24963365.4104
 -46050421.57047 -35865708.89445  22554717.5864                   22554718.6884
 -63620471.41046 -49554017.07343  24367408.9304                   24367411.5824
 -41584172.12548 -32385165.02446  21031417.6484                   21031416.3914
   4575338.02047   3585752.23044  23849743.5864                   23849744.7584
 -39396469.59448 -30680082.34547  20417954.4064                   20417953.8054
 -59647506.19148 -46459378.62546  21341930.2114                   21341927.9654
 -18426751.93748 -14340414.67946  21996346.6094                   21996348.9574
 11  8 27  1 14 30.0000000  0  8G26G10G04G12G29G05G02G25
  15089917.62146  11779971.26443  24927086.3984                   24927090.6134
 -46060939.47746 -35873904.68245  22552716.2504                   22552716.5744
 -63640657.41446 -49569746.41943  24363567.6024                   24363570.0664
 -41655609.96948 -32440830.89546  21017823.1954                   21017822.5704
   4392974.46947   3443650.81144  23815040.9144                   23815041.7114
 -39505365.10948 -30764935.95047  20397232.0944                   20397231.4224
 -59715546.77348 -46512397.26446  21328982.8834                   21328980.1954
 -18563741.62548 -14447159.88246  21970278.5234                   21970280.2424
 11  8 27  1 15  0.0000000  0  8G26G10G04G12G29G05G02G25
  14899181.96946  11631346.38943  24890789.3284                   24890795.2774
 -46071097.38747 -35881819.95445  22550783.5314                   22550783.6724
 -63660880.62146 -49585504.83543  24359719.4454                   24359721.5354
 -41726469.29748 -32496045.97046  21004339.3524                   21004338.6764
   4210603.52747   3301543.63744  23780336.6174                   23780337.3484
 -39613663.25448 -30849324.09047  20376623.7584                   20376623.3554
 -59783456.07848 -46565313.61046  21316060.2814                   21316057.3874
 -18700162.53548 -14553461.89446  21944318.4694                   21944320.5704
 11  8 27  1 15 30.0000000  0  8G26G10G04G12G29G05G02G25
  14708334.04746  11482633.90242  24854473.0634                   24854477.8404
 -46080896.72747 -35889455.82245  22548919.0004                   22548918.8284
 -63681139.85246 -49601291.36643  24355864.3754                   24355866.9264
 -41796750.11747 -32550810.25546  20990965.3914                   20990964.1414
   4028227.35247   3159432.39744  23745631.7814                   23745632.5274
 -39721362.93448 -30933245.88747  20356129.0554                   20356128.5904
 -59851233.40248 -46618127.11446  21303162.7194                   21303159.8714
 -18836012.15647 -14659318.73546  21918467.2734                   21918469.1764
 11  8 27  1 16  0.0000000  0  8G26G10G04G12G29G05G02G25
  14517376.47346  11333836.04343  24818134.3674                   24818138.9454
 -46090340.69147 -35896814.79045  22547121.3594                   22547121.9304
 -63701435.85946 -49617106.54143  24352002.2814                   24352004.4574
 -41866453.82047 -32605124.83346  20977701.0704                   20977700.1604
   3845847.18047   3017318.01744  23710925.9224                   23710926.7304
 -39828464.32848 -31016701.48347  20335748.4224                   20335747.5004
 -59918879.78947 -46670838.58946  21290289.7814                   21290287.0664
 -18971289.45748 -14764729.61146  21892725.0554                   21892726.7304
 11  8 27  1 16 30.0000000  0  8G26G10G04G12G29G05G02G25
  14326311.16046  11184954.26242  24781776.1254                   24781780.5824
 -46099432.71146 -35903899.50945  22545391.2114                   22545391.4184
 -63721769.66046 -49632951.08243  24348132.9614                   24348135.7304
 -41935582.49648 -32658991.33746  20964546.3284                   20964545.6994
   3663463.39147   2875200.87944  23676219.4064                   23676220.5084
 -39934968.53148 -31099691.73447  20315481.2034                   20315480.4064
 -59986396.47747 -46723448.99746  21277441.7034                   21277439.3364
 -19105994.05948 -14869694.22846  21867091.2664                   21867093.2384
 11  8 27  1 17  0.0000000  0  8G26G10G04G12G29G05G02G25
  14135142.60546  11035991.99843  24745397.5474                   24745401.3014
 -46108174.63747 -35910711.39045  22543728.1254                   22543728.2424
 -63742140.09446 -49648824.23643  24344256.5004                   24344258.6914
 -42004135.96948 -32712409.64646  20951501.1254                   20951500.1604
   3481078.43847   2733082.79944  23641512.8204                   23641513.6054
 -40040874.43448 -31182215.78847  20295328.1334                   20295327.3244
 -60053782.71948 -46775957.74746  21264618.5004                   21264616.0314
 -19240123.48848 -14974210.65946  21841567.6564                   21841569.2034
 11  8 27  1 17 30.0000000  0  8G26G10G04G12G29G05G02G25
  13943878.18846  10886955.00042  24709000.3054                   24709004.5434
 -46116564.65246 -35917249.09444  22542130.8754                   22542131.3634
 -63762542.96946 -49664722.65743  24340373.8364                   24340376.7074
 -42072110.77748 -32765377.02546  20938565.9064                   20938565.1954
   3298698.14547   2590968.34744  23606806.7274                   23606807.6804
 -40146177.60248 -31264270.16747  20275289.4144                   20275288.3284
 -60121034.57448 -46828361.80646  21251820.6174                   21251818.1294
 -19373671.94148 -15078274.38946  21816153.9924                   21816155.8134
 11  8 27  1 18  0.0000000  0  8G26G10G04G12G29G05G02G25
  13752516.19946  10737842.00143  24672585.6564                   24672590.7584
 -46124610.10246 -35923518.29844  22540600.8674                   22540601.1094
 -63782983.03146 -49680650.05043  24336484.8444                   24336486.9024
 -42139512.21948 -32817897.63846  20925740.0944                   20925739.3134
   3116319.27047   2448854.99944  23572101.2274                   23572102.2424
 -40250883.04348 -31345858.78447  20255364.7664                   20255364.0204
 -60188157.21548 -46880665.16246  21239047.7114                   21239045.2974
 -19506642.84848 -15181888.07746  21790850.3284                   21790851.9064
 11  8 27  1 18 30.0000000  0  8G26G10G04G12G29G05G02G25
  13561059.85546  10588655.45843  24636152.3134                   24636157.0124
 -46132313.61746 -35929521.05144  22539134.0634                   22539134.5274
 -63803460.38346 -49696606.51543  24332588.4924                   24332589.9534
 -42206342.54348 -32869973.20946  20913022.4144                   20913021.7774
   2933943.08247   2306743.75344  23537396.1954                   23537396.9574
 -40354990.59448 -31426981.52447  20235553.7974                   20235553.1454
 -60255150.87948 -46932868.02346  21226299.5704                   21226296.7774
 -19639034.90248 -15285050.70646  21765657.0864                   21765659.0164
 11  8 27  1 19  0.0000000  0  8G26G10G04G12G29G05G02G25
  13369515.15646  10439400.05843  24599702.8204                   24599707.2034
 -46139675.21146 -35935257.38544  22537733.4614                   22537734.1174
 -63823972.20346 -49712589.76343  24328684.9454                   24328687.9184
 -42272599.38748 -32921601.92546  20900414.5944                   20900413.4774
   2751574.60246   2164638.53344  23502692.3984                   23502693.3284
 -40458497.28948 -31507636.05547  20215856.8834                   20215856.3054
 -60322012.99247 -46984968.37546  21213576.1174                   21213573.6764
 -19770843.83647 -15387758.94846  21740574.8984                   21740576.4804
 11  8 27  1 19 30.0000000  0  8G26G10G04G12G29G05G02G25
  13177882.32446  10290076.03143  24563236.1954                   24563240.5864
 -46146700.30546 -35940731.54744  22536396.4774                   22536397.2034
 -63844521.46947 -49728602.32843  24324774.5394                   24324777.1684
 -42338286.93748 -32972787.03146  20887914.4924                   20887913.5944
   2569211.91447   2022537.79544  23467990.0634                   23467990.2974
 -40561407.11348 -31587825.50547  20196273.6174                   20196273.3554
 -60388747.32448 -47036969.14746  21200877.1094                   21200874.5784
 -19902071.44948 -15490014.22446  21715603.0704                   21715604.5554
 11  8 27  1 20  0.0000000  0  8G26G10G04G12G29G05G02G25
  12986162.58646  10140684.26743  24526752.8834                   24526756.4224
 -46153393.11347 -35945946.73344  22535122.8444                   22535123.7074
 -63865110.01647 -49744645.40744  24320856.9844                   24320859.3484
 -42403408.08247 -33023530.77446  20875522.2974                   20875521.5864
   2386854.74647   1880441.37744  23433288.3134                   23433289.1454
 -40663721.48448 -31667550.97047  20176804.0394                   20176803.3284
 -60455355.50047 -47088871.61846  21188201.4224                   21188199.2274
 -20032718.21547 -15591816.88146  21690741.6254                   21690743.1844
 11  8 27  1 20 30.0000000  0  8G26G10G04G12G29G05G02G25
  12794362.31346   9991229.69543  24490254.6644                   24490258.3134
 -46159753.54747 -35950902.95444  22533912.7344                   22533913.9264
 -63885734.77047 -49760716.69143  24316932.1644                   24316934.7584
 -42467960.96148 -33073831.72746  20863238.0314                   20863237.3404
   2204507.61347   1738352.78544  23398588.5634                   23398589.3054
 -40765437.71147 -31746810.34147  20157447.8674                   20157447.4384
 -60521834.98848 -47140673.83646  21175550.8914                   21175548.9494
 -20162780.05947 -15693163.75246  21665991.7504                   21665993.1844
 11  8 27  1 21  0.0000000  0  8G26G10G04G12G29G05G02G25
  12602484.57446   9841714.75743  24453741.4924                   24453744.7704
 -46165784.22747 -35955602.23544  22532765.2504                   22532765.9574
 -63906395.53547 -49776816.01344  24313000.8364                   24313003.4804
 -42531946.59848 -33123690.66646  20851062.1644                   20851061.4614
   2022172.34447   1596273.42745  23363891.7114                   23363892.1134
 -40866555.75848 -31825603.61047  20138205.7894                   20138204.9414
 -60588186.07048 -47192375.98046  21162924.9304                   21162922.7114
 -20292255.42648 -15794053.62446  21641353.6414                   21641354.9304
 11  8 27  1 21 30.0000000  0  8G26G10G04G12G29G05G02G25
  12410530.06346   9692140.11943  24417212.7974                   24417217.3984
 -46171490.54347 -35960048.76544  22531679.5234                   22531680.1174
 -63927095.22347 -49792945.66543  24309061.6254                   24309063.9414
 -42595369.06248 -33173110.77246  20838993.3674                   20838992.5664
   1839847.64547   1454202.29444  23329196.5164                   23329197.0084
 -40967078.71147 -31903933.14547  20119076.8054                   20119076.1564
 -60654411.88347 -47243980.50446  21150322.5394                   21150320.4694
 -20421146.07047 -15894487.86146  21616826.3594                   21616828.0394
 11  8 27  1 22  0.0000000  0  8G26G10G04G12G29G05G02G25
  13793931.90246  10770115.80043  24680465.4064                   24680469.8054
 -44601451.30147 -34736641.61644  22830448.0944                   22830448.5704
 -62372409.21147 -48581502.00644  24604908.6174                   24604911.3874
 -41082803.74648 -31994488.45246  21126824.9694                   21126824.2114
   3232964.91047   2539748.28344  23594297.8364                   23594298.2734
 -39491579.66448 -30754193.61447  20399855.3284                   20399854.6334
 -59145086.63748 -46067882.92146  21437537.8054                   21437535.3404
 -18974022.65648 -14766859.21746  21892204.8524                   21892206.3674
 11  8 27  1 22 30.0000000  0  8G26G10G04G12G29G05G02G25
  13601837.94546  10620432.46643  24643910.8914                   24643914.3484
 -44606511.87147 -34740584.94744  22829485.0944                   22829485.3874
 -62393181.54747 -48597688.32943  24600955.8674                   24600958.2814
 -41145099.07048 -32043030.27146  21114970.5084                   21114969.5664
   3050670.69546   2397700.92844  23559608.4694                   23559608.8554
 -39590908.47748 -30831592.66547  20380953.7344                   20380953.0824
 -59211057.88747 -46119289.08546  21424983.8984                   21424981.4344
 -19101735.39148 -14866375.59646  21867901.9384                   21867903.8914
 11  8 27  1 23  0.0000000  0  8G26G10G04G12G29G05G02G25
  13409680.17646  10470699.25842  24607344.2814                   24607347.9264
 -44611252.56646 -34744279.04744  22828583.3834                   22828583.4804
 -62413989.52046 -48613902.36043  24596995.7974                   24596998.5474
 -41206831.50048 -32091133.47246  21103223.3364                   21103222.7704
   2868394.90246   2255667.90044  23524922.1564                   23524922.3524
 -39689639.74248 -30908526.09747  20362165.6724                   20362165.0274
 -59276901.34047 -46170595.66446  21412454.1024                   21412451.8094
 -19228856.69147 -14965431.13246  21843711.5084                   21843713.0594
 11  8 27  1 23 30.0000000  0  8G26G10G04G12G29G05G02G25
  13217459.01646  10320916.77342  24570764.8364                   24570769.0904
 -44615678.45346 -34747727.81144  22827740.7814                   22827741.5704
 -62434835.71546 -48630146.12843  24593029.0084                   24593031.6954
 -41268005.07848 -32138801.20846  21091582.3134                   21091581.7194
   2686136.92647   2113648.75744  23490240.0394                   23490240.1804
 -39787776.28148 -30984996.10847  20343490.8834                   20343490.0204
 -59342619.90647 -46221804.93846  21399948.2814                   21399945.9574
 -19355387.81647 -15064026.79346  21819633.1024                   21819635.1524
 11  8 27  1 24  0.0000000  0  8G26G10G04G12G29G05G02G25
  13025176.72746  10171086.68543  24534176.0864                   24534178.9454
 -44619793.49246 -34750934.39144  22826958.2584                   22826958.0004
 -62455720.91446 -48646420.37843  24589054.6334                   24589057.7034
 -41328622.24648 -32186035.37446  21080047.2974                   21080046.3014
   2503897.02047   1971643.68244  23455560.4454                   23455560.9774
 -39885319.46947 -31061003.76647  20324929.0234                   20324928.3134
 -59408215.02347 -46272918.01246  21387465.9694                   21387463.9924
 -19481329.07448 -15162162.81946  21795667.4454                   21795669.2074
 11  8 27  1 24 30.0000000  0  8G26G10G04G12G29G05G02G25
  12832840.16046  10021214.31243  24497575.3364                   24497577.7504
 -44623596.74246 -34753897.98344  22826234.1564                   22826234.2774
 -62476641.55546 -48662722.16443  24585073.5234                   24585075.7034
 -41388680.57448 -32232834.09346  21068618.4614                   21068618.1294
   2321680.37147   1829656.75244  23420886.2504                   23420886.2464
 -39982265.86347 -31136546.39147  20306480.9534                   20306479.9884
 -59473683.23447 -46323932.19946  21375007.9224                   21375005.4884
 -19606675.60248 -15259835.42146  21771814.7894                   21771816.5904
 11  8 27  1 25  0.0000000  0  8G26G10G04G12G29G05G02G25
  12640449.49647   9871299.65143  24460964.2504                   24460967.9184
 -44627094.19946 -34756623.32444  22825568.7194                   22825569.2854
 -62497600.74246 -48679054.06242  24581085.2894                   24581088.6054
 -41448184.87148 -32279201.09046  21057295.1254                   21057294.5434
   2139485.46947   1687686.73444  23386215.2734                   23386215.6884
 -40078619.73848 -31211627.31247  20288145.2504                   20288144.2504
 -59539027.99647 -46374850.19846  21362572.8284                   21362570.6684
 -19731429.62947 -15357046.34446  21748075.0084                   21748076.6804
 11  8 27  1 25 30.0000000  0  8G26G10G04G12G29G05G02G25
  12448008.01247   9721345.46643  24424343.8834                   24424347.1564
 -44630288.37146 -34759112.34444  22824961.1334                   22824961.0474
 -62518598.30946 -48695415.82442  24577089.4844                   24577092.3914
 -41507136.58648 -32325137.50846  21046077.0634                   21046076.2234
   1957314.21547   1545735.17044  23351548.9534                   23351549.7624
 -40174381.28548 -31286246.67247  20269922.3204                   20269921.3634
 -59604249.80947 -46425672.39146  21350161.7424                   21350159.0084
 -19855590.23847 -15453794.86046  21724447.7424                   21724449.8204
 11  8 27  1 26  0.0000000  0  8G26G10G04G12G29G05G02G25
  12255516.96147   9571352.67644  24387713.3984                   24387716.9734
 -44633184.07446 -34761368.76144  22824410.0704                   22824409.7814
 -62539636.52346 -48711809.29742  24573085.9224                   24573088.3244
 -41565538.83648 -32370645.77446  21034963.5004                   21034962.5354
   1775165.56347   1403801.19245  23316886.9774                   23316887.8634
 -40269552.60548 -31360406.13147  20251811.7034                   20251811.1954
 -59669350.73847 -46476400.38246  21337773.4304                   21337771.1914
 -19979158.40248 -15550081.72046  21700933.7814                   21700935.1414
 11  8 27  1 26 30.0000000  0  8G26G10G04G12G29G05G02G25
  12062981.60247   9421325.33943  24351075.0864                   24351079.4534
 -44635782.00846 -34763393.17844  22823915.5784                   22823915.8444
 -62560713.25846 -48728232.78942  24569075.4924                   24569077.8324
 -41623391.54348 -32415725.81946  21023954.7974                   21023953.7934
   1593043.39847   1261887.88044  23282230.6254                   23282231.0554
 -40364132.79748 -31434104.96447  20233813.6564                   20233813.0904
 -59734329.26247 -46527032.99946  21325408.7114                   21325406.1804
 -20102131.31648 -15645904.76246  21677532.4064                   21677534.4414
 11  8 27  1 27  0.0000000  0  8G26G10G04G12G29G05G02G25
  11870404.10546   9271265.12344  24314428.8984                   24314432.4804
 -44638085.73847 -34765188.35944  22823477.2734                   22823477.2464
 -62581829.24646 -48744686.79342  24565056.2974                   24565059.6294
 -41680697.07848 -32460379.49646  21013049.6414                   21013049.2074
   1410948.36747   1119995.70745  23247578.8444                   23247579.1564
 -40458123.07448 -31507344.12547  20215928.3134                   20215927.3554
 -59799186.53147 -46577571.12746  21313066.9774                   21313064.0474
 -20224509.08248 -15741264.05446  21654244.6174                   21654246.6684
 11  8 27  1 27 30.0000000  0  8G26G10G04G12G29G05G02G25
  11677786.62146   9121173.82644  24277774.9304                   24277779.0784
 -44640099.21146 -34766757.33444  22823094.0634                   22823094.4844
 -62602985.92246 -48761172.51642  24561030.6644                   24561033.4344
 -41737458.03548 -32504608.83346  21002248.4614                   21002247.9024
   1228881.08646    978125.16244  23212932.1884                   23212933.4924
 -40551525.52048 -31580125.22947  20198154.1884                   20198153.1644
 -59863923.95747 -46628015.86746  21300747.1724                   21300745.2504
 -20346292.13748 -15836159.93946  21631070.1094                   21631072.0204
 11  8 27  1 28  0.0000000  0  8G26G10G04G12G29G05G02G25
  11485136.07846   8971056.69443  24241114.3834                   24241118.1564
 -44641821.32846 -34768099.29644  22822766.8594                   22822766.8524
 -62624179.33646 -48777686.93442  24556997.8524                   24557000.1994
 -41793672.33648 -32548412.21146  20991551.1334                   20991550.7234
   1046846.79346    836280.31044  23178292.2974                   23178293.5704
 -40644336.87148 -31652445.75247  20180493.0314                   20180491.9144
 -59928538.15247 -46678364.59046  21288451.7344                   21288449.7074
 -20467475.86348 -15930588.81546  21608009.7894                   21608011.6454
 11  8 27  1 28 30.0000000  0  8G26G10G04G12G29G05G02G25
  11292455.21546   8820916.04143  24204448.3914                   24204451.6024
 -44643255.29346 -34769216.70644  22822494.0234                   22822494.4614
 -62645410.15246 -48794230.41442  24552957.7584                   24552960.0274
 -41849342.05948 -32591791.23046  20980957.6254                   20980957.0904
    864846.31346    694461.82444  23143659.5784                   23143660.0044
 -40736558.19548 -31724306.50747  20162943.6174                   20162942.5204
 -59993030.23848 -46728618.16446  21276179.3914                   21276177.4454
 -20588060.13348 -16024550.57846  21585063.1334                   21585065.0744
 11  8 27  1 29  0.0000000  0  8G26G10G04G12G29G05G02G25
  11099745.93846   8670753.17043  24167775.8674                   24167779.9964
 -44644405.08246 -34770112.69044  22822275.1484                   22822275.4024
 -62666679.64546 -48810804.06143  24548910.4304                   24548912.9224
 -41904470.38348 -32634748.39146  20970467.4304                   20970466.2774
    682880.27346    552670.17245  23109031.9454                   23109032.7384
 -40828191.36748 -31795708.96447  20145505.9924                   20145505.4494
 -60057401.39848 -46778777.52046  21263929.9614                   21263927.6684
 -20708045.39848 -16118045.58946  21562230.9614                   21562233.1764
 11  8 27  1 29 30.0000000  0  7G26G10G12G29G05G02G25
  10907013.01246   8520571.92843  24131100.8674                   24131103.9414
 -44645272.16846 -34770788.39844  22822109.9224                   22822110.8834
 -41959057.32848 -32677283.70146  20960079.6564                   20960079.0904
    500951.61746    410907.64345  23074412.3204                   23074412.9694
 -40919235.98447 -31866652.81147  20128180.7734                   20128180.1724
 -60121650.74648 -46828841.94246  21251703.8834                   21251701.4064
 -20827429.67247 -16211072.30146  21539512.7034                   21539514.8984
 11  8 27  1 30  0.0000000  0  7G26G10G12G29G05G02G25
  12289684.78947   9597978.72343  24394214.7814                   24394217.5044
 -43070440.38346 -33543646.75844  23121790.6564                   23121790.4534
 -40437684.47748 -31491798.37946  21249587.2814                   21249586.2854
   1894486.78147   1496779.27045  23339592.7974                   23339593.7974
 -39434271.15248 -30709537.34647  20410760.4694                   20410759.5824
 -58610357.68048 -45651210.98446  21539293.6644                   21539290.7304
 -19370789.64148 -15076028.12346  21816702.2034                   21816703.9104
 11  8 27  1 30 30.0000000  0  7G26G10G12G29G05G02G25
  12096918.69947   9447771.51543  24357532.6484                   24357534.7544
 -43070746.07846 -33543885.00244  23121732.0474                   23121732.8284
 -40491190.17248 -31533491.14746  21239405.1174                   21239404.5124
   1712641.57447   1355081.79445  23304988.9924                   23304989.5434
 -39524136.49648 -30779562.27347  20393659.3674                   20393658.8874
 -58674360.01648 -45701082.93646  21527114.0634                   21527111.5474
 -19488965.77748 -15168113.42446  21794213.9384                   21794215.9844
 11  8 27  1 31  0.0000000  0  7G26G10G12G29G05G02G25
  11904148.18847   9297560.89443  24320849.4224                   24320851.0394
 -43070767.50846 -33543901.75344  23121728.1484                   23121729.0204
 -40544150.24648 -31574758.76046  21229327.3834                   21229327.0314
   1530848.26647   1213424.72645  23270395.0784                   23270395.0704
 -39613406.22347 -30849123.08747  20376672.0704                   20376671.3874
 -58738231.95748 -45750853.27846  21514959.6884                   21514957.0634
 -19606529.46147 -15259721.47746  21771842.3364                   21771844.0314
 11  8 27  1 31 30.0000000  0  7G26G10G12G29G05G02G25
  11711373.79747   9147347.23543  24284165.3984                   24284167.5704
 -43070510.62946 -33543701.63444  23121776.7894                   23121778.2934
 -40596569.41448 -31615604.88346  21219352.2194                   21219351.6134
   1349105.20347   1071806.82045  23235810.3284                   23235810.4414
 -39702084.00448 -30918222.63747  20359797.3524                   20359796.4884
 -58801976.48448 -45800524.33446  21502829.5944                   21502826.9964
 -19723483.16848 -15350854.23946  21749586.6954                   21749588.5234
 11  8 27  1 32  0.0000000  0  7G26G10G12G29G05G02G25
  11518599.70747   8997133.75543  24247481.6334                   24247484.2034
 -43069977.32447 -33543286.12244  23121878.3284                   23121878.6914
 -40648448.30948 -31656030.01746  21209480.6414                   21209479.3324
   1167415.27047    930230.30945  23201236.0864                   23201236.5984
 -39790169.55948 -30986860.71447  20343034.9694                   20343034.4454
 -58865593.08648 -45850095.71646  21490724.1024                   21490720.9414
 -19839825.20347 -15441510.36346  21727447.4144                   21727449.4414
 11  8 27  1 32 30.0000000  0  7G26G10G12G29G05G02G25
  11325824.65647   8846919.67343  24210797.5314                   24210799.5314
 -43069174.60247 -33542660.66144  23122031.5704                   23122031.9534
 -40699793.71148 -31696039.44046  21199709.3444                   21199708.9844
    985775.44947    788692.84245  23166671.1644                   23166671.3524
 -39877668.50848 -31055041.70647  20326384.5394                   20326383.6804
 -58929086.57448 -45899571.16846  21478641.4614                   21478638.6954
 -19955559.69548 -15531693.08746  21705424.0704                   21705426.2424
 11  8 27  1 33  0.0000000  0  7G26G10G12G29G05G02G25
  11133051.89546   8696707.29243  24174113.8204                   24174115.7584
 -43068105.56647 -33541827.68444  23122234.6174                   23122235.6644
 -40750607.11348 -31735634.31646  21190040.2034                   21190039.7814
    804187.19947    647195.57945  23132115.7664                   23132116.1334
 -39964581.55947 -31122766.13347  20309845.5864                   20309845.0824
 -58992457.18748 -45948950.85546  21466582.3914                   21466579.6484
 -20070686.32447 -15621402.12346  21683516.2814                   21683517.6054
 11  8 27  1 33 30.0000000  0  7G26G10G12G29G05G02G25
  10940284.59446   8546499.23243  24137431.0084                   24137433.7894
 -43066773.25447 -33540789.57944  23122488.5704                   23122489.6094
 -40800890.46148 -31774816.17446  21180471.4384                   21180470.7234
    622652.05547    505739.67945  23097570.6564                   23097570.7344
 -40050910.07848 -31190035.09847  20293417.9924                   20293416.9104
 -59055705.48448 -45998235.25046  21454546.3914                   21454543.7114
 -20185204.82448 -15710637.31446  21661724.0164                   21661726.2034
 11  8 27  1 34  0.0000000  0  7G26G10G12G29G05G02G25
  10747523.09046   8396295.64843  24100749.6564                   24100751.8204
 -43065183.07447 -33539550.50544  23122790.9384                   23122791.9734
 -40850649.39848 -31813589.38746  21171002.5234                   21171001.7304
    441168.69547    364324.15744  23063035.7504                   23063035.4494
 -40136657.93048 -31256851.59147  20277100.5784                   20277099.7894
 -59118834.88348 -46047426.98446  21442533.2274                   21442530.2074
 -20299117.75048 -15799400.63246  21640047.1414                   21640048.9384
 11  8 27  1 34 30.0000000  0  7G26G10G12G29G05G02G25
  10554770.04746   8246098.65943  24064069.4064                   24064071.6644
 -43063338.37547 -33538113.12744  23123142.0554                   23123143.0084
 -40899886.28948 -31851955.81246  21161633.2664                   21161632.7344
    259738.36347    222949.89445  23028510.3754                   23028510.4574
 -40221826.85548 -31323216.97647  20260893.2814                   20260892.6604
 -59181846.18748 -46096526.70246  21430542.8674                   21430539.9064
 -20412425.28548 -15887692.20046  21618485.2424                   21618487.2664
 11  8 27  1 35  0.0000000  0  7G26G10G12G29G05G02G25
  10362027.94947   8095910.20043  24027392.3204                   24027395.2114
 -43061242.95747 -33536480.34544  23123541.0864                   23123541.7154
 -40948603.56248 -31889917.35646  21152362.7344                   21152361.8444
     78361.81647     81617.59345  22993995.3444                   22993995.1564
 -40306418.35948 -31389132.41947  20244796.3524                   20244795.4884
 -59244740.44148 -46145535.21346  21418574.1954                   21418571.7584
 -20525127.85948 -15975512.38646  21597038.8524                   21597041.2194
 11  8 27  1 35 30.0000000  0  7G26G10G12G29G05G02G25
  10169299.15247   7945732.09943  23990716.8054                   23990719.2304
 -43058900.43447 -33534655.08044  23123987.0314                   23123987.6254
 -40996803.96148 -31927476.11446  21143190.3204                   21143189.5044
   -102960.43447    -59672.41845  22959490.8444                   22959491.5664
 -40390434.75848 -31454599.71847  20228808.3594                   20228807.6954
 -59307518.60548 -46194453.26546  21406628.1094                   21406625.2624
 -20637226.22348 -16062861.74446  21575707.1644                   21575708.9964
 11  8 27  1 36  0.0000000  0  7G26G10G12G29G05G02G25
   9976588.13346   7795567.74743  23954045.4224                   23954046.4304
 -43056312.28147 -33532638.37844  23124479.1884                   23124480.0984
 -41044488.77748 -31964633.13346  21134116.2894                   21134115.7544
   -284225.47347   -200917.84645  22924997.0784                   22924997.4614
 -40473875.89848 -31519618.76547  20212930.0164                   20212929.3364
 -59370180.19548 -46243280.46846  21394704.0554                   21394701.4344
 -20748718.94548 -16149739.17146  21554490.8674                   21554492.7234
 11  8 27  1 36 30.0000000  0  7G26G10G12G29G05G02G25
   9783896.77347   7645418.80243  23917377.5474                   23917378.5474
 -43053483.23447 -33530433.94344  23125017.9844                   23125018.6524
 -41091661.77048 -32001391.32046  21125139.9224                   21125138.9694
   -465433.42647   -342118.80845  22890514.6414                   22890515.3634
 -40556744.56248 -31584191.73447  20197160.7424                   20197160.2894
 -59432727.12148 -46292018.34446  21382801.7194                   21382798.8594
 -20859607.50048 -16236145.82146  21533389.2194                   21533391.0594
 11  8 27  1 37  0.0000000  0  7G26G10G12G29G05G02G25
   9591226.56646   7495286.31443  23880713.2194                   23880715.9384
 -43050417.43747 -33528045.03344  23125601.2194                   23125601.9024
 -41138326.14548 -32037753.19446  21116259.8054                   21116258.9064
   -646583.84047   -483274.90945  22856043.1724                   22856043.4804
 -40639043.58648 -31648320.82747  20181499.3594                   20181498.6764
 -59495161.26248 -46340668.32146  21370920.8204                   21370918.3204
 -20969893.10248 -16322082.64846  21512402.7974                   21512404.7704
 11  8 27  1 37 30.0000000  0  7G26G10G12G29G05G02G25
   9398584.19946   7345175.57143  23844054.6724                   23844055.8284
 -43047114.52747 -33525471.38344  23126229.9384                   23126230.7734
 -41184481.10548 -32073718.12246  21107476.8754                   21107476.1684
   -827672.03547   -624382.55945  22821582.5474                   22821583.2154
 -40720771.05548 -31712004.56447  20165947.2734                   20165946.5164
 -59557479.44148 -46389227.93046  21359061.9454                   21359059.6294
 -21079572.46948 -16407547.08546  21491531.7114                   21491533.8244
 11  8 27  1 38  0.0000000  0  7G26G10G12G29G05G02G25
  10781397.62146   8422692.67843  24107194.3444                   24107196.5084
 -41468158.99647 -32295116.46544  23426695.0474                   23426695.2154
 -39654708.85948 -30881687.81946  21398582.7664                   21398582.0744
    566728.01247    462162.99945  23086928.2734                   23086928.6994
 -39226506.77748 -30547642.77447  20450296.5784                   20450295.5904
 -58044261.77048 -45210097.29346  21647017.5084                   21647015.0044
 -19613223.55548 -15264937.53446  21770568.5004                   21770570.3834
 11  8 27  1 38 30.0000000  0  7G26G10G12G29G05G02G25
  10588817.10946   8272630.10044  24070547.9774                   24070550.7344
 -41464393.73847 -32292182.53544  23427411.2734                   23427412.5204
 -39699855.05948 -30916866.69846  21389991.7274                   21389990.9884
    385765.56647    321153.34545  23052492.1094                   23052492.2624
 -39307098.08648 -30610441.17647  20434960.4144                   20434959.6374
 -58106352.79748 -45258479.91446  21635202.0554                   21635199.5004
 -19721693.84848 -15349459.82946  21749927.1414                   21749929.0084
 11  8 27  1 39  0.0000000  0  7G26G10G12G29G05G02G25
  10396274.46546   8122597.04644  24033907.9844                   24033910.5004
 -41460399.68447 -32289070.33544  23428171.7734                   23428172.1884
 -39744497.85948 -30951653.30946  21381496.9454                   21381495.5084
    204870.38747    180196.10945  23018068.7504                   23018068.8484
 -39387121.11348 -30672796.77347  20419732.9224                   20419731.6954
 -58168328.52048 -45306772.67546  21623408.8444                   21623406.0004
 -19829557.30148 -15433509.26846  21729401.5234                   21729403.2234
 11  8 27  1 39 30.0000000  0  7G26G10G12G29G05G02G25
  10203771.22346   7972594.72544  23997276.0704                   23997278.5944
 -41456181.27347 -32285783.26544  23428974.0234                   23428975.4694
 -39788641.15248 -30986050.70246  21373096.3754                   21373095.6954
     24042.73447     39291.50445  22983658.7344                   22983658.8834
 -39466578.87948 -30734711.89347  20404612.3284                   20404611.0474
 -58230191.19948 -45354977.36246  21611636.3984                   21611633.7774
 -19936815.71948 -15517087.26046  21708991.0864                   21708992.2734
 11  8 27  1 40  0.0000000  0  7G26G10G12G29G05G02G25
  10011309.47346   7822624.69844  23960651.5084                   23960654.1334
 -41451742.71947 -32282324.70944  23429818.7584                   23429819.7504
 -39832288.77748 -31020061.85446  21364790.4694                   21364790.1644
   -156717.18447   -101560.31145  22949261.1174                   22949261.3134
 -39545474.17248 -30796188.72747  20389598.9064                   20389598.1644
 -58291942.50848 -45403095.27546  21599885.6414                   21599883.1954
 -20043470.56248 -15600194.93146  21688695.0554                   21688697.1134
 11  8 27  1 40 30.0000000  0  7G26G10G12G29G05G02G25
   9818891.69546   7672688.90444  23924035.4844                   23924037.8204
 -41447087.52047 -32278697.31644  23430704.8594                   23430705.7154
 -39875443.49648 -31053688.93246  21356578.3754                   21356577.7544
   -337408.77347   -242358.88445  22914876.6724                   22914876.9614
 -39623809.23848 -30857229.04047  20374692.2734                   20374691.2704
 -58353583.48448 -45451127.20346  21588156.0474                   21588153.5004
 -20149522.69948 -15682832.94746  21668513.9694                   21668515.8404
 11  8 27  1 41  0.0000000  0  7G26G10G12G29G05G02G25
   9626522.03546   7522790.61643  23887429.0394                   23887430.8754
 -41442217.86347 -32274902.80243  23431631.2344                   23431632.4774
 -39918107.35948 -31086933.52246  21348459.6724                   21348458.9734
   -518029.43447   -383102.19645  22880505.4304                   22880505.7584
 -39701584.67648 -30917833.27047  20359892.0554                   20359891.0944
 -58415113.63348 -45499072.78646  21576446.8984                   21576444.4534
 -20254971.37948 -15765000.75546  21648447.8834                   21648449.7544
 11  8 27  1 41 30.0000000  0  7G26G10G12G29G05G02G25
   9434205.28946   7372933.55943  23850832.1804                   23850833.9144
 -41437134.91847 -32270942.08944  23432599.0634                   23432599.4924
 -39960280.91048 -31119796.05846  21340434.5234                   21340434.0594
   -698575.90647   -523787.68045  22846148.2894                   22846148.8834
 -39778800.21148 -30978001.19647  20345198.5474                   20345197.4224
 -58476531.57448 -45546930.92446  21564759.6334                   21564757.0004
 -20359815.08248 -15846697.15346  21628496.9774                   21628498.6484
 11  8 27  1 42  0.0000000  0  7G26G10G12G29G05G02G25
   9241944.62546   7223120.18144  23814245.5164                   23814247.8594
 -41431841.66847 -32266817.51144  23433606.0394                   23433606.6054
 -40001966.57448 -31152278.41146  21332501.7894                   21332501.1804
   -879046.62947   -664414.13945  22811805.7344                   22811806.1764
 -39855457.69148 -31037734.29647  20330610.9694                   20330610.0784
 -58537837.94548 -45594702.11846  21553092.9384                   21553090.7544
 -20464054.21548 -15927922.46046  21608660.8984                   21608662.0864
 11  8 27  1 42 30.0000000  0  7G26G10G12G29G05G02G25
   9049742.00446   7073352.06743  23777670.7194                   23777671.9304
 -41426342.00047 -32262532.05944  23434652.7194                   23434653.5274
 -40043168.14148 -31184383.55046  21324661.2894                   21324660.7974
  -1059441.36747   -804981.40545  22777477.7664                   22777477.7734
 -39931559.93048 -31097034.72547  20316129.3204                   20316128.4494
 -58599034.09048 -45642387.44546  21541447.9614                   21541445.6914
 -20567690.37148 -16008677.91846  21588939.5394                   21588941.0124
 11  8 27  1 43  0.0000000  0  7G26G10G12G29G05G02G25
   8857602.40646   6923633.06344  23741107.5554                   23741109.0944
 -41420637.39147 -32258086.91344  23435738.3204                   23435739.0744
 -40083886.13748 -31216111.87546  21316913.1804                   21316912.5704
  -1239756.75047   -945486.81045  22743165.3674                   22743164.8834
 -40007106.71548 -31155902.34647  20301753.1024                   20301752.0864
 -58660119.05148 -45689986.14046  21529823.6094                   21529821.7584
 -20670722.09048 -16088962.38646  21569333.1564                   21569334.8954
 11  8 27  1 43 30.0000000  0  7G26G10G12G29G05G02G25
   8665527.13346   6773964.13043  23704556.6094                   23704558.9304
 -41414732.98447 -32253486.09744  23436861.8524                   23436863.1994
 -40124125.06648 -31247466.90946  21309255.9304                   21309255.3674
  -1419993.16847  -1085930.70045  22708867.1334                   22708867.0124
 -40082101.36748 -31214339.72147  20287482.1334                   20287481.2774
 -58721094.96548 -45737499.84446  21518220.6024                   21518218.0004
 -20773151.55548 -16168777.56146  21549841.3524                   21549843.1524
 11  8 27  1 44  0.0000000  0  7G26G10G12G29G05G02G25
   8473520.57846   6624348.78644  23668018.9224                   23668021.1414
 -41408630.51647 -32248730.98743  23438023.0944                   23438024.0314
 -40163886.22748 -31278449.65246  21301689.6334                   21301688.9884
  -1600147.90247  -1226310.93745  22674585.1174                   22674585.1094
 -40156544.54348 -31272347.38747  20273316.1564                   20273315.0124
 -58781961.05148 -45784927.97446  21506637.9304                   21506635.8134
 -20874978.10548 -16248122.95046  21530464.7194                   21530466.5904
 11  8 27  1 44 30.0000000  0  7G26G10G12G29G05G02G25
   8281585.91846   6474789.42444  23631495.0004                   23631496.6644
 -41402332.55547 -32243823.49044  23439221.6174                   23439222.0514
 -40203172.58247 -31309062.40946  21294214.0314                   21294213.3014
  -1780219.31247  -1366626.26745  22640318.4064                   22640318.2664
 -40230437.88748 -31329926.60547  20259254.7114                   20259253.7974
 -58842718.00448 -45832271.07946  21495076.7194                   21495074.1724
 -20976202.22748 -16326998.90246  21511202.2974                   21511203.9614
 11  8 27  1 45  0.0000000  0  8G26G10G15G12G29G05G02G25
   8089725.28146   6325287.76844  23594985.3284                   23594986.7934
 -41395843.18747 -32238766.87844  23440456.8524                   23440458.2704
  20197688.63355  15760071.83053  24498726.8204                   24498731.4614
 -40241987.35947 -31339307.70646  21286827.4844                   21286827.1414
  -1960206.91447  -1506876.28745  22606067.6174                   22606067.8524
 -40303784.44148 -31387079.76347  20245297.1724                   20245296.1884
 -58903366.94948 -45879530.01746  21483535.2424                   21483533.0594
 -21076825.35948 -16405406.55846  21492054.4534                   21492056.2194
 11  8 27  1 45 30.0000000  0  8G26G10G15G12G29G05G02G25
   7897936.50046   6175842.10844  23558489.0004                   23558490.6684
 -41389171.02347 -32233567.81444  23441725.9304                   23441727.0354
  20007438.57446  15611825.38743  24462523.4454                   24462527.8164
 -40280338.89147 -31369192.04046  21279529.6804                   21279529.1844
  -2140114.73847  -1647064.13545  22571832.4454                   22571832.3984
 -40376591.25848 -31443812.32947  20231442.5864                   20231441.4654
 -58963914.07048 -45926709.60146  21472013.8834                   21472011.1374
 -21176853.47348 -16483350.54146  21473019.6884                   21473021.7934
 11  8 27  1 46  0.0000000  0  8G26G10G15G12G29G05G02G25
   9281644.48846   7254056.20944  23821799.7974                   23821801.1374
 -39806903.66447 -31000632.24744  23742821.8284   23742822.5354   21392496.31646
  16691091.53144                  24726090.9534                   24726095.0164
 -38742812.95347 -30171119.89046  21572110.9064                   21572110.4574
   -744519.61347   -559587.37445  22837405.1804                   22837405.0904
 -38873442.40648 -30272527.50647  20517481.9454                   20517481.3134
 -57448941.98048 -44746211.88846  21760303.4774                   21760301.0984
 -19700868.38348 -15333232.29846  21753890.3524                   21753892.0004
 11  8 27  1 46 30.0000000  0  8G26G10G15G12G29G05G02G25
   9089998.50446   7104721.84543  23785330.7424                   23785331.2854
 -39799884.99247 -30995163.18743  23744157.6094   23744158.5664   21202009.72346
  16542660.76143                  24689841.8674                   24689845.9694
 -38780256.14547 -30200296.42646  21564985.4844                   21564984.8554
   -924273.57847   -699655.34145  22803199.1254                   22803199.0204
 -38945185.80548 -30328431.44747  20503830.0084                   20503829.0274
 -57509296.85948 -44793241.68446  21748818.2274                   21748815.7304
 -19799718.77348 -15410258.59346  21735079.7344                   21735081.5314
 11  8 27  1 47  0.0000000  0  8G26G10G15G12G29G05G02G25
   8898433.62146   6955450.61243  23748876.5864                   23748878.5394
 -39792692.89547 -30989559.01244  23745526.0944   23745526.8594   21011413.25046
  16394144.43043                  24653572.0864                   24653576.9144
 -38817244.57447 -30229118.58446  21557947.3524                   21557946.8954
  -1103943.15247   -839657.55845  22769009.1334                   22769009.5314
 -39016395.06248 -30383919.17047  20490279.3594                   20490278.2974
 -57569551.30548 -44840193.21446  21737352.1804                   21737349.6604
 -19897976.18748 -15486822.82246  21716382.1254                   21716383.4774
 11  8 27  1 47 30.0000000  0  8G26G10G15G12G29G05G02G25
   8706952.93046   6806245.03143  23712438.7034                   23712440.6214
 -39785330.13347 -30983821.86644  23746927.0084   23746928.3364   20820708.93846
  16245543.97743                  24617282.2194                   24617287.1914
 -38853780.40247 -30257588.07946  21550994.6724                   21550994.3444
  -1283526.80147   -979592.81745  22734835.6094                   22734835.6134
 -39087072.22748 -30438992.27347  20476829.6564                   20476828.8244
 -57629705.67648 -44887066.76646  21725905.4064                   21725902.3794
 -19995641.32448 -15562925.53646  21697797.0314                   21697798.7774
 11  8 27  1 48  0.0000000  0  8G26G10G15G12G29G05G02G25
   8515561.77746   6657109.12343  23676018.3204                   23676019.6294
 -39777797.46547 -30977952.28544  23748360.5704   23748361.5044   20629901.34846
  16096863.11643                  24580972.8364                   24580976.9414
 -38889864.77347 -30285705.78446  21544128.2114                   21544127.4534
  -1463020.85547  -1119458.26745  22700678.8524                   22700678.9884
 -39157217.31648 -30493650.78447  20463481.7344                   20463480.6764
 -57689758.35948 -44933861.07946  21714477.7034                   21714474.6254
 -20092712.81648 -15638565.65446  21679325.1804                   21679326.9694
 11  8 27  1 48 30.0000000  0  8G26G10G15G12G29G05G02G25
   8324259.95746   6508042.85243  23639614.8674                   23639616.0234
 -39770101.41047 -30971955.46343  23749824.8134   23749826.2234   20438988.87146
  15948100.46043                  24544643.3914                   24544647.0234
 -38925503.59847 -30313476.31846  21537346.1414                   21537345.4734
  -1642427.30947  -1259255.46945  22666539.2344                   22666538.5044
 -39226835.45748 -30547898.68047  20450233.9844                   20450232.7424
 -57749713.63347 -44980579.49346  21703068.7504                   21703065.5354
 -20189194.86748 -15713746.47746  21660964.9454                   21660966.6414
 11  8 27  1 49  0.0000000  0  8G26G10G15G12G29G05G02G25
   8133050.96547   6359048.92944  23603228.9304                   23603230.4614
 -39762244.39547 -30965833.14644  23751320.0864   23751321.0744   20247974.16046
  15799258.07644                  24508293.9304                   24508298.2154
 -38960699.66847 -30340901.83746  21530648.6884                   21530648.0434
  -1821744.39847  -1398983.04545  22632416.0084                   22632415.7114
 -39295928.28148 -30601737.22747  20437085.7894                   20437084.8054
 -57809570.99247 -45027221.59746  21691678.0314                   21691675.5944
 -20285087.87548 -15788468.30246  21642717.0554                   21642718.7114
 11  8 27  1 49 30.0000000  0  8G26G10G15G12G29G05G02G25
   7941941.44147   6210132.52344  23566862.1414                   23566863.3954
 -39754226.15647 -30959585.21644  23752845.7034   23752847.0944   20056863.31347
  15650340.77844                  24471926.6174                   24471930.4534
 -38995452.02747 -30367981.61746  21524035.5084                   21524034.8404
  -2000967.18447  -1538637.12945  22598311.2034                   22598311.2154
 -39364494.36748 -30655165.33947  20424038.0084                   20424037.3594
 -57869327.66448 -45073785.24646  21680306.7344                   21680304.1724
 -20380389.22748 -15862729.09346  21624581.8834                   21624583.5044
 11  8 27  1 50  0.0000000  0  8G26G10G15G12G29G05G02G25
   7750933.69547   6061295.43044  23530514.4064                   23530515.1954
 -39746050.57447 -30953214.70244  23754402.6334   23754402.7384   19865657.50846
  15501349.55643                  24435540.7664                   24435544.6484
 -39029764.75847 -30394718.82646  21517506.0314                   21517505.1024
  -2180094.91447  -1678217.14445  22564224.2114                   22564224.3244
 -39432536.59448 -30708185.24547  20411090.1724                   20411089.3834
 -57928984.88347 -45120271.41946  21668954.1564                   21668951.6094
 -20475100.62548 -15936530.17946  21606558.8834                   21606560.7384
 11  8 27  1 50 30.0000000  0  8G26G10G15G12G29G05G02G25
   7560032.97747   5912541.76744  23494187.4144                   23494188.3244
 -39737718.43747 -30946722.15643  23755987.2894   23755988.2304   19674360.47346
  15352287.28543                  24399137.9694                   24399141.9774
 -39063638.44548 -30421113.91846  21511060.0164                   21511059.1684
  -2359123.52347  -1817719.93845  22530155.9384                   22530155.8094
 -39500054.66848 -30760796.70947  20398241.8204                   20398240.7624
 -57988540.93447 -45166678.74646  21657621.4224                   21657618.6134
 -20569220.87948 -16009870.63046  21588648.2734                   21588650.5944
 11  8 27  1 51  0.0000000  0  8G26G10G15G12G29G05G02G25
   7369241.98847   5763873.58544  23457881.0164                   23457882.3484
 -39729233.48047 -30940110.55243  23757601.9534   23757603.5314   19482974.48447
  15203155.66343                  24362718.6094                   24362721.9144
 -39097076.44148 -30447169.51446  21504696.9614                   21504696.7774
  -2538052.26247  -1957144.90445  22496107.3754                   22496107.1804
 -39567051.55948 -30813002.06147  20385492.8204                   20385491.7504
 -58047997.20747 -45213008.33046  21646307.1804                   21646304.6454
 -20662751.36348 -16082751.52146  21570850.4064                   21570851.8524
 11  8 27  1 51 30.0000000  0  8G26G10G15G12G29G05G02G25
   7178562.28547   5615292.09044  23421595.2424                   23421597.5274
 -39720600.16447 -30933383.32843  23759245.0474   23759245.3364   19291500.00046
  15053955.04443                  24326281.5004                   24326285.1254
 -39130083.23048 -30472889.11646  21498415.9384                   21498415.4024
  -2716881.08247  -2096491.98945  22462077.3754                   22462076.6954
 -39633531.02048 -30864804.22347  20372842.1954                   20372841.2504
 -58107355.66447 -45259261.69146  21635011.8674                   21635009.2154
 -20755694.68048 -16155174.88546  21553163.5944                   21553165.4924
 11  8 27  1 52  0.0000000  0  8G26G10G15G12G29G05G02G25
   6987997.90247   5466800.46044  23385332.1564                   23385333.5864
 -39711820.68747 -30926542.17243  23760915.7274   23760916.3984   19099940.01646
  14904687.82943                  24289829.0314                   24289831.8244
 -39162660.98448 -30498274.40046  21492216.8204                   21492216.4344
  -2895607.82847  -2235759.54645  22428066.5234                   22428066.6334
 -39699493.89848 -30916203.84647  20360289.6564                   20360288.6174
 -58166615.83648 -45305438.46346  21623734.8594                   21623732.2344
 -20848050.98848 -16227140.83146  21535588.6884                   21535590.7424
 11  8 27  1 52 30.0000000  0  8G26G10G15G12G29G05G02G25
   6797554.70347   5318403.29244  23349091.8364                   23349093.1174
 -39702894.93746 -30919587.09343  23762613.8984   23762615.1174   18908299.78546
  14755358.06743                  24253360.7894                   24253363.6134
 -39194809.79748 -30523325.44946  21486099.1254                   21486099.0164
  -3074228.05547  -2374944.09945  22394076.1564                   22394075.9104
 -39764939.69148 -30967200.55047  20347835.5084                   20347834.6054
 -58225775.26248 -45351536.73946  21612477.2814                   21612474.9064
 -20939818.51248 -16298647.99146  21518126.0474                   21518127.7544
 11  8 27  1 53  0.0000000  0  8G26G10G15G12G29G05G02G25
   6607237.34847   5170104.15844  23312875.4224                   23312877.0904
 -39693824.70746 -30912519.45543  23764340.3134   23764341.1844   18716582.70746
  14605968.49243                  24216877.1334                   24216880.4454
 -39226531.25847 -30548043.49146  21480062.7974                   21480062.2344
  -3252738.62147  -2514043.20945  22360106.7814                   22360106.6764
 -39829869.37948 -31017795.10347  20335480.1484                   20335478.8984
 -58284833.27347 -45397555.98046  21601238.8444                   21601236.6374
 -21030996.89548 -16369696.07646  21500775.3284                   21500776.8484
 11  8 27  1 53 30.0000000  0  8G26G10G15G12G29G05G02G25
   6417044.75847   5021902.21944  23276682.6094                   23276684.3834
 -39684617.46146 -30905345.05843  23766092.4774   23766093.4964   18524787.05946
  14456517.63143                  24180379.6954                   24180383.0664
 -39257832.54347 -30572434.11746  21474106.4694                   21474105.6374
  -3431142.46147  -2653059.13245  22326157.6024                   22326157.5474
 -39894289.35548 -31067992.45647  20323221.1094                   20323220.5434
 -58343794.03947 -45443499.43746  21590018.8984                   21590016.8284
 -21121591.41048 -16440289.20846  21483535.6954                   21483537.1914
 11  8 27  1 54  0.0000000  0  8G26G10G15G12G29G05G02G25
   7802409.06647   6101406.98344  23540309.1334                   23540310.6174
 -38099853.44546 -29670464.04843  24067661.8834   24067664.2544   19908343.87546
  15534614.16043                  24443662.0554                   24443665.3204
 -37713293.10947 -29368896.91946  21768022.5004                   21768021.6764
  -2034009.00447  -1564383.66345  22592022.8674                   22592023.2034
 -38382776.78948 -29890190.44447  20610852.6884                   20610851.8134
 -56827233.63347 -44261764.07446  21878610.7424                   21878608.3554
 -19636177.50848 -15282823.82846  21766200.4924                   21766202.5314
 11  8 27  1 54 30.0000000  0  8G26G10G15G12G29G05G02G25
   7612481.01647   5953411.22744  23504167.4144                   23504168.1844
 -38090375.01246 -29663078.31243  24069466.3364   24069467.9924   19716402.72746
  15385049.92143                  24407136.1334                   24407139.3054
 -37743757.88747 -29392635.70846  21762225.2814                   21762224.7154
  -2212188.69547  -1703224.93545  22558116.6644                   22558116.7384
 -38446177.91048 -29939593.89847  20598787.9224                   20598786.8054
 -56885996.23847 -44307553.13345  21867428.4144                   21867425.9064
 -19725602.13747 -15352505.36346  21749183.7344                   21749185.2814
 11  8 27  1 55  0.0000000  0  8G26G10G15G12G29G05G02G25
   7422690.95347   5805522.95244  23468050.6724                   23468052.7384
 -38080764.87146 -29655590.02743  24071295.7734   24071297.1374   19524393.11747
  15235432.34543                  24370598.2504                   24370600.3834
 -37773807.87147 -29416051.30846  21756506.9614                   21756506.1954
  -2390253.20747  -1841976.46245  22524231.7424                   22524231.5474
 -38509072.27348 -29988602.48447  20586819.2584                   20586818.0904
 -56944659.69547 -44353264.93045  21856265.6024                   21856262.2814
 -19814442.77348 -15421731.82746  21732277.6884                   21732279.5744
 11  8 27  1 55 30.0000000  0  8G26G10G15G12G29G05G02G25
   7233041.83647   5657744.50844  23431961.5314                   23431963.1174
 -38071026.07446 -29648001.34143  24073148.8204   24073150.0904   19332317.01646
  15085762.88544                  24334046.7734                   24334049.9804
 -37803446.50847 -29439146.36346  21750866.8204                   21750865.9024
  -2568201.22347  -1980637.21745  22490369.9454                   22490369.1214
 -38571462.47748 -30037218.20447  20574946.7274                   20574945.7304
 -57003224.44947 -44398899.80045  21845120.8204                   21845118.1414
 -19902700.77048 -15490504.28346  21715482.9694                   21715484.6994
 11  8 27  1 56  0.0000000  0  8G26G10G15G12G29G05G02G25
   7043539.61747   5510080.57844  23395900.3754                   23395902.2544
 -38061158.69547 -29640312.56844  24075026.8134   24075027.9654   19140179.59847
  14936045.73244                  24297484.1094                   24297487.3324
 -37832674.10247 -29461921.12046  21745304.8204                   21745304.7274
  -2746028.16047  -2119203.59945  22456530.3054                   22456530.2894
 -38633347.63748 -30085440.40047  20563170.4384                   20563169.3754
 -57061688.16847 -44444455.94846  21833995.2974                   21833993.0084
 -19990374.44548 -15558821.42746  21698799.2114                   21698800.8794
 11  8 27  1 56 30.0000000  0  8G26G10G15G12G29G05G02G25
   6854185.88347   5362532.31044  23359868.1414                   23359869.0084
 -38051167.37147 -29632527.14043  24076927.9774   24076929.5824   18947981.60547
  14786281.32744                  24260910.3594                   24260912.8984
 -37861495.29747 -29484379.20346  21739820.7664                   21739819.9104
  -2923733.89847  -2257675.55345  22422714.0004                   22422713.8554
 -38694731.53948 -30133271.99447  20551489.6174                   20551488.5664
 -57120053.09047 -44489935.10846  21822888.7974                   21822887.0354
 -20077466.78148 -15626685.58246  21682226.2664                   21682228.0354
 11  8 27  1 57  0.0000000  0  8G26G10G15G12G29G05G02G25
   6664984.96947   5215103.10344  23323864.0554                   23323865.3914
 -38041053.57047 -29624646.30543  24078852.5234   24078854.1764   18755726.37947
  14636472.26944                  24224325.0704                   24224328.0944
 -37889911.87547 -29506522.00646  21734412.9844                   21734412.6564
  -3101315.85947  -2396051.05145  22388921.2034                   22388921.1724
 -38755615.66848 -30180714.15247  20539903.7424                   20539902.3984
 -57178318.10247 -44535336.42946  21811801.7734                   21811798.9734
 -20163977.82048 -15694096.77046  21665763.6644                   21665765.2814
 11  8 27  1 57 30.0000000  0  8G26G10G15G12G29G05G02G25
   6475940.43447   5067795.77844  23287889.8524                   23287891.0124
 -38030820.19147 -29616672.29743  24080800.0394   24080801.3674   18563416.63346
  14486620.81444                  24187729.3834                   24187732.5164
 -37917926.87148 -29528351.90246  21729081.9304                   21729081.3794
  -3278772.16047  -2534328.63545  22355152.0784                   22355152.2504
 -38816002.00448 -30227768.43447  20528412.5394                   20528411.7894
 -57236483.56247 -44580660.16146  21800733.0234                   21800729.9454
 -20249908.57448 -15761055.79646  21649411.7894                   21649413.2624
 11  8 27  1 58  0.0000000  0  8G26G10G15G12G29G05G02G25
   6287056.42247   4920613.51044  23251946.7194                   23251947.6484
 -38020469.07446 -29608606.52443  24082769.6024   24082770.4774   18371055.71946
  14336729.49643                  24151123.8444                   24151126.4224
 -37945542.27347 -29549870.39646  21723826.9924                   21723826.3444
  -3456100.12147  -2672506.22045  22321407.9304                   22321408.1174
 -38875891.89548 -30274435.86147  20517015.8444                   20517014.9384
 -57294548.96147 -44625905.93146  21789683.9534                   21789680.8244
 -20335259.41048 -15827562.94146  21633169.6954                   21633171.4694
 11  8 27  1 58 30.0000000  0  8G26G10G15G12G29G05G02G25
   6098334.61347   4773557.61644  23216033.5784                   23216035.0744
 -38010004.89846 -29600452.64843  24084761.0474   24084762.1054   18178644.02346
  14186798.52643                  24114508.9224                   24114511.6994
 -37972762.42248 -29571080.92146  21718646.9844                   21718646.0904
  -3633299.50447  -2810583.63145  22287688.1334                   22287688.2974
 -38935289.22747 -30320719.48847  20505712.9224                   20505711.9734
 -57352515.74647 -44671074.84846  21778652.9064                   21778650.1524
 -20420033.14148 -15893620.39146  21617037.9304                   21617039.6524
 11  8 27  1 59  0.0000000  0  8G26G10G15G12G29G05G02G25
   5909780.34447   4626632.32644  23180152.9064                   23180154.3794
 -37999428.85246 -29592211.72443  24086773.7734   24086775.0594   17986186.08247
  14036831.53643                  24077886.0164                   24077887.7114
 -37999588.77047 -29591984.57846  21713542.1564                   21713541.0904
  -3810366.95347  -2948558.20245  22253993.0474                   22253992.9454
 -38994194.35947 -30366619.59647  20494503.7344                   20494502.7584
 -57410382.74647 -44716166.00446  21767641.2974                   21767638.3014
 -20504229.35248 -15959227.82246  21601015.9454                   21601017.4104
 11  8 27  1 59 30.0000000  0  8G26G10G15G12G29G05G02G25
   5721398.22746   4479841.16044  23144304.8594                   23144306.2384
 -37988741.88346 -29583884.18042  24088806.9774   24088808.1914   17793685.69146
  13886831.45743                  24041252.9614                   24041255.7464
 -38026023.30148 -29612582.92446  21708511.7344                   21708511.6174
  -3987299.17247  -3086427.40146  22220323.6954                   22220323.8484
 -39052607.84848 -30412136.58947  20483387.9064                   20483386.6804
 -57468148.59047 -44761178.33145  21756648.8284                   21756645.9924
 -20587847.75448 -16024385.01646  21585103.9144                   21585105.3134
 11  8 27  2  0  0.0000000  0  8G26G10G15G12G29G05G02G25
   5533191.64547   4333186.80744  23108490.2974                   23108491.8244
 -37977946.78146 -29575472.44542  24090860.9534   24090862.2344   17601145.60246
  13736800.54543                  24004613.8284                   24004616.5004
 -38052068.48847 -29632877.90846  21703555.9534                   21703555.3364
  -4164094.21547  -3224189.73246  22186681.1644                   22186680.6454
 -39110532.19948 -30457272.42947  20472365.5864                   20472364.3404
 -57525813.94947 -44806112.37846  21745674.9694                   21745672.6254
 -20670889.72748 -16089093.04146  21569301.4534                   21569303.0984
 11  8 27  2  0 30.0000000  0  8G26G10G15G12G29G05G02G25
   5345159.87147   4186668.62944  23072709.5864                   23072710.3834
 -37967050.50046 -29566981.94542  24092934.7114   24092935.6804   17408563.77747
  13586737.02343                  23967966.9614                   23967969.3244
 -38077731.66447 -29652875.20346  21698672.1094                   21698671.5904
  -4340754.71147  -3361847.21646  22153063.8364                   22153063.6914
 -39167973.78548 -30502032.10746  20461434.4064                   20461433.4964
 -57583382.75047 -44850971.16946  21734720.4844                   21734717.8404
 -20753360.72348 -16153356.15646  21553607.7274                   21553609.3874
 11  8 27  2  1  0.0000000  0  8G26G10G15G12G29G05G02G25
   5157309.53147   4040291.86244  23036961.9844                   23036963.8754
 -37956052.32046 -29558412.00442  24095028.0234   24095028.8014   17215946.30947
  13436645.68544                  23931313.0634                   23931314.9774
 -38103012.74647 -29672574.76446  21693861.3524                   21693860.3954
  -4517275.06647  -3499395.50546  22119472.8524                   22119472.5664
 -39224931.61748 -30546414.81947  20450595.8524                   20450594.6134
 -57640851.99647 -44895752.40345  21723784.2114                   21723781.7504
 -20835258.67248 -16217172.73946  21538023.0084                   21538024.8164
 11  8 27  2  1 30.0000000  0  8G26G10G15G12G29G05G02G25
   4969645.03947   3894059.91044  23001250.5704                   23001252.2664
 -37944954.11746 -29549764.06943  24097140.1644   24097140.8014   17023296.08647
  13286528.86944                  23894652.9454                   23894654.5904
 -38127913.48448 -29691977.95346  21689122.7114                   21689122.1724
  -4693653.25847  -3636833.00745  22085909.0314                   22085908.9614
 -39281407.01647 -30590421.62347  20439849.0394                   20439847.6564
 -57698221.11747 -44940455.61446  21712867.2814                   21712864.8284
 -20916584.10248 -16280543.21146  21522547.2424                   21522548.6254
 11  8 27  2  2  0.0000000  0  8G26G10G15G12G29G05G02G25
   4782168.30146   3747974.27344  22965575.1954                   22965576.1994
 -37933759.88346 -29541041.34743  24099270.3754   24099271.3954   16830614.60547
  13136387.67644                  23857987.1094                   23857988.7194
 -38152438.33647 -29711088.23646  21684456.1564                   21684455.5124
  -4869888.14547  -3774158.83346  22052372.6564                   22052372.7384
 -39337403.66447 -30634055.36447  20429193.1484                   20429191.9844
 -57755491.44947 -44985081.83345  21701968.8914                   21701966.5124
 -20997339.68448 -16343469.65346  21507180.4384                   21507181.7344
 11  8 27  2  2 30.0000000  0  8G26G10G15G12G29G05G02G25
   6170309.23447   4829642.63844  23229728.9064                   23229730.4534
 -36347052.68746 -28304646.19343  24401211.0944   24401211.3984   18213330.96947
  14213829.22444                  24121108.2734                   24121110.6414
 -36601170.02747 -28502307.74946  21979652.7114                   21979651.3324
  -3470552.09847  -2683767.07546  22318657.7974                   22318657.2194
 -37817501.72747 -29449716.18347  20718420.6414                   20718419.5474
 -56237241.22347 -43802029.72445  21990882.3754                   21990880.2384
 -19502104.03148 -15178350.96646  21791713.8984                   21791715.7034
 11  8 27  2  3  0.0000000  0  8G26G10G15G12G29G05G02G25
   5983216.53947   4683856.22844  23194126.5004                   23194128.3524
 -36335676.50846 -28295781.71443  24403375.7424   24403376.3954   18020592.60947
  14063643.68544                  24084431.9224                   24084434.0704
 -36624954.78147 -28520841.34146  21975126.2734                   21975125.6174
  -3646497.27747  -2820867.15046  22285176.0164                   22285175.9144
 -37872549.49647 -29492610.53847  20707945.6564                   20707944.2974
 -56294316.59447 -43846504.03346  21980021.2424                   21980019.0204
 -19581726.14848 -15240394.17846  21776562.5004                   21776563.9844
 11  8 27  2  3 30.0000000  0  8G26G10G15G12G29G05G02G25
   5796322.18047   4538224.36144  23158561.5084                   23158563.0204
 -36324212.17646 -28286848.44644  24405557.2504   24405558.2304   17827830.96147
  13913440.01544                  24047750.6724                   24047751.6134
 -36648372.84447 -28539089.20246  21970670.1804                   21970669.4844
  -3822293.47347  -2957851.13446  22251723.0554                   22251723.1764
 -37927125.20348 -29535137.04947  20697559.9534                   20697559.2504
 -56351293.57847 -43890901.70046  21969179.2114                   21969176.6994
 -19660782.41448 -15301996.47546  21761518.4924                   21761520.1954
 11  8 27  2  4  0.0000000  0  8G26G10G15G12G29G05G02G25
   5609629.52747   4392749.68544  23123035.5394                   23123036.1724
 -36312662.61346 -28277848.86943  24407755.1254   24407756.5124   17635048.28947
  13763219.97144                  24011064.5474                   24011066.5124
 -36671427.31648 -28557053.74846  21966282.8914                   21966282.5824
  -3997938.96947  -3094717.71846  22218299.0234                   22218298.3674
 -37981231.19148 -29577297.55046  20687264.2194                   20687262.8404
 -56408172.61347 -43935223.03045  21958355.0864                   21958352.6214
 -19739274.47748 -15363159.11346  21746582.0474                   21746583.4804
 11  8 27  2  4 30.0000000  0  8G26G10G15G12G29G05G02G25
   5423142.53547   4247435.26044  23087548.3444                   23087549.4304
 -36301029.68046 -28268784.28243  24409969.1174   24409969.6294   17442247.94546
  13612986.10344                  23974375.6954                   23974377.8634
 -36694120.27347 -28574736.58446  21961964.7974                   21961964.2734
  -4173431.27747  -3231464.92246  22184903.9924                   22184903.8914
 -38034868.93047 -29619093.17947  20677057.0634                   20677056.1374
 -56464952.70747 -43979467.26445  21947550.5394                   21947547.7624
 -19817203.16048 -15423882.75646  21731752.6724                   21731754.1564
 11  8 27  2  5  0.0000000  0  8G26G10G15G12G29G05G02G25
   5236863.10247   4102282.56344  23052100.5944                   23052101.4614
 -36289317.60946 -28259658.00743  24412197.4924   24412198.9024   17249430.83246
  13462739.20344                  23937683.6884                   23937685.1884
 -36716456.75847 -28592141.67046  21957714.1484                   21957713.8404
  -4348769.77347  -3368092.26645  22151538.0004                   22151537.4184
 -38088042.61348 -29660527.21246  20666938.7034                   20666937.1564
 -56521635.95348 -44023636.04045  21936763.8134                   21936761.2424
 -19894571.45748 -15484169.72946  21717030.0784                   21717031.8284
 11  8 27  2  5 30.0000000  0  8G26G10G15G12G29G05G02G25
   5050796.39147   3957295.61944  23016692.9614                   23016693.7894
 -36277527.30146 -28250470.79043  24414441.5474   24414442.5044   17056601.31646
  13312482.63643                  23900989.0784                   23900990.5704
 -36738438.05948 -28609269.97046  21953531.2344                   21953530.8954
  -4523951.07047  -3504597.14046  22118202.0394                   22118201.9734
 -38140752.81248 -29701600.08847  20656908.1954                   20656907.1334
 -56578220.82047 -44067728.15545  21925996.6484                   21925993.9384
 -19971379.22748 -15544019.94346  21702413.7664                   21702415.5434
 11  8 27  2  6  0.0000000  0  8G26G10G15G12G29G05G02G25
   4864946.31347   3812477.48444  22981326.9844                   22981327.0204
 -36265661.23046 -28241224.60543  24416699.0314   24416700.1334   16863762.32846
  13162218.64444                  23864293.2034                   23864294.6764
 -36760066.82448 -28626123.56946  21949415.8594                   21949415.2664
  -4698972.85247  -3640977.68646  22084896.4144                   22084896.1254
 -38193001.54348 -29742313.38746  20646965.5864                   20646964.6914
 -56634706.78947 -44111743.21045  21915247.3284                   21915244.8324
 -20047627.59448 -15603434.23046  21687904.1954                   21687906.1914
 11  8 27  2  6 30.0000000  0  8G26G10G15G12G29G05G02G25
   4679312.44547   3667827.82544  22946001.5084                   22946002.1254
 -36253725.64146 -28231924.17643  24418970.6024   24418971.8404   16670912.84447
  13011946.47744                  23827594.8054                   23827597.1524
 -36781349.95348 -28642707.84146  21945365.5164                   21945365.2154
  -4873837.09447  -3777235.49446  22051620.7034                   22051620.8674
 -38244794.90248 -29782671.83546  20637109.4694                   20637108.2304
 -56691097.91447 -44155684.35845  21904516.6174                   21904514.3914
 -20123322.06248 -15662416.91946  21673500.0474                   21673502.0744
 11  8 27  2  7  0.0000000  0  8G26G10G15G12G29G05G02G25
   4493903.87147   3523353.68545  22910719.1564                   22910720.3364
 -36241717.25846 -28222567.03843  24421255.4614   24421257.1524   16478061.05147
  12861672.51744                  23790896.4384                   23790898.7504
 -36802284.77348 -28659020.71046  21941381.8754                   21941381.1214
  -5048535.98447  -3913364.44346  22018376.4774                   22018376.4304
 -38296129.47748 -29822672.79946  20627340.8754                   20627339.7544
 -56747388.41447 -44199547.08845  21893804.8594                   21893802.5944
 -20198458.43748 -15720964.74046  21659202.0634                   21659204.3674
 11  8 27  2  7 30.0000000  0  8G26G10G15G12G29G05G02G25
   4308722.82447   3379056.86744  22875480.3914                   22875481.4694
 -36229639.87546 -28213156.14842  24423553.6334   24423555.5274   16285208.21946
  12711397.77844                  23754197.7504                   23754199.3014
 -36822875.99648 -28675065.83846  21937463.5234                   21937463.0554
  -5223069.03148  -4049364.18946  21985164.5004                   21985163.9414
 -38347009.07848 -29862319.23446  20617658.5314                   20617657.6094
 -56803579.93047 -44243332.71546  21883111.9454                   21883109.0594
 -20273039.69548 -15779079.98746  21645009.6174                   21645011.5474
 11  8 27  2  8  0.0000000  0  8G26G10G15G12G29G05G02G25
   4123771.53547   3234939.07144  22840285.1414                   22840285.8094
 -36217497.28146 -28203694.48442  24425863.2274   24425866.1684   16092356.04346
  12561123.55144                  23717499.5234                   23717500.3324
 -36843127.70347 -28690846.40446  21933609.7344                   21933609.5554
  -5397435.29347  -4185233.95446  21951983.4924                   21951983.0204
 -38397437.19148 -29901613.85547  20608062.8984                   20608061.7544
 -56859673.47747 -44287041.98445  21872437.6484                   21872435.2704
 -20347068.49248 -15836764.74546  21630922.1724                   21630924.3204
 11  8 27  2  8 30.0000000  0  8G26G10G15G12G29G05G02G25
   3939052.05147   3091001.91644  22805134.3364                   22805134.6844
 -36205293.57446 -28194185.14142  24428186.6024   24428186.9734   15899505.27746
  12410850.35444                  23680800.5164                   23680801.9924
 -36863044.67248 -28706366.13646  21929819.7274                   21929819.4804
  -5571634.31647  -4320973.43446  21918834.6724                   21918834.0664
 -38447417.88348 -29940559.84647  20598551.5704                   20598550.7344
 -56915670.81647 -44330676.30245  21861781.9844                   21861779.0554
 -20420548.19548 -15894021.65646  21616939.5234                   21616941.1994
 11  8 27  2  9  0.0000000  0  8G26G10G15G12G29G05G02G25
   3754570.79747   2947250.40044  22770028.7734                   22770029.2304
 -36193028.50846 -28184627.88742  24430520.3754   24430520.8554   15706661.65246
  12260582.80644                  23644103.7114                   23644104.9924
 -36882626.87148 -28721625.00746  21926093.3594                   21926093.0394
  -5745661.36348  -4456578.89446  21885718.3594                   21885717.9734
 -38496950.60548 -29979156.76846  20589125.6414                   20589124.8674
 -56971569.45348 -44374233.68145  21851144.4384                   21851141.7344
 -20493477.57848 -15950849.74346  21603061.5634                   21603063.3634
 11  8 27  2  9 30.0000000  0  8G26G10G15G12G29G05G02G25
   3570329.61347   2803685.95344  22734968.4064                   22734969.7734
 -36180705.97746 -28175026.01143  24432866.3444   24432866.9304   15513826.68046
  12110322.01744                  23607407.8914                   23607409.8524
 -36901878.53148 -28736626.31346  21922429.5784                   21922429.4804
  -5919515.75048  -4592049.80746  21852634.7504                   21852634.6564
 -38546039.23048 -30017407.63446  20579784.6884                   20579783.6254
 -57027370.16047 -44417714.77845  21840526.2504                   21840523.2304
 -20565859.57848 -16007251.29146  21589287.7194                   21589289.5314
 11  8 27  2 10  0.0000000  0  8G26G10G15G12G29G05G02G25
   3386334.26247   2660313.04744  22699955.5164                   22699956.2814
 -36168326.74646 -28165379.90843  24435221.5004   24435222.7114   15321004.96146
  11960071.52644                  23570714.6094                   23570716.2544
 -36920801.18447 -28751371.25746  21918828.9454                   21918828.6914
  -6093193.40648  -4727383.01646  21819584.8914                   21819584.7934
 -38594683.94548 -30055312.59946  20570527.7974                   20570526.8524
 -57083071.08648 -44461118.10445  21829926.8594                   21829923.7034
 -20637693.93748 -16063226.10746  21575618.2974                   21575619.9454
 11  8 27  2 10 30.0000000  0  7G26G15G12G29G05G02G25
   4778014.35547   3744739.18844  22964783.2344                   22964784.0204
  16703625.54746  13037438.44044  23833818.9694                   23833820.2734
 -35363977.42248 -27538261.84746  22215082.6644                   22215082.6484
  -4691266.34448  -3634972.29846  22086362.9844                   22086362.6954
 -37067465.50448 -28865272.24246  20861147.8444                   20861146.7424
 -55563250.57048 -43276842.39545  22119138.6724                   22119136.2504
 -19133559.96148 -14891173.65146  21861845.2194                   21861847.4494
 11  8 27  2 11  0.0000000  0  7G26G15G12G29G05G02G25
   4594523.45347   3601759.36944  22929865.9774                   22929866.5554
  16510840.68847  12887216.69144  23797132.5864                   23797134.3674
 -35382249.10248 -27552499.54046  22211605.5234                   22211605.3714
  -4864581.62548  -3770023.14146  22053381.9614                   22053381.8634
 -37115227.05148 -28902489.03547  20852059.2734                   20852058.2974
 -55618749.95748 -43320088.67845  22108577.6724                   22108574.8754
 -19204301.71548 -14946297.09446  21848383.7814                   21848385.7584
 11  8 27  2 11 30.0000000  0  8G26G21G15G12G29G05G02G25
   4411294.52047   3458983.67644  22894999.0084                   22894999.0164
  26556100.11756  20710508.71453  25278615.3594                   25278617.2734
  16318082.63347  12737015.80544  23760452.4694                   23760453.2074
 -35400195.66448 -27566483.88446  22208190.9534                   22208190.0434
  -5037708.67248  -3904927.31546  22020436.8914                   22020436.7304
 -37162546.56248 -28939361.36746  20843054.2664                   20843053.3094
 -55674144.10248 -43363252.96645  22098036.3674                   22098033.4924
 -19274495.53548 -15000993.58346  21835026.3204                   21835028.0434
 11  8 27  2 12  0.0000000  0  8G26G21G15G12G29G05G02G25
   4228328.60947   3316412.94245  22860181.0084                   22860181.7704
  26404030.03946  20592012.68543  25249677.5474                   25249679.1994
  16125351.98447  12586836.28144  23723776.8834                   23723777.0554
 -35417822.30147 -27580218.93046  22204836.4224                   22204835.7114
  -5210647.53148  -4039684.83846  21987527.4924                   21987527.2504
 -37209428.89548 -28975893.04746  20834132.9844                   20834131.9344
 -55729435.41048 -43406337.10745  22087515.0004                   22087512.5744
 -19344145.43748 -15055266.23546  21821772.2894                   21821774.0004
 11  8 27  2 12 30.0000000  0  8G26G21G15G12G29G05G02G25
   4045624.94547   3174046.55245  22825413.7584                   22825414.2854
  26251979.37946  20473531.68842  25220743.2504                   25220744.8874
  15932647.02347  12436676.73244  23687106.1724                   23687106.2814
 -35435136.38748 -27593710.43146  22201541.6484                   22201541.2974
  -5383400.18748  -4174297.25946  21954653.9774                   21954653.3674
 -37255880.44148 -29012089.03546  20825293.2664                   20825292.3014
 -55784628.20748 -43449344.48045  22077011.8674                   22077009.8284
 -19413257.59048 -15109119.86146  21808620.6024                   21808622.3054
 11  8 27  2 13  0.0000000  0  8G26G21G15G12G29G05G02G25
   3863185.40247   3031885.96445  22790696.5394                   22790697.3054
  26099946.08246  20355064.27742  25191812.9064                   25191813.1294
  15739969.13747  12286538.29844  23650440.1954                   23650441.6764
 -35452142.97747 -27606962.34745  22198305.7424                   22198305.2704
  -5555966.63748  -4308764.59246  21921815.7114                   21921815.6644
 -37301905.42248 -29047952.65146  20816535.5004                   20816534.3324
 -55839724.07448 -43492276.33545  22066527.7114                   22066525.2734
 -19481835.39548 -15162557.12346  21795570.7974                   21795572.5044
 11  8 27  2 13 30.0000000  0  8G26G21G15G12G29G05G02G25
   3681014.07847   2889934.38545  22756030.7734                   22756031.0984
  25947930.25445  20236610.49443  25162885.4384                   25162885.5274
  15547321.25047  12136423.25143  23613780.8134                   23613781.6914
 -35468844.54347 -27619976.56045  22195127.1564                   22195126.7894
  -5728344.09448  -4443084.65246  21889013.3134                   21889012.6094
 -37347505.50848 -29083485.18047  20807857.9454                   20807857.1604
 -55894722.31648 -43535132.11245  22056062.0554                   22056059.8634
 -19549880.03148 -15215578.91246  21782622.4694                   21782624.1294
 11  8 27  2 14  0.0000000  0  8G26G21G15G12G29G05G02G25
   3499117.49647   2748196.85645  22721416.7194                   22721417.3364
  25795933.40246  20118171.46542  25133960.4304                   25133961.4304
  15354709.11347  11986336.02144  23577127.6174                   23577127.9964
 -35485241.48847 -27632753.41645  22192006.7034                   22192006.4184
  -5900527.49248  -4577253.48746  21856247.9384                   21856247.4384
 -37392680.17248 -29118686.21046  20799261.5864                   20799260.5514
 -55949620.02348 -43577909.53445  22045615.3914                   22045612.8204
 -19617390.67648 -15268184.60546  21769775.5704                   21769777.1604
 11  8 27  2 14 30.0000000  0  8G26G21G15G12G29G05G02G25
   3317496.14547   2606673.81845  22686855.5004                   22686856.1524
  25643952.19146  19999744.64643  25105038.7974                   25105040.3754
  15162133.06646  11836276.95644  23540480.9384                   23540481.8914
 -35501339.47747 -27645297.31645  22188943.6954                   22188942.7974
  -6072517.62548  -4711271.73446  21823519.1954                   21823518.5474
 -37437435.14848 -29153560.20646  20790744.8594                   20790743.9844
 -56004419.93048 -43620610.76645  22035187.0394                   22035184.9884
 -19684371.85548 -15320377.72846  21757029.5314                   21757031.0784
 11  8 27  2 15  0.0000000  0  8G26G21G15G12G29G05G02G25
   3136155.25447   2465369.31045  22652347.4534                   22652347.7624
  25491987.53546  19881330.84143  25076121.3594                   25076121.8674
  14969597.02346  11686249.05744  23503842.3984                   23503844.0044
 -35517140.19547 -27657609.57645  22185937.0314                   22185936.0704
  -6244310.96148  -4845136.60246  21790827.7584                   21790827.1914
 -37481771.10548 -29188107.70246  20782308.2894                   20782307.2584
 -56059120.62148 -43663234.68046  22024777.8524                   22024775.6884
 -19750823.97348 -15372158.60646  21744384.0314                   21744385.5394
 11  8 27  2 15 30.0000000  0  8G26G21G15G12G29G05G02G25
   2955096.95347   2324285.02245  22617893.0784                   22617893.6764
  25340037.14146  19762928.06343  25047205.9694                   25047207.1024
  14777102.46946  11536253.48544  23467212.2034                   23467213.4734
 -35532648.16848 -27669693.71945  22182985.9694                   22182985.4104
  -6415906.47748  -4978847.33146  21758174.3364                   21758173.5704
 -37525692.45748 -29222332.12046  20773949.8754                   20773948.9104
 -56113723.36348 -43705782.26645  22014387.1254                   22014384.7504
 -19816750.47348 -15423529.88546  21731838.7664                   21731840.2114
 11  8 27  2 16  0.0000000  0  8G26G21G15G12G29G05G02G25
   2774326.50047   2183425.00945  22583493.6254                   22583494.0084
  25188101.87946  19644537.13343  25018294.0084                   25018294.5274
  14584654.21146  11386293.97044  23430590.4224                   23430591.4924
 -35547864.74647 -27681550.80645  22180090.0234                   22180089.5704
  -6587300.40648  -5112400.97346  21725559.3204                   21725558.2934
 -37569198.84848 -29256233.19446  20765671.0084                   20765670.3014
 -56168226.32048 -43748252.10545  22004015.6724                   22004013.4694
 -19882151.32848 -15474491.59546  21719393.2114                   21719395.0234
 11  8 27  2 16 30.0000000  0  8G26G21G15G12G29G05G02G25
   2593846.78547   2042791.54045  22549149.0394                   22549149.6524
  25036180.57847  19526157.08743  24989383.7424                   24989385.3364
  14392254.04747  11236371.93544  23393977.9774                   23393978.4844
 -35562793.83647 -27693183.87845  22177249.2894                   22177248.8404
  -6758491.30148  -5245796.40846  21692982.6484                   21692981.7424
 -37612294.09048 -29289813.90546  20757470.2194                   20757469.5124
 -56222630.15648 -43790644.70545  21993662.8444                   21993660.5704
 -19947029.32448 -15525045.88546  21707047.5634                   21707049.0204
 11  8 27  2 17  0.0000000  0  8G26G21G15G12G29G05G02G25
   2413662.77347   1902388.52045  22514861.3834                   22514862.0234
  24884273.95347  19407788.44343  24960477.1024                   24960477.7274
  14199906.48847  11086490.90144  23357375.5704                   23357376.2034
 -35577437.22747 -27704594.32545  22174462.8364                   22174462.3524
  -6929475.59048  -5379030.84846  21660445.3054                   21660444.9264
 -37654979.23848 -29323075.05046  20749347.7274                   20749346.7344
 -56276933.24248 -43832958.79445  21983329.7584                   21983327.1604
 -20011384.94148 -15575193.11746  21694800.7194                   21694802.9964
 11  8 27  2 17 30.0000000  0  8G26G21G15G12G29G05G02G25
   2233779.47347   1762219.79545  22480630.5704                   22480630.8714
  24732382.53946  19289431.67843  24931572.4144                   24931573.5234
  14007615.86347  10936654.19844  23320783.3674                   23320784.6054
 -35591796.50047 -27715783.38045  22171730.5704                   22171729.6804
  -7100249.73448  -5512101.53546  21627948.0234                   21627947.2234
 -37697255.04348 -29356017.22946  20741302.8754                   20741301.9304
 -56331134.02348 -43875193.16545  21973015.6484                   21973013.0594
 -20075218.69548 -15624933.70546  21682653.8914                   21682655.8754
 11  8 27  2 18  0.0000000  0  8G26G21G15G12G29G05G02G25
   2054198.10247   1622286.34245  22446457.3754                   22446457.6844
  24580503.41046  19171084.53143  24902671.2114                   24902672.0784
  13815382.30947  10786861.98744  23284202.4614                   23284202.9304
 -35605877.14147 -27726755.31045  22169050.9924                   22169050.7234
  -7270813.84448  -5645008.57046  21595490.6024                   21595490.0944
 -37739126.37948 -29388644.23646  20733334.9924                   20733333.6764
 -56385234.68748 -43917349.53245  21962720.7504                   21962718.2624
 -20138534.92248 -15674271.01446  21670604.9924                   21670606.3364
 11  8 27  2 18 30.0000000  0  8G26G21G15G12G29G05G02G25
   3450348.52747   2710195.84545  22712135.6954   22712136.2304   26004061.09446
  20280350.41643                  25173565.0474                   25173565.3634
  15198635.71146  11864721.95744  23547426.4384                   23547427.3634
 -34044261.43747 -26509911.91145  22466216.7664                   22466216.3164
  -5865739.77348  -4550145.57846  21862867.2344                   21862866.7734
 -36205174.24648 -28193356.86146  21025236.2424                   21025235.4534
 -54863813.05948 -42731826.18445  22252237.3754                   22252235.0164
 -18625913.21948 -14495604.77146  21958447.2974                   21958448.9414
 11  8 27  2 19  0.0000000  0  8G26G21G15G12G29G05G02G25
   3271381.48047   2570741.07045  22678079.7344   22678080.0164   25852204.29346
  20162020.70143                  25144667.0394                   25144667.5394
  15006525.30546  11715025.70044  23510869.2664                   23510869.5864
 -34057794.58247 -26520457.22845  22463640.9774                   22463640.4964
  -6035877.54348  -4682720.39946  21830491.3594                   21830490.2854
 -36246244.61748 -28225359.74346  21017421.1024                   21017419.8054
 -54917713.30947 -42773826.38845  22241980.7274                   22241977.6844
 -18688200.62148 -14544140.41746  21946594.3444                   21946596.1644
 11  8 27  2 19 30.0000000  0  8G26G21G15G12G29G05G02G25
   3092730.30547   2431532.46145  22644082.8364   22644083.7304   25700361.12146
  20043701.53343                  25115772.8364                   25115772.5904
  14814484.15246  11565383.37444  23474324.6564                   23474325.4024
 -34071055.21147 -26530790.19845  22461117.3444                   22461116.9344
  -6205795.43048  -4815123.87646  21798156.7274                   21798156.2154
 -36286914.49248 -28257050.55046  21009681.2504                   21009680.6844
 -54971509.69948 -42815745.66345  22231743.1564                   22231740.8834
 -18749973.25048 -14592274.94446  21934839.3524                   21934841.3834
 11  8 27  2 20  0.0000000  0  8G26G21G15G12G29G05G02G25
   2914395.03947   2292570.00245  22610146.9454   22610147.5944   25548526.93446
  19925389.31642                  25086878.8524                   25086879.7814
  14622511.73047  11415794.66344  23437793.3754                   23437794.5664
 -34084050.12947 -26540916.10145  22458644.6954                   22458644.4574
  -6375494.94948  -4947357.20746  21765863.9694                   21765863.6024
 -36327190.26248 -28288434.27146  21002017.7424                   21002016.4184
 -55025206.02748 -42857586.95745  22221525.3284                   22221523.0664
 -18811236.80148 -14640012.77646  21923181.3284                   21923183.4574
 11  8 27  2 20 30.0000000  0  8G26G21G15G12G29G05G02G25
   2736379.66447   2153856.81145  22576271.6094   22576272.2624   25396701.77345
  19807084.10242                  25057987.5234                   25057987.5124
  14430611.34847  11266262.08444  23401276.0704                   23401276.4614
 -34096781.98847 -26550837.04745  22456221.9144                   22456221.9614
  -6544972.93048  -5079417.91246  21733613.3054                   21733612.6844
 -36367073.82448 -28319512.36146  20994427.3444                   20994426.4064
 -55078801.30547 -42899349.51145  22211326.4384                   22211323.8134
 -18871992.82848 -14687355.12946  21911619.8284                   21911622.0474
 11  8 27  2 21  0.0000000  0  8G26G21G15G12G29G05G02G25
   2558684.30147   2015392.97645  22542457.7034   22542457.4414   25244881.43045
  19688782.73042                  25029096.0784                   25029096.3164
  14238782.32047  11116785.04745  23364772.0704                   23364772.7464
 -34109257.22747 -26560558.02845  22453848.4774                   22453847.9654
  -6714231.08248  -5211307.32746  21701404.4774                   21701404.3244
 -36406571.04348 -28350289.41446  20986911.8754                   20986910.6524
 -55132298.58248 -42941035.69845  22201146.4144                   22201143.8524
 -18932246.85248 -14734306.31646  21900154.0554                   21900155.6684
 11  8 27  2 21 30.0000000  0  8G26G21G15G12G29G05G02G25
   2381318.23047   1877185.73245  22508705.9844   22508705.5044   25093070.71146
  19570488.81342                  25000208.1174                   25000207.5944
  14047033.30947  10967370.40345  23328282.7734                   23328283.8714
 -34121473.27047 -26570077.03645  22451523.6414                   22451523.3914
  -6883261.26248  -5343019.11546  21669239.1334                   21669238.3834
 -36445679.00448 -28380763.14246  20979469.9384                   20979468.7154
 -55185692.23448 -42982641.14945  22190985.7034                   22190983.5594
 -18991995.44148 -14780863.67346  21888784.5314                   21888786.1484
 11  8 27  2 22  0.0000000  0  8G26G21G15G12G29G05G02G25
   2204284.75847   1739237.64045  22475017.4144   22475017.6454   24941268.87946
  19452201.73042                  24971321.0704                   24971320.3874
  13855366.67647  10818019.92645  23291810.2274                   23291811.3954
 -34133433.75447 -26579396.90645  22449247.5634                   22449247.3524
  -7052061.81248  -5474551.97146  21637117.1644                   21637117.0044
 -36484400.49648 -28410935.73046  20972101.5314                   20972100.0354
 -55238982.46547 -43024166.00245  22180844.8524                   22180842.1334
 -19051240.95748 -14827028.99646  21877510.4144                   21877511.7194
 11  8 27  2 22 30.0000000  0  8G26G21G15G12G29G05G02G25
   2027586.13347   1601550.49445  22441392.3914   22441392.9734   24789474.30146
  19333920.30142                  24942435.2504                   24942435.3714
  13663784.22747  10668735.05144  23255353.4384                   23255353.5554
 -34145143.35247 -26588521.27945  22447019.5474                   22447019.3484
  -7220631.64548  -5605905.04846  21605039.6024                   21605039.1724
 -36522738.88348 -28440809.80646  20964805.8524                   20964804.7154
 -55292170.31647 -43065611.08245  22170723.7274                   22170720.8014
 -19109986.66048 -14872804.87446  21866331.4844                   21866333.3914
 11  8 27  2 23  0.0000000  0  8G26G21G15G12G29G05G02G25
   1851227.76647   1464128.47345  22407832.7814   22407832.7894   24637688.08646
  19215645.44043                  24913551.4064                   24913551.8594
  13472291.39847  10519520.01244  23218912.6094                   23218913.2584
 -34156602.65648 -26597450.61545  22444838.8914                   22444838.5664
  -7388966.07848  -5737074.70646  21573006.7194                   21573005.9414
 -36560694.69948 -28470385.76346  20957583.0704                   20957582.2854
 -55345253.49247 -43106974.59145  22160622.5704                   22160619.7934
 -19168232.93748 -14918191.57646  21855247.4614                   21855249.2034
 11  8 27  2 23 30.0000000  0  8G26G21G15G12G29G05G02G25
   1675212.18447   1326973.55845  22374338.2424   22374338.1024   24485908.71546
  19097375.91543                  24884668.7504                   24884669.0984
  13280889.54347  10370375.86644  23182489.9224                   23182491.0434
 -34167816.04347 -26606188.32445  22442704.7274                   22442704.8954
  -7557064.74648  -5868060.65046  21541018.5554                   21541017.8094
 -36598271.73048 -28499666.55746  20950432.4694                   20950430.9494
 -55398233.00447 -43148257.34145  22150540.8364                   22150538.0234
 -19225983.04748 -14963191.67146  21844258.0314                   21844259.5474
 11  8 27  2 24  0.0000000  0  8G26G21G15G12G29G05G02G25
   1499542.34847   1190088.06945  22340909.1414   22340909.1644   24334134.61346
  18979110.47043                  24855787.3204                   24855787.5434
  13089581.03547  10221304.42244  23146085.2194                   23146085.8364
 -34178787.34447 -26614737.39045  22440617.0944                   22440616.8834
  -7724925.55948  -5998861.26746  21509075.9384                   21509075.2344
 -36635473.15648 -28528654.67046  20943353.1174                   20943351.9064
 -55451109.10947 -43189459.48745  22140478.6564                   22140476.1334
 -19283239.69548 -15007807.23546  21833362.3594                   21833364.3134
 11  8 27  2 24 30.0000000  0  8G26G21G15G12G29G05G02G25
   1324223.68447   1053476.18445  22307546.6724   22307546.9844   24182366.74246
  18860849.91943                  24826905.7424                   24826907.3954
  12898370.50847  10072309.35644  23109699.3134                   23109699.2304
 -34189518.03947 -26623098.97445  22438574.8594                   22438574.6414
  -7892544.38748  -6129473.30646  21477178.6884                   21477177.8674
 -36672299.21148 -28557350.30246  20936345.2424                   20936344.1684
 -55503880.05948 -43230579.70645  22130436.6954                   22130434.4144
 -19340003.35548 -15052038.66946  21822560.5394                   21822562.5824
 11  8 27  2 25  0.0000000  0  8G26G21G15G12G29G05G02G25
   1149255.91447    917137.76345  22274251.7194   22274251.7584   24030601.19146
  18742591.16443                  24798026.2734                   24798026.8794
  12707257.62547   9923390.35544  23073331.8364                   23073331.2304
 -34200014.85547 -26631278.31845  22436577.5164                   22436577.0784
  -8059922.49248  -6259897.79246  21445327.6174                   21445327.0704
 -36708756.90248 -28585758.89046  20929407.7344                   20929406.5554
 -55556548.81247 -43271620.29845  22120414.0084                   22120411.8914
 -19396279.92648 -15095890.54646  21811851.4304                   21811853.5434
 11  8 27  2 25 30.0000000  0  8G26G21G15G12G29G05G02G25
    974644.50847    781076.99645  22241024.3364   22241024.5984   23878838.75446
  18624334.86543                  24769147.2504                   24769148.0704
  12516246.88347   9774550.92245  23036983.2584                   23036983.3794
 -34210279.29347 -26639276.58845  22434624.6024                   22434624.1564
  -8227056.27748  -6390131.88146  21413523.2274                   21413522.5664
 -36744846.66448 -28613880.76946  20922540.1954                   20922539.1414
 -55609113.90647 -43312580.11745  22110411.2424                   22110408.9184
 -19452069.93448 -15139363.28046  21801234.9614                   21801236.9024
 11  8 27  2 26  0.0000000  0  8G26G21G15G12G29G05G02G25
    800392.75047    645296.49345  22207864.9144   22207864.9734   23727078.97746
  18506080.70143                  24740267.6024                   24740268.0704
  12325341.19947   9625793.38445  23000655.3834                   23000656.2854
 -34220314.19547 -26647095.97945  22432715.1334                   22432714.2074
  -8393943.29748  -6520173.68546  21381765.5864                   21381765.1054
 -36780570.85948 -28641717.80047  20915742.1174                   20915740.9344
 -55661574.93047 -43353458.82345  22100428.2584                   22100426.0824
 -19507375.62548 -15182458.63646  21790710.7664                   21790712.6024
 11  8 27  2 26 30.0000000  0  8G26G21G15G12G29G05G02G25
    626503.89547    509798.76545  22174775.0394   22174775.2464   23575320.79346
  18387827.72043                  24711388.6724                   24711389.8404
  12134543.16047   9477119.73745  22964347.9144                   22964347.7504
 -34230123.30547 -26654739.44945  22430848.5474                   22430848.0314
  -8560581.65648  -6650021.70346  21350055.0944                   21350054.7464
 -36815932.27348 -28669272.13546  20909013.0084                   20909011.9384
 -55713931.89847 -43394256.44045  22090465.2504                   22090462.8324
 -19562199.74648 -15225178.72746  21780278.0394                   21780279.8484
 11  8 27  2 27  0.0000000  0  8G26G21G15G12G29G05G02G25
   2028406.72347   1602190.63745  22441548.4774   22441548.1724   24998987.98846
  19497178.91643                  24982303.4534                   24982304.5594
  13519281.55947  10556136.76745  23227854.3834                   23227853.7934
 -32664290.20747 -25434609.78145  22728816.3984                   22728816.2114
  -7151544.16848  -5552070.38646  21618186.3134                   21618186.1094
 -35275513.35548 -27468945.71346  21202144.9454                   21202143.9804
 -54190763.62147 -42207372.08045  22380314.3594                   22380312.1644
 -18041123.46148 -14039924.49146  22069729.4144                   22069731.0474
 11  8 27  2 27 30.0000000  0  8G26G21G15G12G29G05G02G25
   1855252.41047   1467265.27445  22408598.3054   22408598.2154   24847229.27346
  19378925.51343                  24953424.7894                   24953425.5904
  13328706.14847  10407636.59045  23191588.7814                   23191589.4654
 -32673659.27747 -25441910.35845  22727033.5704                   22727033.1484
  -7317680.10548  -5681526.91346  21586571.4454                   21586571.0124
 -35310159.05148 -27495942.36746  21195552.4304                   21195551.1954
 -54242913.95347 -42248008.70245  22370390.5554                   22370388.7464
 -18094993.10248 -14081900.84046  22059478.2424                   22059480.1644
 11  8 27  2 28  0.0000000  0  8G26G21G15G12G29G05G02G25
   1682473.17247   1332632.16745  22375719.2814   22375719.3404   24695471.88746
  19260673.11243                  24924546.3054                   24924546.6644
  13138248.96147  10259228.53145  23155345.7974                   23155346.8524
 -32682810.19547 -25449040.95445  22725292.3754                   22725292.3484
  -7483559.25448  -5810783.35146  21555005.7664                   21555005.4304
 -35344448.16448 -27522661.15246  21189026.9304                   21189025.6684
 -54294958.00447 -42288562.50045  22360487.2034                   22360484.3674
 -18148386.57848 -14123506.15546  22049317.7974                   22049319.5474
 11  8 27  2 28 30.0000000  0  8G26G21G15G12G29G05G02G25
   1510071.31647   1198293.13945  22342912.2894   22342912.2464   24543713.91047
  19142420.29643                  24895667.8444                   24895667.5904
  12947911.91047  10110914.07145  23119125.6884                   23119125.5704
 -32691747.66847 -25456005.20945  22723591.3364                   22723590.8324
  -7649180.00848  -5939838.42746  21523489.1254                   21523488.6254
 -35378384.32048 -27549104.91146  21182569.4144                   21182568.1954
 -54346896.60948 -42329034.14345  22350603.5554                   22350600.8014
 -18201307.36748 -14164743.13946  22039247.3444                   22039249.1524
 11  8 27  2 29  0.0000000  0  8G26G21G15G12G29G05G02G25
   1338051.05547   1064251.44645  22310177.1644   22310177.4574   24391955.47746
  19024167.10843                  24866789.0704                   24866788.7814
  12757698.50047   9962695.94844  23082929.5944                   23082929.5904
 -32700473.94147 -25462804.92045  22721930.8594                   22721930.4224
  -7814539.62948  -6068690.02246  21492022.3284                   21492021.9614
 -35411969.35548 -27575275.06546  21176178.2114                   21176177.0984
 -54398728.75447 -42369422.82445  22340740.1724                   22340737.5704
 -18253757.11348 -14205613.07046  22029266.6094                   22029268.4774
 11  8 27  2 29 30.0000000  0  8G26G21G15G12G29G05G02G25
   1166413.25847    930507.76845  22277516.0084   22277516.0554   24240193.06347
  18905910.80243                  24837909.7504                   24837908.8984
  12567609.05547   9814574.41445  23046756.6094                   23046756.5234
 -32708995.09447 -25469444.79445  22720309.3204                   22720309.1414
  -7979638.50048  -6197338.43946  21460604.9774                   21460604.2704
 -35445208.80148 -27601175.92946  21169852.9774                   21169851.6994
 -54450457.30948 -42409730.79045  22330896.3674                   22330893.6524
 -18305741.05948 -14246120.04446  22019374.0864                   22019375.9694
 11  8 27  2 30  0.0000000  0  8G26G21G15G12G29G05G02G25
    995161.49247    797064.91745  22244927.5554   22244927.9884   24088426.56646
  18787651.27743                  24809029.6884                   24809029.6054
  12377647.07847   9666552.18745  23010607.9844                   23010608.4144
 -32717313.68447 -25475926.83645  22718726.0314                   22718725.9414
  -8144473.87148  -6325781.53746  21429237.8984                   21429237.1294
 -35478104.66048 -27626809.06946  21163593.0784                   21163592.1644
 -54502081.20347 -42449957.20845  22321072.5004                   22321069.8324
 -18357261.12148 -14286265.55746  22009570.0864                   22009572.1844
 11  8 27  2 30 30.0000000  0  8G26G21G15G12G29G05G02G25
    824301.72347    663927.49845  22212414.1954   22212414.2424   23936657.43846
  18669389.69543                  24780149.1804                   24780147.7664
  12187817.66847   9518633.26245  22974484.7814                   22974484.2074
 -32725430.45747 -25482251.61545  22717181.5004                   22717181.6994
  -8309041.13348  -6454015.72046  21397921.6884                   21397921.0394
 -35510657.14548 -27652174.64246  21157398.5784                   21157397.4884
 -54553598.14847 -42490100.28645  22311269.5554                   22311266.4454
 -18408317.54348 -14326049.79246  21999854.7344                   21999856.5234
 11  8 27  2 31  0.0000000  0  8G26G21G15G12G29G05G02G25
    653837.34847    531098.18845  22179976.2114   22179975.6954   23784885.22746
  18551125.78343                  24751267.0704                   24751267.5594
  11998123.87147   9370820.02945  22938386.4534                   22938386.4064
 -32733349.33247 -25488422.18445  22715674.7504                   22715674.4384
  -8473338.53548  -6582039.62346  21366656.7664                   21366656.1994
 -35542868.84048 -27677274.66046  21151268.9774                   21151267.5864
 -54605007.78547 -42530159.72545  22301486.3134                   22301484.3444
 -18458912.83248 -14365474.68446  21990226.4534                   21990228.3714
 11  8 27  2 31 30.0000000  0  9G26G21G15G12G29G05G02G25G18
    483767.70747    398576.45845  22147612.6174   22147612.8204   23633105.43046
  18432855.90243                  24722384.6644                   24722384.7344
  11808564.63347   9223111.61545  22902314.8984                   22902315.3444
 -32741077.03947 -25494443.80245  22714204.3134                   22714204.0474
  -8637367.31248  -6709854.20546  21335443.2814                   21335442.4264
 -35574746.48048 -27702114.39046  21145202.5394                   21145201.7034
 -54656313.73447 -42570138.40145  22291723.0394                   22291720.7664
 -18509053.41848 -14404545.27946  21980685.4144                   21980687.2344
  29657609.42656  23131052.65553  24636114.9844                   24636116.8484
 11  8 27  2 32  0.0000000  0  9G26G21G15G12G29G05G02G25G18
    314091.27347    266361.12045  22115324.2894   22115324.3914   23481311.89546
  18314575.40443                  24693498.3984                   24693499.1804
  11619137.88347   9075506.44745  22866268.4064                   22866268.1844
 -32748621.76247 -25500322.81545  22712768.9924                   22712768.5274
  -8801130.27748  -6837461.66846  21304280.1254                   21304279.2344
 -35606297.71948 -27726699.76946  21139198.7814                   21139197.6764
 -54707521.12547 -42610040.24945  22281978.7424                   22281976.8914
 -18558746.99248 -14443267.54846  21971229.0314                   21971230.7464
  29472564.92246  22986862.42043  24600901.6644                   24600902.7544
 11  8 27  2 32 30.0000000  0  9G26G21G15G12G29G05G02G25G18
    144807.55547    134451.81245  22083110.5784   22083110.6684   23329500.77346
  18196281.17543                  24664609.9694                   24664610.7194
  11429842.87947   8928003.95245  22830246.0474                   22830246.6334
 -32755990.60947 -25506064.79545  22711366.3594                   22711366.2034
  -8964629.17248  -6964863.37146  21273167.3594                   21273166.4304
 -35637528.79748 -27751035.68446  21133255.9534                   21133254.6644
 -54758632.98447 -42649867.66845  22272252.5864                   22272250.1454
 -18607999.72348 -14481646.30246  21961856.2114                   21961858.2664
  29287688.58646  22842803.32442  24565720.4454                   24565722.3834
 11  8 27  2 33  0.0000000  0  9G26G21G15G12G29G05G02G25G18
    -24079.20748      2851.79245  22050972.3204   22050972.0234   23177671.85246
  18077972.98043                  24635717.5394                   24635718.1334
  11240683.48447   8780607.11545  22794250.4384                   22794250.7664
 -32763186.09847 -25511671.68945  22709997.2814                   22709997.0744
  -9127860.73448  -7092056.76046  21242105.5944                   21242104.1484
 -35668441.33248 -27775123.37546  21127373.2344                   21127371.9064
 -54809649.17647 -42689620.54645  22262544.3834                   22262542.1804
 -18656813.43448 -14519682.94446  21952567.4694                   21952569.1914
  29102982.06645  22698876.52342  24530571.8984                   24530573.0944
 11  8 27  2 33 30.0000000  0  9G26G21G15G12G29G05G02G25G18
   -192564.12547   -128435.09745  22018910.6334   22018910.6294   23025825.91046
  17959651.67143                  24606822.3754                   24606822.9964
  11051663.81347   8633319.15345  22758281.1644                   22758281.4144
 -32770209.53147 -25517144.50745  22708660.9924                   22708660.5514
  -9290821.09848  -7219038.82846  21211095.0784                   21211093.7974
 -35699036.48048 -27798963.76146  21121551.3754                   21121550.0274
 -54860567.11748 -42729296.84745  22252855.2274                   22252853.2074
 -18705189.10548 -14557378.27546  21943361.8054                   21943363.4734
  28918447.94145  22555084.03142  24495456.0164                   24495457.6054
 11  8 27  2 34  0.0000000  0  9G26G21G15G12G29G05G02G25G18
   -360641.24647   -259404.22345  21986926.8364   21986926.4454   22873964.84846
  17841318.48143                  24577924.1024                   24577924.9224
  10862789.60947   8486144.53045  22722339.4924                   22722339.2114
 -32777062.11747 -25522484.19445  22707356.6414                   22707356.6334
  -9453505.95748  -7345806.23446  21180136.9774                   21180135.8444
 -35729314.65648 -27822557.15246  21115789.5084                   21115788.4534
 -54911384.24648 -42768894.59445  22243184.8444                   22243182.7304
 -18753127.08248 -14594732.54746  21934239.1804                   21934241.4414
  28734089.78146  22411428.67543  24460373.8674                   24460375.1414
 11  8 27  2 34 30.0000000  0  9G26G21G15G12G29G05G02G25G18
   -528306.94148   -390052.73545  21955021.0634   21955020.4964   22722088.38746
  17722973.29543                  24549023.2504                   24549023.0904
  10674064.33647   8339085.96645  22686426.5394                   22686425.8054
 -32783746.43047 -25527692.76745  22706085.0554                   22706084.1294
  -9615912.50048  -7472356.75546  21149232.2504                   21149231.7854
 -35759277.94548 -27845905.16146  21110087.4534                   21110086.1804
 -54962099.94547 -42808413.30445  22233534.1954                   22233531.3954
 -18800629.41448 -14631747.34746  21925199.8594                   21925201.7344
  28549909.34446  22267911.73243  24425325.2974                   24425326.5084
 11  8 27  2 35  0.0000000  0  9G26G21G15G12G29G05G02G25G18
    879868.22347    707226.68945  22222988.0164   22222987.5704   24145621.61746
  18832219.99343                  24819912.3914                   24819912.4304
  12060917.42647   9419750.77445  22950335.5314                   22950335.2274
 -31214844.93447 -24305172.14945  23004636.9064                   23004636.5664
  -8202612.29348  -6371083.84446  21418174.1884                   21418173.8324
 -34213507.38348 -26641408.62446  21404238.0394                   21404236.4964
 -53437291.89547 -41620251.19245  22523695.2734                   22523692.6414
 -17272276.68448 -13440823.12846  22216035.8914                   22216037.5594
  29941334.44146  23352139.34443  24690105.2504                   24690105.9774
 11  8 27  2 35 30.0000000  0  9G26G21G15G12G29G05G02G25G18
    713038.12947    577229.26545  22191241.0314   22191240.9494   23993715.18046
  18713851.54743                  24791005.0784                   24791004.5984
  11872501.00447   9272932.88845  22914480.8054                   22914480.6914
 -31221199.11747 -24310123.48045  23003427.3364                   23003426.8984
  -8364452.46548  -6497193.04346  21387377.0944                   21387376.4144
 -34242845.96948 -26664269.86746  21398655.0004                   21398653.9694
 -53487801.35247 -41659609.20845  22514083.6564                   22514081.0904
 -17318912.96548 -13477163.08146  22207161.2974                   22207162.9964
  29757515.63746  23208904.25743  24655124.3914                   24655126.2114
 11  8 27  2 36  0.0000000  0  9G26G21G15G12G29G05G02G25G18
    546633.69547    447563.52745  22159575.0704   22159575.0864   23841795.93846
  18595472.92543                  24762096.6174                   24762095.0164
  11684246.68847   9126241.29145  22878657.0634                   22878657.3794
 -31227390.57847 -24314948.01245  23002249.5864                   23002249.1024
  -8526003.19948  -6623076.69146  21356635.1414                   21356634.0904
 -34271872.99648 -26686888.33546  21393131.3834                   21393129.9264
 -53538204.47747 -41698884.35645  22504492.3364                   22504489.7734
 -17365117.18448 -13513166.36146  22198369.0084                   22198370.6724
  29573882.18446  23065813.56943  24620179.9454                   24620181.2734
 11  8 27  2 36 30.0000000  0  9G26G21G15G12G29G05G02G25G18
    380655.85547    318230.22145  22127990.6484   22127990.3364   23689860.55946
  18477081.83343                  24733183.8674                   24733182.4804
  11496154.68447   8979676.18345  22842864.5864                   22842864.3094
 -31233425.02347 -24319650.18945  23001101.3834                   23001100.7274
  -8687264.78148  -6748735.05046  21325947.6334                   21325946.8054
 -34300593.80948 -26709268.19946  21387665.8674                   21387664.6764
 -53588503.42647 -41738078.33545  22494920.8674                   22494918.3054
 -17410894.65648 -13548837.09946  22189657.9144                   22189659.8134
  29390432.92246  22922866.37543  24585270.6334                   24585272.4414
 11  8 27  2 37  0.0000000  0  9G26G21G15G12G29G05G02G25G18
    215109.22347    189232.91545  22096488.1564   22096488.2464   23537909.76646
  18358678.71142                  24704267.6484                   24704268.0084
  11308229.41047   8833241.00745  22807102.8364                   22807103.1884
 -31239304.00847 -24324231.23345  22999982.9614                   22999982.5554
  -8848233.32848  -6874165.04446  21295316.2974                   21295315.7544
 -34329009.69548 -26731410.45546  21382258.5944                   21382257.1724
 -53638696.44947 -41777189.76145  22485369.5234                   22485366.8324
 -17456246.58648 -13584176.25846  22181027.3134                   22181029.1174
  29207170.10946  22780064.38043  24550396.6174                   24550398.1684
 11  8 27  2 37 30.0000000  0  9G26G21G15G12G29G05G02G25G18
     50000.03147     60576.45745  22065068.9454   22065068.3834   23385945.90246
  18240265.39542                  24675350.0314                   24675349.0004
  11120476.98447   8686940.48445  22771375.2504                   22771375.3164
 -31245028.07047 -24328691.54945  22998892.8754                   22998892.6454
  -9008903.70348  -6999362.71246  21264742.0394                   21264741.0944
 -34357120.34848 -26753314.86646  21376909.1644                   21376907.9344
 -53688780.47347 -41816216.28145  22475838.7274                   22475836.1414
 -17501172.84848 -13619183.72146  22172478.5084                   22172480.1024
  29024097.55546  22637410.64343  24515558.9774                   24515560.0634
 11  8 27  2 38  0.0000000  0  9G26G21G15G12G29G05G02G25G18
   -114670.95347    -67738.53745  22033733.3594   22033732.5314   23233965.75046
  18121839.43042                  24646428.2974                   24646428.3054
  10932897.66447   8540774.87045  22735680.0394                   22735680.0274
 -31250602.68447 -24333035.43845  22997832.3524                   22997831.8444
  -9169276.55548  -7124328.53346  21234223.8914                   21234223.2154
 -34384930.64148 -26774985.22146  21371617.1564                   21371616.1524
 -53738757.82047 -41855159.64945  22466328.2504                   22466325.6844
 -17545678.66048 -13653863.55546  22164009.1644                   22164011.1024
  28841214.12946  22494904.29943  24480757.3674                   24480758.6994
 11  8 27  2 38 30.0000000  0  9G26G21G15G12G29G05G02G25G18
   -278899.04747   -195708.43745  22002481.3444   22002480.9264   23081970.28946
  18003401.50343                  24617505.4614                   24617504.8794
  10745496.26247   8394747.89345  22700018.9844                   22700018.4654
 -31256029.69547 -24337264.27245  22996799.7814                   22996799.5554
  -9329348.04348  -7249059.52346  21203763.4454                   21203762.6994
 -34412441.82448 -26796422.51846  21366382.0864                   21366380.9884
 -53788626.34047 -41894018.25145  22456838.5554                   22456835.8914
 -17589765.26248 -13688216.74246  22155619.4304                   22155621.7774
  28658522.52746  22352547.35343  24445992.7664                   24445993.5704
 11  8 27  2 39  0.0000000  0  9G26G21G15G12G29G05G02G25G18
   -442679.94547   -323329.85145  21971314.7504   21971314.3484   22929959.70746
  17884951.87843                  24588578.4614                   24588577.9494
  10558276.14847   8248862.18245  22664391.8444                   22664391.7194
 -31261311.47747 -24341379.93945  22995794.8054                   22995794.3164
  -9489114.64848  -7373552.93546  21173360.5084                   21173359.7464
 -34439655.66448 -26817628.09946  21361203.6334                   21361202.1024
 -53838384.83247 -41932791.07245  22447370.2734                   22447367.3874
 -17633434.45748 -13722244.66846  22147309.8524                   22147311.6804
  28476024.56646  22210341.35443  24411263.9304                   24411264.1994
 11  8 27  2 39 30.0000000  0  9G26G21G15G12G29G05G02G25G18
   -606011.60247   -450601.22445  21940234.3674   21940233.3754   22777932.33247
  17766489.05043                  24559648.5634                   24559648.6134
  10371239.12147   8103119.11045  22628799.9454                   22628799.7274
 -31266452.23847 -24345385.75245  22994816.5084                   22994815.6844
  -9648575.76248  -7497808.30846  21143016.2114                   21143015.3554
 -34466575.93448 -26838604.92746  21356080.4924                   21356079.5664
 -53888034.78948 -41971479.35645  22437922.1644                   22437919.2934
 -17676690.18748 -13755950.42146  22139078.2274                   22139080.3874
  28293720.17246  22068286.14143  24376571.8524                   24376572.7814
 11  8 27  2 40  0.0000000  0  9G26G21G15G12G29G05G02G25G18
   -768890.69948   -577519.95645  21909238.9534   21909238.8484   22625887.57447
  17648012.70444                  24530715.7734                   24530715.2624
  10184388.91047   7957521.63545  22593243.5004                   22593243.0594
 -31271454.82447 -24349283.87344  22993864.0944                   22993863.7344
  -9807728.54748  -7621823.41746  21112730.4844                   21112729.6644
 -34493204.85948 -26859354.75946  21351013.3364                   21351012.5044
 -53937575.57447 -42010082.54145  22428494.4304                   22428491.7624
 -17719535.09848 -13789336.05646  22130925.6094                   22130927.4654
  28111610.69946  21926382.91443  24341917.6884                   24341918.3834
 11  8 27  2 40 30.0000000  0  9G26G21G15G12G29G05G02G25G18
   -931312.72748   -704082.52645  21878331.5554   21878330.6724   22473826.20347
  17529523.44944                  24501779.7504                   24501778.9964
   9997729.47347   7812072.80245  22557723.1564                   22557722.1254
 -31276321.36347 -24353076.00445  22992938.1484                   22992937.6804
  -9966569.51248  -7745595.54946  21082503.9144                   21082503.4454
 -34519544.07848 -26879878.81846  21346001.4534                   21346000.1334
 -53987005.48047 -42048599.36545  22419088.3674                   22419085.5904
 -17761970.60548 -13822402.67446  22122850.1254                   22122851.8874
  27929697.91046  21784632.86843  24307300.9454                   24307300.7114
 11  8 27  2 41  0.0000000  0  9G26G21G15G12G29G05G02G25G18
  -1093272.78547   -830285.11545  21847511.0084   21847510.7854   22321749.15247
  17411021.95644                  24472839.7664                   24472840.1414
   9811265.34446   7666776.15845  22522240.2814                   22522239.8524
 -31281053.69947 -24356763.54444  22992037.7274                   22992036.8754
 -10125094.87948  -7869121.77346  21052338.0234                   21052336.6334
 -34545594.68448 -26900177.99746  21341043.9694                   21341042.6484
 -54036322.39547 -42087028.14145  22409703.3594                   22409701.1134
 -17803997.93448 -13855151.23446  22114852.6954                   22114854.4654
  27747985.10546  21643038.57842  24272721.8284                   24272722.5084
 11  8 27  2 41 30.0000000  0  9G26G21G15G12G29G05G02G25G18
  -1254767.75447   -956125.29945  21816779.2734   21816778.8164   22169655.80947
  17292507.76943                  24443897.4694                   24443897.1454
   9624999.50847   7521634.02445  22486795.0314                   22486794.8834
 -31285655.05547 -24360349.02445  22991161.9924                   22991161.4264
 -10283302.53548  -7992400.40346  21022231.7424                   21022230.4884
 -34571359.03548 -26920254.10146  21336141.1804                   21336140.0234
 -54085526.44947 -42125368.94645  22400340.3754                   22400337.7504
 -17845620.07048 -13887584.05946  22106932.1254                   22106933.9534
  27566472.71146  21501600.57343  24238180.9844                   24238181.4494
 11  8 27  2 42  0.0000000  0  9G26G21G15G12G29G05G02G25G18
  -1415798.14847  -1081603.46145  21786136.1094   21786135.5634   22017541.91446
  17173977.59943                  24414951.1804                   24414950.9224
   9438931.37947   7376645.93345  22451387.5004                   22451386.7584
 -31290131.91047 -24363837.50045  22990310.6024                   22990310.0864
 -10441193.45747  -8115432.24646  20992185.8284                   20992184.8634
 -34596843.30948 -26940111.97046  21331291.6024                   21331290.4024
 -54134620.62947 -42163624.13845  22390998.2424                   22390994.9104
 -17886843.28148 -13919706.04646  22099087.7664                   22099089.5554
  27385158.84846  21360317.16543  24203678.1724                   24203678.3484
 11  8 27  2 42 30.0000000  0  9G26G21G15G12G29G05G02G25G18
  -1576356.99647  -1206714.20445  21755582.8594   21755582.1844   21865410.75446
  17055433.96343                  24386000.7034                   24386000.5164
   9253067.82447   7231817.27545  22416018.5164                   22416017.6024
 -31294483.32047 -24367228.26245  22989482.5084                   22989482.3284
 -10598762.13748  -8238212.98946  20962201.7504                   20962200.6024
 -34622046.48448 -26959750.78946  21326495.6334                   21326494.4924
 -54183601.05148 -42201790.70145  22381677.4304                   22381674.6564
 -17927666.68048 -13951516.47446  22091319.3594                   22091321.1844
  27204047.72346  21219191.80143  24169213.9064                   24169213.7664
 11  8 27  2 43  0.0000000  0  9G26G21G15G12G29G05G02G25G18
  -1736442.03547  -1331455.75045  21725119.7424   21725119.2344   21713260.63746
  16936875.60643                  24357047.4774                   24357047.3364
   9067410.60947   7087149.40045  22380688.7424                   22380688.4144
 -31298714.31647 -24370525.16445  22988677.6804                   22988676.8554
 -10756006.98848  -8360741.39846  20932278.7664                   20932277.7584
 -34646972.06248 -26979173.32046  21321752.3754                   21321751.5864
 -54232468.27748 -42239869.06045  22372378.5784                   22372375.8444
 -17968094.06247 -13983018.32346  22083625.8984                   22083628.0784
  27023139.57446  21078224.67343  24134787.5634                   24134787.6214
 11  8 27  2 43 30.0000000  0  9G26G21G15G12G29G05G02G25G18
   -320622.94947   -228220.04745  21994540.7274   21994540.7624   23136517.98446
  18045907.36043                  24627884.6174                   24627884.6134
  10457390.61347   8170250.77445  22645193.3754                   22645192.9304
 -29727405.92647 -23146129.04345  23287687.3594                   23287686.6994
  -9337498.95747  -7255410.42246  21202211.6954                   21202210.8554
 -33096200.03148 -25770779.51946  21616854.6174                   21616853.4964
 -52705798.85547 -41050256.50945  22662894.1724                   22662890.8674
 -16432705.22748 -12786611.43246  22375800.9694                   22375803.0514
  28417863.23447  22165022.51143  24400195.2424                   24400195.3714
 11  8 27  2 44  0.0000000  0  9G26G21G15G12G29G05G02G25G18
   -479750.30947   -352215.33445  21964260.3284   21964259.3984   22984328.96546
  17927318.62643                  24598924.1094                   24598922.7304
  10272155.60247   8025911.89845  22609944.1724                   22609943.9924
 -29731403.90647 -23149244.35945  23286926.7274                   23286926.2274
  -9494089.05148  -7377428.64146  21172413.6724                   21172412.3984
 -33120577.74248 -25789775.11946  21612215.4534                   21612214.4734
 -52754438.54747 -41088157.56245  22653638.1254                   22653635.4224
 -16472348.71548 -12817502.46446  22368257.0394                   22368259.1884
  28237364.45747  22024374.29543  24365847.0234                   24365847.6954
 11  8 27  2 44 30.0000000  0  9G26G21G15G12G29G05G02G25G18
   -638393.14847   -475833.08745  21934071.4384   21934070.8204   22832120.71546
  17808714.92543                  24569959.3364                   24569958.6094
  10087137.77747   7881742.22345  22574735.8984                   22574735.6334
 -29735289.40647 -23152272.05645  23286187.3984                   23286186.5554
  -9650347.29747  -7499188.27046  21142678.7034                   21142678.1374
 -33144684.23848 -25808559.37946  21607628.4844                   21607627.0864
 -52802962.52747 -41125968.45345  22644403.9224                   22644401.1844
 -16511603.34847 -12848090.49046  22360786.7814                   22360789.0354
  28057073.26647  21883887.83743  24331538.7424                   24331538.6884
 11  8 27  2 45  0.0000000  0  9G26G21G15G12G29G05G02G25G18
   -796548.00047   -599070.58745  21903975.4694   21903975.1134   22679893.03946
  17690096.07443                  24540991.7504                   24540990.6724
   9902339.90247   7737743.95545  22539571.2114                   22539570.0274
 -29739065.18047 -23155214.25045  23285468.9774                   23285468.3364
  -9806271.37947  -7620687.51746  21113007.0474                   21113006.3444
 -33168521.70348 -25827134.01246  21603091.9534                   21603091.0664
 -52851370.40247 -41163688.84945  22635192.1724                   22635189.7114
 -16550471.76247 -12878377.56146  22353390.2424                   22353392.3284
  27876990.87947  21743564.10443  24297270.3984                   24297269.8404
 11  8 27  2 45 30.0000000  0  9G26G21G15G12G29G05G02G25G18
   -954214.97747   -721927.91945  21873972.4774   21873971.8094   22527641.81646
  17571458.88543                  24512019.3134                   24512018.3444
   9717761.78947   7593916.91445  22504446.7814                   22504446.0514
 -29742737.61347 -23158075.89344  23284769.7344                   23284769.2934
  -9961861.77347  -7741926.74746  21083399.7344                   21083398.3164
 -33192096.46548 -25845503.94346  21598606.2344                   21598604.8054
 -52899665.06647 -41201321.06045  22626002.1334                   22625999.8524
 -16588960.18447 -12908368.52946  22346066.4064                   22346068.1564
  27697114.57847  21603400.90643  24263040.2034                   24263040.3984
 11  8 27  2 46  0.0000000  0  9G26G21G15G12G29G05G02G25G18
  -1111388.46547   -844400.71245  21844063.3284   21844062.7974   22375369.27347
  17452805.05044                  24483042.5314                   24483041.8014
   9533409.05147   7450265.50145  22469365.3984                   22469365.0234
 -29746307.08647 -23160857.32344  23284090.1254                   23284090.3204
 -10117114.01647  -7862902.49146  21053855.5314                   21053855.1724
 -33215408.37148 -25863669.04246  21594169.9144                   21594168.7544
 -52947843.48847 -41238862.69145  22616834.2504                   22616831.8364
 -16627068.90247 -12938063.63846  22338814.7344                   22338816.6684
  27517448.09847  21463401.29143  24228851.1024                   24228851.8554
 11  8 27  2 46 30.0000000  0  9G26G21G15G12G29G05G02G25G18
  -1268063.40247   -966485.00745  21814248.6254   21814248.4654   22223077.06347
  17334135.91144                  24454062.2114                   24454061.5594
   9349286.89547   7306793.76245  22434328.1484                   22434327.3874
 -29749774.63747 -23163559.33044  23283430.8594                   23283430.2234
 -10272023.68747  -7983611.28846  21024377.4694                   21024376.6414
 -33238457.26248 -25881629.19446  21589783.9614                   21589782.5704
 -52995903.70747 -41276312.20445  22607688.3364                   22607685.9774
 -16664798.79747 -12967463.55746  22331634.8134                   22331636.7034
  27337994.58246  21323567.58043  24194701.8134                   24194702.5314
 11  8 27  2 47  0.0000000  0  9G26G21G15G12G29G05G02G25G18
  -1424237.89847  -1088179.36945  21784530.0784   21784529.3984   22070763.07046
  17215449.77744                  24425078.3364                   24425077.3714
   9165396.80547   7163502.84445  22399335.0474                   22399333.9654
 -29753145.30546 -23166185.84244  23282788.4534                   23282788.6134
 -10426589.73047  -8104052.32946  20994964.3204                   20994963.6684
 -33261247.48848 -25899387.79446  21585447.0084                   21585445.4304
 -53043846.31247 -41313670.08045  22598565.1174                   22598562.7034
 -16702153.98847 -12996571.49246  22324526.5704                   22324528.0824
  27158753.82846  21183899.58543  24160593.4924                   24160593.3484
 11  8 27  2 47 30.0000000  0  9G26G21G15G12G29G05G02G25G18
  -1579908.40647  -1209481.01745  21754907.0164   21754906.3754   21918427.68046
  17096747.01544                  24396089.1484                   24396089.1174
   8981742.42647   7020395.62345  22364386.3134                   22364385.9494
 -29756421.27746 -23168738.57844  23282165.8444                   23282165.5514
 -10580809.42247  -8224223.47746  20965617.6174                   20965616.8594
 -33283781.30548 -25916946.58846  21581158.9224                   21581157.5314
 -53091670.39847 -41350935.61445  22589464.3914                   22589462.5274
 -16739136.84447 -13025389.29746  22317488.6884                   22317490.4654
  26979727.09846  21044398.45343  24126525.3594                   24126525.4614
 11  8 27  2 48  0.0000000  0  9G26G21G15G12G29G05G02G25G18
  -1735071.02347  -1330386.90045  21725380.3444   21725380.2114   21766070.92246
  16978027.53944                  24367096.6954                   24367096.1374
   8798327.58247   6877475.01745  22329483.5164                   22329483.4144
 -29759604.64546 -23171219.10344  23281559.9534                   23281559.7934
 -10734679.65647  -8344122.32446  20936336.7194                   20936335.7304
 -33306060.12948 -25934306.70046  21576919.3914                   21576918.2734
 -53139374.89547 -41388107.92645  22580386.4924                   22580384.4694
 -16775749.60547 -13053918.72145  22310521.9454                   22310523.5944
  26800916.23446  20905065.62843  24092498.7814                   24092497.9534
 11  8 27  2 48 30.0000000  0  9G26G21G15G12G29G05G02G25G18
  -1889723.35247  -1450895.14245  21695951.0004   21695950.3444   21613691.85546
  16859290.68143                  24338099.6254                   24338098.9144
   8615155.00447   6734743.19545  22294626.8284                   22294626.4534
 -29762698.99246 -23173630.31144  23280971.3674                   23280970.5164
 -10888198.76247  -8463747.56246  20907123.3054                   20907122.2664
 -33328087.00848 -25951470.49146  21572727.7424                   21572726.7774
 -53186960.02347 -41425187.23045  22571331.7734                   22571329.3834
 -16811995.62547 -13082162.37446  22303624.2274                   22303625.6374
  26622321.48846  20765900.99242  24058512.3444                   24058512.8834
 11  8 27  2 49  0.0000000  0  9G26G21G15G12G29G05G02G25G18
  -2043862.96547  -1571003.87845  21666618.9844   21666618.2234   21461289.38746
  16740535.71543                  24309097.2034                   24309098.3444
   8432226.90647   6592201.87745  22259816.9774                   22259816.0394
 -29765708.54346 -23175975.43245  23280398.4844                   23280397.8914
 -11041365.20748  -8583098.00147  20877976.6174                   20877975.9384
 -33349865.27748 -25968440.55446  21568583.6484                   21568581.9734
 -53234425.89147 -41462173.61645  22562299.2584                   22562297.1604
 -16847878.52047 -13110123.06945  22296795.7974                   22296798.0164
  26443943.35246  20626905.16443  24024568.0084                   24024567.6094
 11  8 27  2 49 30.0000000  0  9G26G21G15G12G29G05G02G25G18
  -2197486.51647  -1690710.49345  21637385.6024   21637384.9694   21308863.35945
  16621762.34143                  24280092.2504                   24280092.1954
   8249546.60247   6449853.65345  22225053.9534                   22225052.8834
 -29768635.80146 -23178256.43945  23279841.6804                   23279841.8834
 -11194176.08248  -8702171.35646  20848897.6884                   20848896.5824
 -33371396.85248 -25985218.39046  21564486.2974                   21564485.0434
 -53281771.74647 -41499066.47445  22553289.8834                   22553287.4534
 -16883400.80947 -13137802.78345  22290036.5234                   22290038.3364
  26265783.19946  20488079.24743  23990665.9454                   23990665.2664
 11  8 27  2 50  0.0000000  0  9G26G21G15G12G29G05G02G25G18
  -2350590.82447  -1810012.49345  21608250.5554   21608249.9774   21156413.20746
  16502970.09243                  24251081.0554                   24251081.4224
   8067117.30547   6307701.01345  22190339.5234                   22190338.3594
 -29771483.68447 -23180475.58445  23279300.1884                   23279299.9304
 -11346629.37548  -8820966.09247  20819886.4454                   20819885.7154
 -33392684.57448 -26001806.22046  21560435.2894                   21560433.7304
 -53328997.31247 -41535865.62945  22544302.5704                   22544300.3444
 -16918565.47747 -13165203.81645  22283344.8444                   22283346.1134
  26087841.76246  20349423.67043  23956805.0944                   23956803.4884
 11  8 27  2 50 30.0000000  0  9G26G21G15G12G29G05G02G25G18
  -2503171.34847  -1928906.36245  21579215.5004   21579214.9384   21003940.33646
  16384160.16843                  24222066.8984                   24222066.2154
   7884943.55147   6165747.49045  22155672.3364                   22155671.8594
 -29774253.64146 -23182634.02745  23278772.3284                   23278772.8554
 -11498720.69948  -8939478.75247  20790944.7814                   20790943.7154
 -33413728.54748 -26018204.10146  21556430.7894                   21556429.4184
 -53376100.43747 -41572569.35645  22535339.7344                   22535337.1334
 -16953373.56247 -13192326.99945  22276721.3754                   22276722.7814
  25910121.87946  20210940.80643  23922985.6094                   23922985.4924
 11  8 27  2 51  0.0000000  0  9G26G21G15G12G29G05G02G25G18
  -2655228.88347  -2047392.69545  21550280.0164   21550279.3404   20851440.13746
  16265328.94643                  24193047.5634                   24193046.7584
   7703024.39147   6023992.35845  22121054.0864                   22121053.7034
 -29776953.11746 -23184737.56244  23278258.8444                   23278258.9654
 -11650452.15248  -9057711.01146  20762071.1024                   20762070.1564
 -33434535.87548 -26034417.58846  21552471.1484                   21552469.8094
 -53423084.45747 -41609180.27245  22526398.7734                   22526396.2584
 -16987832.27747 -13219177.94345  22270163.9844                   22270165.9454
  25732620.56347  20072628.24243  23889208.2814                   23889208.3244
 11  8 27  2 51 30.0000000  0  9G26G21G15G12G29G05G02G25G18
  -1231332.41447   -937862.90745  21821238.3984   21821237.9494   22274340.86346
  17374082.83543                  24463816.8284                   24463815.5944
   9096792.46947   7110045.48345  22386279.4694                   22386278.6294
 -28204160.85946 -21959185.17844  23577551.8674                   23577551.3204
 -10226392.99248  -7948054.46746  21033060.5634                   21033059.3244
 -31879684.63348 -24822845.18146  21848349.0864                   21848348.3134
 -51894524.37948 -40418094.49445  22817274.2034                   22817271.3444
 -15446519.87547 -12018155.29345  22563465.5474                   22563467.1604
  27130768.07447  21162094.01143  24155266.7194                   24155266.2934
 11  8 27  2 52  0.0000000  0  9G26G21G15G12G29G05G02G25G18
  -1382331.77347  -1055524.70745  21792503.8364   21792503.1804   22121788.91446
  17255211.26344                  24434786.9384                   24434785.6174
   8915395.98847   6968697.63445  22351760.6414                   22351760.0434
 -28206723.54746 -21961182.13444  23577063.7584                   23577063.6454
 -10377393.70748  -8065717.32947  21004325.9144                   21004324.9654
 -31900021.83648 -24838692.35646  21844479.6484                   21844478.6954
 -51941265.44547 -40454516.10145  22808379.5314                   22808377.2464
 -15480284.52747 -12044465.41446  22557040.7194                   22557042.3444
  26953710.42247  21024127.10843  24121573.7274                   24121573.7074
 11  8 27  2 52 30.0000000  0  9G26G21G15G12G29G05G02G25G18
  -1532797.66047  -1172770.79445  21763871.0474   21763870.6994   21969210.10246
  17136318.75443                  24405752.2034                   24405750.5824
   8734265.02347   6827556.69945  22317292.3364                   22317292.1024
 -28209222.76246 -21963129.58644  23576588.0004                   23576587.9884
 -10528025.85248  -8183092.97747  20975661.8284                   20975660.3324
 -31920127.76248 -24854359.30346  21840653.3754                   21840651.7624
 -51987884.30547 -40490842.47145  22799507.5394                   22799505.5704
 -15513706.73847 -12070508.68945  22550680.5234                   22550682.5234
  26776875.81647  20886334.05043  24087923.0164                   24087923.3714
 11  8 27  2 53  0.0000000  0  9G26G21G15G12G29G05G02G25G18
  -1682724.16047  -1289596.61145  21735340.7344   21735340.4654   21816607.38747
  17017407.62143                  24376712.7424                   24376711.8714
   8553405.58647   6686627.30545  22282876.3914                   22282875.3954
 -28211658.46947 -21965027.59644  23576125.2034                   23576125.1334
 -10678284.09048  -8300177.25847  20947068.4224                   20947067.3134
 -31940002.04748 -24869845.76646  21836871.6174                   21836870.3094
 -52034377.93447 -40527071.27545  22790661.0314                   22790658.7034
 -15546786.64547 -12096285.25045  22544385.5084                   22544387.2934
  26600268.48447  20748718.12144  24054316.0554                   24054315.6294
 11  8 27  2 53 30.0000000  0  9G26G21G15G12G29G05G02G25G18
  -1832112.87547  -1406003.33645  21706913.4924   21706912.9414   21663976.01247
  16898474.15043                  24347667.5784                   24347666.8714
   8372816.69547   6545908.74745  22248511.1094                   22248509.8874
 -28214037.96547 -21966881.76544  23575671.6564                   23575671.6174
 -10828170.78548  -8416972.04647  20918545.5944                   20918544.7974
 -31959651.28548 -24885156.84946  21833132.3444                   21833131.1564
 -52080750.07847 -40563205.40445  22781836.3204                   22781833.7114
 -15579531.26247 -12121800.52445  22538154.6174                   22538155.9734
  26423884.43447  20611276.15844  24020751.0634                   24020750.7274
 11  8 27  2 54  0.0000000  0  9G26G21G15G12G29G05G02G25G18
  -1980958.91447  -1521987.22545  21678589.2194   21678588.4104   21511317.03146
  16779519.23743                  24318617.7504                   24318616.4884
   8192502.88747   6405404.54145  22214198.9144                   22214197.4414
 -28216362.66447 -21968693.28544  23575229.0864                   23575229.1994
 -10977681.50848  -8533473.86146  20890094.6414                   20890093.5084
 -31979076.30548 -24900293.21146  21829436.0084                   21829434.3164
 -52126998.57847 -40599243.18745  22773035.9614                   22773032.8324
 -15611942.05147 -12147055.67945  22531986.8834                   22531988.8404
  26247726.28947  20474010.22043  23987229.0554                   23987228.6564
 11  8 27  2 54 30.0000000  0  9G26G21G15G12G29G05G02G25G18
  -2129259.92247  -1637546.39145  21650368.2344   21650367.1884   21358629.71547
  16660542.17843                  24289562.2504                   24289561.0944
   8012466.81347   6265116.75745  22179938.8674                   22179937.9964
 -28218635.73847 -21970464.55444  23574797.4844                   23574796.6414
 -11126814.42648  -8649681.29446  20861715.3284                   20861714.6484
 -31998279.50448 -24915256.75146  21825781.4614                   21825780.4144
 -52173123.30947 -40635184.54145  22764258.9454                   22764255.8404
 -15644022.28547 -12172053.27945  22525882.2894                   22525884.3914
  26071795.00846  20336921.04943  23953750.7504                   23953749.9804
 11  8 27  2 55  0.0000000  0  9G26G21G15G12G29G05G02G25G18
  -2277012.46147  -1752678.19645  21622251.6884   21622250.9574   21205914.56347
  16541543.45343                  24260501.1724                   24260500.2344
   7832712.07847   6125048.18045  22145732.4064                   22145731.9804
 -28220860.10947 -21972197.84944  23574374.0004                   23574373.3164
 -11275567.04747  -8765592.38146  20833408.9534                   20833407.6604
 -32017263.54748 -24930049.50046  21822169.4144                   21822167.6414
 -52219123.38347 -40671028.73344  22755504.9224                   22755502.1724
 -15675774.55947 -12196795.31345  22519839.5634                   22519841.5634
  25896091.87146  20200009.64643  23920314.0554                   23920313.6374
 11  8 27  2 55 30.0000000  0  9G26G21G15G12G29G05G02G25G18
  -2424213.96947  -1867380.63445  21594240.0554   21594239.2584   21053170.35546
  16422522.10843                  24231435.0944                   24231433.8244
   7653241.64847   5985201.14745  22111580.6644                   22111579.6484
 -28223038.39547 -21973895.25144  23573959.6564                   23573959.4304
 -11423936.88347  -8881205.19946  20805175.0944                   20805173.6914
 -32036030.63748 -24944673.19446  21818598.0084                   21818596.7464
 -52264998.46947 -40706775.54045  22746775.1954                   22746772.4384
 -15707201.90247 -12221284.15645  22513859.7664                   22513861.3674
  25720617.41046  20063276.54743  23886923.2504                   23886922.3164
 11  8 27  2 56  0.0000000  0  9G26G21G15G12G29G05G02G25G18
  -2570863.05147  -1981652.60545  21566334.0784   21566332.9924   20900395.88747
  16303477.12843                  24202362.4694                   24202362.0594
   7474057.02347   5845576.82745  22077482.7424                   22077481.4924
 -28225175.14846 -21975560.26244  23573552.7424                   23573552.7664
 -11571923.36748  -8996519.30346  20777014.0394                   20777013.1804
 -32054584.67248 -24959130.88846  21815067.0944                   21815065.4344
 -52310749.43047 -40742425.65345  22738069.1724                   22738066.1564
 -15738308.75447 -12245523.26845  22507940.2974                   22507942.1804
  25545371.23446  19926721.20843  23853573.7734                   23853573.9024
 11  8 27  2 56 30.0000000  0  9G26G21G15G12G29G05G02G25G18
  -2716955.75048  -2095491.03045  21538533.1174   21538532.6094   20747591.52347
  16184408.89144                  24173285.0394                   24173283.9844
   7295162.57847   5706178.61245  22043440.0704                   22043438.9224
 -28227272.06646 -21977194.28744  23573153.7344                   23573153.9774
 -11719522.81648  -9111531.82046  20748926.7814                   20748925.4774
 -32072926.74648 -24973423.40946  21811576.9064                   21811575.2974
 -52356374.67647 -40777977.77044  22729386.8364                   22729383.9884
 -15769096.92647 -12269514.07245  22502081.3834                   22502083.1294
  25370355.34846  19790345.36943  23820270.2814                   23820269.6174
 11  8 27  2 57  0.0000000  0  9G26G21G15G12G29G05G02G25G18
  -2862490.55148  -2208894.72845  21510839.1644   21510837.9654   20594755.53947
  16065315.98643                  24144201.6094                   24144200.1844
   7116559.52747   5567007.47145  22009453.3444                   22009452.3554
 -28229333.82447 -21978800.91744  23572761.6174                   23572761.6484
 -11866734.60948  -9226242.28346  20720913.5474                   20720911.9024
 -32091060.98048 -24987553.96946  21808126.0474                   21808124.2624
 -52401875.48447 -40813432.94445  22720727.9454                   22720725.6764
 -15799571.03547 -12293260.12845  22496282.7034                   22496284.5084
  25195568.78946  19654148.16943  23787008.9924                   23787008.5204
 11  8 27  2 57 30.0000000  0  9G26G21G15G12G29G05G02G25G18
  -3007463.97748  -2321860.99245  21483251.0314   21483250.3524   20441888.84447
  15946199.18043                  24115112.2034                   24115110.7814
   6938252.23047   5428066.77145  21975522.1884                   21975521.4574
 -28231362.48846 -21980381.72544  23572375.4534                   23572375.5514
 -12013555.53548  -9340648.17546  20692974.2114                   20692972.8364
 -32108988.28148 -25001523.28446  21804714.3594                   21804712.9064
 -52447249.87947 -40848789.59944  22712093.5234                   22712091.4654
 -15829732.87547 -12316762.87345  22490543.1094                   22490544.8874
  25021013.91446  19518131.50843  23753792.7344                   23753791.8484
 11  8 27  2 58  0.0000000  0  9G26G21G15G12G29G05G02G25G18
  -3151871.16048  -2434386.03045  21455771.6414   21455770.5634   20288993.10947
  15827059.73144                  24086016.4454                   24086015.1294
   6760245.52747   5289360.29846  21941648.9384                   21941647.5704
 -28233358.98046 -21981937.49644  23571995.4064                   23571995.7504
 -12159981.64148  -9454746.40746  20665110.5004                   20665109.1684
 -32126709.59048 -25015332.07146  21801341.9694                   21801340.6954
 -52492495.87547 -40884046.22145  22703483.6094                   22703481.7934
 -15859583.68048 -12340023.25245  22484862.2814                   22484863.9734
  24846693.43847  19382297.52943  23720620.4384                   23720619.0704
 11  8 27  2 58 30.0000000  0  9G26G21G15G12G29G05G02G25G18
  -3295711.16447  -2546469.10945  21428399.3834   21428398.4304   20136066.07447
  15707895.85144                  24056915.4144                   24056913.8634
   6582540.94947   5150889.23746  21907832.8054                   21907831.7344
 -28235327.83247 -21983471.72044  23571621.2194                   23571620.8714
 -12306012.41048  -9568536.58246  20637321.4534                   20637320.2154
 -32144228.62148 -25028983.25846  21798008.6884                   21798007.1094
 -52537614.34447 -40919203.46145  22694897.8284                   22694895.7774
 -15889128.04347 -12363044.83145  22479240.5554                   22479242.0704
  24672606.57846  19246645.50643  23687492.8134                   23687491.6374
 11  8 27  2 59  0.0000000  0  9G26G21G15G12G29G05G02G25G18
  -3438983.63348  -2658109.95145  21401135.7584   21401134.9614   19983105.21147
  15588705.64943                  24027808.2974                   24027806.6134
   6405139.11747   5012654.09145  21874074.3444                   21874073.3834
 -28237274.27347 -21984988.48144  23571250.6804                   23571250.2384
 -12451647.37148  -9682018.32847  20609608.1414                   20609606.8014
 -32161550.16848 -25042480.57146  21794712.4384                   21794710.7344
 -52582607.44147 -40954263.00744  22686335.7664                   22686333.2814
 -15918371.33647 -12385831.80345  22473675.3834                   22473677.2304
  24498751.70347  19111174.29943  23654409.1484                   23654408.2544
 11  8 27  2 59 30.0000000  0  9G26G21G15G12G29G05G02G25G18
  -3581684.18448  -2769305.14645  21373980.8364   21373979.9774   19830111.50046
  15469489.88444                  23998693.8914                   23998692.7424
   6228044.36347   4874658.24246  21840374.0554                   21840373.4264
 -28239199.90247 -21986488.98644  23570883.8984                   23570883.9844
 -12596883.30548  -9795189.15547  20581970.5394                   20581969.4574
 -32178675.44148 -25055824.93346  21791453.1954                   21791452.1134
 -52627473.21147 -40989223.34644  22677797.8054                   22677795.5554
 -15947315.28547 -12408385.53445  22468167.7344                   22468168.9104
  24325130.99246  18975885.49943  23621370.1724                   23621368.7664
 11  8 27  3  0  0.0000000  0  9G26G21G15G12G29G05G02G25G18
  -2148386.29748  -1652449.60945  21646728.3524   21646727.6254   21252509.41846
  16577851.97343                  24269367.1644                   24269365.7504
   7626685.05547   5964508.18046  22106526.8204                   22106525.8054
 -26665687.96947 -20760375.83844  23870313.5784                   23870313.2734
 -11166293.42248  -8680443.76847  20854202.7664                   20854201.6254
 -30620186.54348 -23841417.99346  22088024.0554                   22088022.9104
 -51096790.19147 -39796483.34044  22969077.5164                   22969075.2814
 -14400542.43747 -11203107.98145  22762508.5084                   22762510.2304
  25727170.69946  20068384.08843  23888169.3594                   23888168.2734
 11  8 27  3  0 30.0000000  0  9G26G21G15G12G29G05G02G25G18
  -2289933.60548  -1762746.18045  21619792.5634   21619791.8324   21099451.51246
  16458586.16244                  24240241.5634                   24240240.0554
   7450215.41447   5826999.42746  22072945.6024                   22072944.3874
 -26667578.48847 -20761848.98344  23869954.2894                   23869953.7624
 -11310722.12548  -8792985.57947  20826719.0474                   20826717.9494
 -30636923.61348 -23854459.86146  22084838.8914                   22084837.7194
 -51141397.79347 -39831242.50845  22960588.7664                   22960586.8014
 -14428894.60947 -11225200.57645  22757113.2894                   22757115.5434
  25554022.86347  19933463.79043  23855220.3914                   23855218.7424
 11  8 27  3  1  0.0000000  0  9G26G21G15G12G29G05G02G25G18
  -2430899.57848  -1872589.74045  21592967.6884   21592966.8134   20946361.42646
  16339295.33843                  24211109.0164                   24211107.7424
   7274063.67247   5689738.37946  22039424.8524                   22039424.0234
 -26669455.27347 -20763311.39544  23869596.8204                   23869596.5864
 -11454743.26248  -8905209.80146  20799312.6414                   20799311.5354
 -30653469.64848 -23867352.86446  22081690.1414                   22081689.0984
 -51185874.90647 -39865899.97544  22952125.4534                   22952122.8014
 -14456954.75847 -11247065.63545  22751773.8444                   22751775.8834
  25381113.39546  19798729.26543  23822316.3594                   23822315.7624
 11  8 27  3  1 30.0000000  0  9G26G21G15G12G29G05G02G25G18
  -2571283.00848  -1981979.39345  21566253.1884   21566252.6644   20793238.02347
  16219978.38944                  24181970.7814                   24181969.4344
   7098231.53147   5552726.37245  22005965.1644                   22005964.1094
 -26671322.24647 -20764766.22044  23869241.8134                   23869240.9024
 -11598356.18748  -9017115.95147  20771983.8524                   20771983.0554
 -30669828.17648 -23880099.77446  22078577.3834                   22078576.0204
 -51230222.27347 -39900456.36845  22943687.0784                   22943683.7974
 -14484727.31247 -11268706.59145  22746489.0314                   22746490.4614
  25208441.33247  19664179.70044  23789458.3914                   23789457.7974
 11  8 27  3  2  0.0000000  0  9G26G21G15G12G29G05G02G25G18
  -2711078.96548  -2090911.27245  21539651.2424   21539650.2624   20640082.85247
  16100636.77144                  24152826.1024                   24152824.7734
   6922724.25847   5415967.50446  21972566.8834                   21972566.0864
 -26673180.19147 -20766213.98243  23868887.7194                   23868887.3984
 -11741556.15248  -9128700.30546  20744734.0394                   20744732.5314
 -30685999.14148 -23892700.52646  22075500.0234                   22075498.4774
 -51274437.26247 -39934909.61145  22935272.7584                   22935269.6524
 -14512212.98447 -11290123.98545  22741258.6804                   22741260.2894
  25036010.44146  19529818.07743  23756645.0944                   23756644.8674
 11  8 27  3  2 30.0000000  0  9G26G21G15G12G29G05G02G25G18
  -2850287.53948  -2199385.45245  21513160.8674   21513159.7384   20486893.32847
  15981268.42344                  24123674.8984                   24123673.7704
   6747542.04347   5279461.93346  21939231.1484                   21939230.0704
 -26675034.73447 -20767659.17144  23868535.0704                   23868535.0984
 -11884343.69548  -9239963.28947  20717562.2504                   20717561.2114
 -30701987.52748 -23905158.99846  22072457.9454                   22072456.3834
 -51318521.74647 -39969261.15444  22926883.5704                   22926880.9924
 -14539417.41447 -11311322.25845  22736081.6644                   22736083.9344
  24863818.50846  19395642.67244  23723878.1644                   23723877.6564
 11  8 27  3  3  0.0000000  0  9G26G21G15G12G29G05G02G25G18
  -2988905.65248  -2307399.51946  21486782.7424   21486781.8014   20333669.47347
  15861873.26344                  24094517.2664                   24094516.3754
   6572688.59447   5143212.53746  21905957.2114                   21905956.4064
 -26676887.97347 -20769103.31744  23868182.4534                   23868182.8054
 -12026716.05148  -9350902.76147  20690469.8754                   20690468.7274
 -30717795.37948 -23917476.80046  22069449.4694                   22069448.4304
 -51362474.77047 -40003510.26545  22918519.8364                   22918517.3444
 -14566343.18747 -11332303.37945  22730957.7974                   22730959.4384
  24691866.87946  19261654.47244  23691156.8914                   23691156.5124
 11  8 27  3  3 30.0000000  0  9G26G21G15G12G29G05G02G25G18
  -3126931.09048  -2414951.76446  21460516.8914   21460516.2114   20180410.98847
  15742451.19944                  24065353.4844                   24065352.1684
   6398166.74247   5007221.53146  21872747.0084                   21872746.1454
 -26678743.16046 -20770548.98544  23867828.7664                   23867829.6844
 -12168671.29348  -9461517.20347  20663456.4064                   20663455.5044
 -30733425.04348 -23929655.76446  22066475.8134                   22066474.1604
 -51406296.34847 -40037656.94845  22910180.7034                   22910178.3054
 -14592993.62147 -11353069.93445  22725886.3284                   22725888.0274
  24520156.26646  19127854.08743  23658481.5474                   23658480.8054
 11  8 27  3  4  0.0000000  0  9G26G21G15G12G29G05G02G25G18
  -3264363.03148  -2522041.54745  21434364.7034   21434363.8834   20027115.99247
  15623000.63544                  24036182.4304                   24036181.1954
   6223977.49647   4871489.69346  21839600.1094                   21839599.0554
 -26680604.74246 -20771999.65144  23867475.4454                   23867475.2464
 -12310208.73048  -9571806.08247  20636522.7344                   20636521.6054
 -30748880.14548 -23941698.70046  22063534.3054                   22063532.7504
 -51449987.57047 -40071702.06644  22901866.7034                   22901864.0784
 -14619373.40248 -11373625.64145  22720866.2584                   22720868.1914
  24348685.36346  18994240.52144  23625851.2734                   23625850.9804
 11  8 27  3  4 30.0000000  0  9G26G21G15G12G29G05G02G25G18
  -3401197.34447  -2628665.64846  21408325.9614   21408325.1094   19873786.14146
  15503522.91244                  24007004.7734                   24007003.2114
   6050125.59047   4736020.73546  21806516.9384                   21806516.1564
 -26682473.87546 -20773456.16944  23867119.3134                   23867119.9964
 -12451324.92248  -9681766.71547  20609669.1954                   20609667.9884
 -30764161.55547 -23953606.28246  22060626.4304                   22060625.6214
 -51493546.05947 -40105643.77045  22893577.9454                   22893575.3364
 -14645483.94547 -11393971.51545  22715897.8134                   22715899.6994
  24177456.67246  18860815.66944  23593267.6564                   23593267.2664
 11  8 27  3  5  0.0000000  0  9G26G21G15G12G29G05G02G25G18
  -3537431.44547  -2734822.05645  21382401.4694   21382400.7854   19720420.87947
  15384017.58144                  23977819.5784                   23977818.7074
   5876614.28548   4600817.17546  21773498.5164                   21773497.7894
 -26684353.61347 -20774920.93544  23866762.2664                   23866762.2114
 -12592017.45748  -9791397.24147  20582896.1724                   20582895.6334
 -30779271.58247 -23965380.33946  22057751.2894                   22057749.5354
 -51536971.47747 -40139481.73945  22885314.3444                   22885311.6644
 -14671328.28547 -11414109.96145  22710979.8984                   22710981.5514
  24006471.29746  18727580.38544  23560730.4454                   23560729.8364
 11  8 27  3  5 30.0000000  0  9G26G21G15G12G29G05G02G25G18
  -3673063.27748  -2840509.14746  21356591.4924   21356590.1414   19567020.03147
  15264484.53744                  23948628.9144                   23948627.2194
   5703446.07048   4465880.93646  21740546.2424                   21740544.6294
 -26686246.87147 -20776396.22144  23866401.6174                   23866401.8204
 -12732284.40248  -9900696.12647  20556204.3284                   20556202.9414
 -30794212.89848 -23977022.92546  22054907.6644                   22054906.8364
 -51580263.48847 -40173215.78245  22877075.8524                   22877072.8674
 -14696909.70747 -11434043.55145  22706111.7664                   22706113.6914
  23835729.37546  18594534.85144  23528238.9614                   23528238.4144
 11  8 27  3  6  0.0000000  0  9G26G21G15G12G29G05G02G25G18
  -3808090.22348  -2945724.92046  21330896.2664   21330896.0164   19413583.21947
  15144923.46944                  23919430.6024                   23919429.1884
   5530624.16848   4331214.57046  21707659.0554                   21707658.1764
 -26688156.24247 -20777884.15644  23866038.7034                   23866038.6484
 -12872123.50048 -10009661.63447  20529593.9614                   20529592.6524
 -30808987.46548 -23988535.57846  22052096.2034                   22052094.9304
 -51623421.42647 -40206845.35744  22868863.4924                   22868861.0084
 -14722231.15248 -11453774.54345  22701293.2814                   22701295.3634
  23665231.68846  18461679.59844  23495794.2034                   23495793.1844
 11  8 27  3  6 30.0000000  0  9G26G21G15G12G29G05G02G25G18
  -3942509.25048  -3050466.98145  21305317.6414   21305316.6724   19260110.85546
  15025334.70144                  23890225.6414                   23890224.2704
   5358152.07848   4196820.76246  21674838.4224                   21674837.6884
 -26690083.98447 -20779386.33944  23865671.9384                   23865671.8164
 -13011532.01648 -10118291.62147  20503065.3444                   20503064.0514
 -30823596.63747 -23999919.34045  22049316.4454                   22049315.1454
 -51666444.06647 -40240369.48544  22860676.3364                   22860673.9654
 -14747295.01647 -11473304.82745  22696523.9614                   22696525.6094
  23494979.98847  18329016.00444  23463396.2274                   23463394.9844
 11  8 27  3  7  0.0000000  0  9G26G21G15G12G29G05G02G25G18
  -4076317.90247  -3154733.42646  21279854.7274   21279853.3914   19106602.75447
  14905718.09644                  23861014.3444                   23861012.6914
   5186032.87948   4062701.94446  21642085.4064                   21642084.4344
 -26692032.85947 -20780904.99344  23865301.1884                   23865300.6334
 -13150507.70348 -10226584.35047  20476618.9694                   20476617.8834
 -30838042.64547 -24011175.98546  22046567.4224                   22046565.6334
 -51709331.05947 -40273787.94844  22852515.4384                   22852512.2584
 -14772104.38347 -11492636.82045  22691802.3674                   22691804.3204
  23324974.98447  18196544.64744  23431046.0554                   23431044.8324
 11  8 27  3  7 30.0000000  0  9G26G21G15G12G29G05G02G25G18
  -4209513.08648  -3258521.85845  21254508.0704   21254507.2934   18953060.33247
  14786074.70944                  23831795.5864                   23831794.4224
   5014270.68048   3928861.31446  21609400.2424                   21609398.8014
 -26694004.18747 -20782441.11144  23864925.9774                   23864925.6954
 -13289047.26248 -10334537.21947  20450255.9924                   20450254.6254
 -30852326.66847 -24022306.38045  22043849.0004                   22043848.1334
 -51752080.63747 -40307099.33044  22844380.1334                   22844377.3244
 -14796661.16447 -11511771.99145  22687129.8054                   22687131.7234
  23155218.19946  18064266.71644  23398741.3134                   23398740.9184
 11  8 27  3  8  0.0000000  0  9G26G21G15G12G29G05G02G25G18
  -2766670.65647  -2134229.01146  21529072.0474   21529071.0234   20374905.30947
  15894005.93044                  24102364.1564                   24102362.7194
   6418291.02048   5022903.18046  21876576.4304                   21876575.3324
 -25120583.98847 -19556399.44144  24164338.0554                   24164337.9924
 -11851727.00448  -9214547.38447  20723768.7034                   20723767.6374
 -29291033.40647 -22805714.21245  22340953.2194                   22340951.7194
 -50219273.72747 -39112704.33944  23136063.6414                   23136061.0474
 -13245550.46947 -10303114.30745  22982296.5234
  22982298.0434   24561133.22746  19159784.98944  23666278.4454   23666277.2504
 11  8 27  3  8 30.0000000  0  9G26G21G15G12G29G05G02G25G18
  -2898633.34848  -2237057.04846  21503960.5554   21503959.5354   20221291.01647
  15774306.57444                  24073132.2034                   24073129.9924
   6247249.46948   4889624.08346  21844028.1484                   21844027.1804
 -25122611.41446 -19557979.30844  24163951.7194                   24163952.0784
 -11989389.79748  -9321817.08247  20697572.3054                   20697571.1564
 -29305001.96147 -22816598.81246  22338295.1804                   22338293.9264
 -50261748.68047 -39145801.70844  23127980.8204                   23127978.5474
 -13269613.07047 -10321864.38145  22977717.3834
  22977719.3484   24391873.37947  19027894.27144  23634069.5554   23634068.4454
 11  8 27  3  9  0.0000000  0  9G26G21G15G12G29G05G02G25G18
  -3029977.94148  -2339403.44946  21478966.1564   21478965.5124   20067639.48447
  15654578.14644                  24043893.1564                   24043891.3324
   6076571.34048   4756628.17746  21811549.2894                   21811548.1954
 -25124672.31247 -19559585.28643  24163560.0634                   24163559.9774
 -12126612.59048  -9428743.90447  20671459.7664                   20671458.3914
 -29318817.77747 -22827364.38246  22335665.9304                   22335664.8094
 -50304087.14847 -39178792.74144  23119924.2034                   23119921.1564
 -13293434.75447 -10340426.77445  22973184.4694
  22973186.3244   24222861.59847  18896196.87744  23601907.4144   23601906.5234
 11  8 27  3  9 30.0000000  0  9G26G21G15G12G29G05G02G25G18
  -3160701.22748  -2441265.71646  21454090.4304   21454089.6914   19913951.29347
  15534821.21844                  24014647.2664                   24014645.5084
   5906260.78948   4623918.70646  21779140.3364                   21779138.9454
 -25126768.19147 -19561218.47143  24163160.7424                   24163161.3284
 -12263392.50848  -9535325.64347  20645431.4224                   20645430.4224
 -29332481.89547 -22838011.75046  22333066.0394                   22333065.0824
 -50346287.55546 -39211676.14444  23111893.7194                   23111890.5594
 -13317017.59047 -10358803.03445  22968696.5634
  22968698.5394   24054099.41847  18764693.95843  23569792.9694   23569792.0904
 11  8 27  3 10  0.0000000  0  9G26G21G15G12G29G05G02G25G18
  -3290798.89548  -2542640.49145  21429333.3444   21429332.9304   19760228.44947
  15415037.23044                  23985394.1094                   23985393.0984
   5736322.23048   4491499.08746  21746801.8754                   21746800.2774
 -25128900.10946 -19562879.73543  24162755.3754                   24162755.2934
 -12399725.53148  -9641559.15047  20619488.1414                   20619486.9264
 -29345994.38747 -22848540.97146  22330494.8914                   22330493.4184
 -50388347.53146 -39244450.18144  23103890.2194                   23103886.6604
 -13340362.64847 -10376994.01645  22964254.5234
  22964256.3364   23885589.44947  18633387.54044  23537726.5944   23537725.7074
 11  8 27  3 10 30.0000000  0  9G26G21G15G12G29G05G02G25G18
  -3420268.75448  -2643526.04645  21404696.7734   21404695.4804   19606470.34847
  15295225.82344                  23956135.2734                   23956133.5904
   5566758.59448   4359371.61546  21714534.8284                   21714533.5944
 -25131070.53146 -19564570.99043  24162342.5314                   24162342.3714
 -12535609.21148  -9747442.51247  20593630.2274                   20593629.0594
 -29359357.57447 -22858953.83845  22327951.8204                   22327950.7774
 -50430266.38747 -39277114.25544  23095913.4774                   23095910.9344
 -13363473.08647 -10395002.16245  22959856.6644
  22959858.0474   23717332.26647  18502278.18643  23505708.1094   23505706.8984
 11  8 27  3 11  0.0000000  0  9G26G21G15G12G29G05G02G25G18
  -3549112.28948  -2743923.57146  21380178.0164   21380177.1414   19452674.14547
  15175384.69544                  23926868.9924                   23926867.3524
   5397569.88748   4227536.30146  21682339.1334                   21682338.4304
 -25133285.80546 -19566297.26043  24161920.6334                   24161921.3914
 -12671044.59048  -9852976.55347  20567857.6094                   20567856.4734
 -29372576.92647 -22869254.63046  22325436.1644                   22325435.2034
 -50472046.73447 -39309670.36444  23087962.6174                   23087959.9804
 -13386355.13348 -10412832.34945  22955502.2974
  22955504.2114   23549325.51247  18371363.87144  23473737.5944   23473736.2464
 11  8 27  3 11 30.0000000  0  9G26G21G15G12G29G05G02G25G18
  -3677326.88348  -2843831.02546  21355779.5784   21355779.0704   19298839.23446
  15055513.39944                  23897594.8444                   23897593.1134
   5228758.59848   4095995.07146  21650215.7344                   21650213.9614
 -25135548.67646 -19568060.56243  24161490.4534                   24161490.5004
 -12806030.42648  -9958160.30447  20542170.5944                   20542169.5274
 -29385654.46547 -22879444.90646  22322947.6254                   22322946.1914
 -50513688.32447 -39342118.36844  23080038.8284                   23080035.5234
 -13409011.99247 -10430487.07545  22951190.8284
  22951192.5084   23381569.79747  18240645.21044  23441814.8054   23441813.6644
 11  8 27  3 12  0.0000000  0  9G26G21G15G12G29G05G02G25G18
  -3804908.32048  -2943245.08546  21331501.6724   21331501.0234   19144968.33647
  14935614.05144                  23868313.4454                   23868312.4574
   5060330.18048   3964752.19246  21618164.4304                   21618163.4144
 -25137859.46147 -19569861.29444  24161050.8134                   24161051.0234
 -12940561.51648 -10062989.69347  20516570.5474                   20516569.3324
 -29398589.80947 -22889524.40445  22320486.0634                   22320484.6134
 -50555188.07447 -39374455.83844  23072141.2974                   23072138.4534
 -13431444.07047 -10447966.62845  22946922.4534
  22946923.8054   23214068.01647  18110124.43844  23409939.6724   23409938.4494
 11  8 27  3 12 30.0000000  0  9G26G21G15G12G29G05G02G25G18
  -3931854.82847  -3042164.41346  21307344.4384   21307343.8134   18991060.85947
  14815686.20744                  23839026.2734                   23839024.3634
   4892287.06348   3833809.55446  21586187.3444                   21586186.1804
 -25140221.10247 -19571701.56744  24160601.6564                   24160601.0984
 -13074636.78948 -10167463.91547  20491056.6094                   20491055.1994
 -29411385.75847 -22899495.25345  22318050.9844                   22318049.4064
 -50596546.17246 -39406682.93644  23064270.8444                   23064267.7734
 -13453655.21548 -10465274.03345  22942695.5084
  22942697.0944   23046820.23047  17979801.55344  23378113.1884   23378112.6024
 11  8 27  3 13  0.0000000  0  9G26G21G15G12G29G05G02G25G18
  -4058164.44947  -3140587.45446  21283308.5554   21283307.6954   18837117.00447
  14695730.01844                  23809731.8284                   23809730.3594
   4724632.08248   3703169.35046  21554283.2584                   21554282.2304
 -25142636.11747 -19573583.47244  24160141.7114                   24160142.0744
 -13208253.75848 -10271581.01047  20465630.4064                   20465628.8324
 -29424044.18447 -22909358.96845  22315642.2504                   22315641.0904
 -50637761.76647 -39438798.97144  23056427.9694                   23056425.3364
 -13475648.27047 -10482411.47945  22938510.7114
  22938511.8404   22879827.19947  17849677.23744  23346336.0474   23346334.5514
 11  8 27  3 13 30.0000000  0  9G26G21G15G12G29G05G02G25G18
  -4183837.88348  -3238514.77746  21259393.7734   21259392.9064   18683133.50846
  14575742.96144                  23780429.6804                   23780428.4534
   4557365.57048   3572831.84246  21522453.6804                   21522452.4694
 -25145110.09447 -19575511.30844  24159670.8284                   24159670.9574
 -13341412.91448 -10375341.37247  20440290.9454                   20440289.5234
 -29436570.24647 -22919119.53345  22313258.3524                   22313257.1134
 -50678837.14546 -39470805.77544  23048611.8754                   23048609.1644
 -13497429.14147 -10499383.60145  22934365.4064
  22934367.4734   22713086.72747  17719749.67244  23314606.3444   23314605.0474
 11  8 27  3 14  0.0000000  0  9G26G21G15G12G29G05G02G25G18
  -4308871.71948  -3335943.70746  21235600.8204   21235599.4264   18529111.53946
  14455725.95444                  23751119.7114                   23751119.0204
   4390491.32048   3442800.00946  21490698.2034                   21490697.4264
 -25147643.97746 -19577485.79944  24159189.2584                   24159188.7114
 -13474111.72348 -10478743.01647  20415039.1414                   20415037.7584
 -29448964.43447 -22928777.33945  22310899.9304                   22310898.8164
 -50719770.41047 -39502701.83044  23040822.3754                   23040819.4884
 -13518999.50847 -10516191.68945  22930261.1724
  22930262.2544   22546600.87147  17590020.48444  23282924.9694   23282923.6724
 11  8 27  3 14 30.0000000  0  9G26G21G15G12G29G05G02G25G18
  -4433264.18747  -3432872.87846  21211929.5234   21211928.3914   18375051.21546
  14335679.05044                  23721803.4224                   23721801.9024
   4224012.63348   3313076.39946  21459018.6644                   21459017.5664
 -25150240.98846 -19579509.51644  24158695.0314                   24158694.2584
 -13606347.66848 -10581783.99047  20389875.4694                   20389873.9964
 -29461228.96947 -22938334.11345  22308566.3834                   22308565.1054
 -50760560.99646 -39534486.70344  23033060.2584                   23033057.8364
 -13540362.38347 -10532838.10045  22926195.4774
  22926197.0354   22380370.27347  17460490.25044  23251291.9924   23251291.3634
 11  8 27  3 15  0.0000000  0  9G26G21G15G12G29G05G02G25G18
  -4557014.00448  -3529301.28046  21188380.9144   21188379.8164   18220952.02047
  14215601.80244                  23692478.7664                   23692477.9344
   4057931.24248   3183662.37246  21427414.3984                   21427413.4774
 -25152904.66046 -19581585.14544  24158187.6954                   24158188.0594
 -13738119.93448 -10684463.66347  20364799.9614                   20364798.4024
 -29473366.85247 -22947792.19645  22306256.3914                   22306255.3484
 -50801209.33647 -39566160.77144  23025324.7664                   23025322.3794
 -13561521.88347 -10549326.02145  22922169.5004
  22922170.7504   22214394.36347  17331158.44944  23219708.0784   23219707.0314
 11  8 27  3 15 30.0000000  0  9G26G21G15G12G29G05G02G25G18
  -4680119.05948  -3625227.25946  21164954.6414   21164953.8054   18066813.54746
  14095493.98044                  23663147.4694                   23663146.2194
   3892250.22748   3054560.33246  21395886.2894                   21395884.9884
 -25155637.39846 -19583714.64144  24157668.4774                   24157668.1414
 -13869426.11348 -10786780.13247  20339813.1564                   20339811.9264
 -29485379.74247 -22957152.88745  22303970.3594                   22303968.9774
 -50841714.83246 -39597723.50844  23017617.2584                   23017614.8094
 -13582480.82047 -10565657.69245  22918180.9614
  22918182.9344   22048673.95347  17202025.77044  23188172.5394   23188171.5634
 11  8 27  3 16  0.0000000  0  9G26G21G15G12G29G05G02G25G18
  -4802577.48448  -3720649.38046  21141651.6024   21141650.3204   17912636.10546
  13975355.77844                  23633808.8134                   23633807.4414
   3726972.34048   2925772.39246  21364434.6174                   21364433.5434
 -25158441.38346 -19585899.59744  24157134.4064                   24157134.3634
 -14000264.09448 -10888731.80347  20314915.5634                   20314914.2774
 -29497270.14147 -22966418.13245  22301708.1414                   22301706.1564
 -50882076.61747 -39629174.26944  23009936.8054                   23009933.9574
 -13603242.14848 -10581835.35545  22914230.1024
  22914231.8834   21883209.82047  17073092.71844  23156685.4694   23156684.4844
 11  8 27  3 16 30.0000000  0  9G26G21G15G12G29G05G02G25G18
  -3348962.28948  -2587962.19546  21418264.9384   21418264.2504   19333845.78147
  15082791.97344                  23904255.9844                   23904254.5434
   5137527.05548   4024905.98346  21632854.4694                   21632853.3634
 -23585898.34046 -18360541.47643  24456378.9924                   24456379.2814
 -12555206.63748  -9762712.97947  20589900.9774                   20589899.6684
 -27933617.91447 -21747987.80645  22599260.8524                   22599259.5744
 -49346871.96147 -38432910.93144  23302076.2034                   23302074.1214
 -12048387.26247  -9370260.14845  23210109.4774                   23210111.3364
  23293428.85547  18171964.80044  23425041.8594                   23425040.1954
 11  8 27  3 17  0.0000000  0  9G26G21G15G12G29G05G02G25G18
  -3470121.48448  -2682371.93446  21395209.1334   21395208.3014   19179590.71947
  14962593.30144                  23874901.7504                   23874900.4534
   4973064.50848   3896753.39446  21601558.0944                   21601557.4734
 -23588852.46946 -18362843.45943  24455817.5394                   24455817.7344
 -12685102.18048  -9863930.26247  20565182.5704                   20565181.2154
 -27945267.90247 -21757065.71445  22597043.6024                   22597042.7504
 -49386944.58646 -38464136.36144  23294450.6564                   23294448.6454
 -12068762.28547  -9386136.78045  23206231.7504                   23206234.1954
  23128479.13747  18043432.58244  23393652.4304                   23393651.3284
 11  8 27  3 17 30.0000000  0  9G26G21G15G12G29G05G02G25G18
  -3590630.71548  -2776275.21546  21372277.3834   21372276.3874   19025294.64546
  14842362.68744                  23845540.4304                   23845539.0354
   4809011.16048   3768919.65646  21570339.9694                   21570338.7464
 -23591888.07046 -18365208.90343  24455239.1484                   24455239.5704
 -12814526.00848  -9964779.98647  20540554.1024                   20540552.7854
 -27956803.11747 -21766054.19845  22594848.8444                   22594847.5474
 -49426874.27747 -38495250.43244  23286852.8284                   23286849.8054
 -12088951.03947  -9401868.32545  23202390.0164                   23202391.8054
  22963785.41047  17915099.86644  23362312.7114                   23362310.8954
 11  8 27  3 18  0.0000000  0  9G26G21G15G12G29G05G02G25G18
  -3710486.78148  -2869669.52746  21349469.3134   21349468.5744   18870958.57047
  14722100.90444                  23816171.1174                   23816169.3444
   4645371.82848   3641408.51446  21539200.6804                   21539199.0004
 -23595006.27046 -18367638.75243  24454646.3054                   24454645.9494
 -12943474.84448 -10065259.57547  20516015.9924                   20516014.6484
 -27968224.25847 -21774953.76845  22592675.6254                   22592673.7734
 -49466658.81246 -38526251.38544  23279281.9534                   23279278.9614
 -12108955.21948  -9417456.00845  23198583.5164                   23198585.7234
  22799349.12547  17786967.79544  23331020.9924                   23331019.3094
 11  8 27  3 18 30.0000000  0  9G26G21G15G12G29G05G02G25G18
  -3829686.80148  -2962552.63246  21326786.3524   21326785.3404   18716583.80147
  14601808.97244                  23786794.4224                   23786792.6884
   4482150.03148   3514222.74046  21508140.1564                   21508138.6764
 -23598208.68746 -18370134.16143  24454037.3754                   24454036.4384
 -13071945.53548 -10165366.59247  20491568.7504                   20491567.3244
 -27979532.23447 -21783765.17445  22590523.7664                   22590522.1054
 -49506296.84047 -38557138.18844  23271739.2344                   23271736.7934
 -12128776.77348  -9432901.37645  23194811.7344                   23194813.8014
  22635172.00847  17659037.61344  23299779.0944                   23299777.6484
 11  8 27  3 19  0.0000000  0  9G26G21G15G12G29G05G02G25G18
  -3948228.11748  -3054922.46546  21304228.5474   21304227.4844   18562171.41047
  14481487.69744                  23757411.1484                   23757409.1684
   4319349.61348   3387365.30246  21477160.1484                   21477159.2894
 -23601496.70746 -18372696.36243  24453411.5704                   24453412.0394
 -13199935.02348 -10265098.64547  20467212.8754                   20467211.6134
 -27990728.25847 -21792489.34645  22588393.3134                   22588392.1684
 -49545786.62547 -38587909.47244  23264223.9144                   23264221.5274
 -12148417.79347  -9448206.09945  23191074.1484                   23191076.0824
  22471255.40247  17531310.44244  23268587.0704                   23268585.6484
 11  8 27  3 19 30.0000000  0  9G26G21G15G12G29G05G02G25G18
  -4066110.94948  -3146779.20446  21281796.0634   21281795.0984   18407719.13347
  14361135.33344                  23728019.5944                   23728017.2584
   4156970.81648   3260836.40246  21446260.6564                   21446259.7074
 -23604875.10946 -18375328.94643  24452768.2814                   24452768.6764
 -13327443.83248 -10364456.14647  20442948.9774                   20442947.5514
 -28001816.39547 -21801129.46845  22586282.7664                   22586281.8834
 -49585129.78546 -38618566.51844  23256737.0554                   23256734.8714
 -12167883.61747  -9463374.30645  23187370.1884                   23187371.8014
  22307597.80947  17403785.09944  23237443.5704                   23237442.0164
 11  8 27  3 20  0.0000000  0  9G26G21G15G12G29G05G02G25G18
  -4183335.75448  -3238123.17746  21259488.9844   21259487.8914   18253225.66847
  14240750.89344                  23698620.4454                   23698618.3054
   3995015.04347   3134637.14346  21415441.5004                   21415440.1994
 -23608348.15246 -18378035.29943  24452107.8594                   24452108.3634
 -13454471.69948 -10463438.88747  20418776.2194                   20418774.9774
 -28012799.99247 -21809688.11645  22584193.0314                   22584191.7074
 -49624327.65247 -38649110.34544  23249278.5084                   23249275.4064
 -12187178.80947  -9478409.55045  23183697.8914                   23183700.2814
  22144198.48447  17276460.99044  23206349.7814                   23206348.0044
 11  8 27  3 20 30.0000000  0  9G26G21G15G12G29G05G02G25G18
  -4299898.14148  -3328950.98946  21237308.1884   21237307.1804   18098693.44547
  14120336.25544                  23669213.9224                   23669211.9064
   3833487.63748   3008771.66146  21384703.7114                   21384702.5904
 -23611915.76246 -18380815.30343  24451428.5634                   24451429.8954
 -13581014.80548 -10562043.89247  20394695.8674                   20394694.7544
 -28023678.74247 -21818165.05845  22582123.2194                   22582121.2074
 -49663377.28946 -38679538.66344  23241847.4224                   23241845.4734
 -12206303.96147  -9493312.27345  23180059.1414                   23180061.0394
  21981059.85547  17149340.07244  23175305.5634                   23175304.3204
 11  8 27  3 21  0.0000000  0  9G26G21G15G12G29G05G02G25G18
  -4415798.35248  -3419262.81246  21215252.8364   21215252.2344   17944120.55947
  13999889.93544                  23639799.2344                   23639798.0004
   3672389.26248   2883240.49446  21354047.5704                   21354046.6374
 -23615582.17646 -18383672.32343  24450731.3444                   24450731.4414
 -13707072.52048 -10660270.66047  20370707.6644                   20370706.6644
 -28034456.55147 -21826563.34445  22580071.9304                   22580070.7074
 -49702279.57446 -38709852.14644  23234444.3364                   23234442.3054
 -12225263.93447  -9508086.30745  23176450.8834                   23176452.5944
  21818180.58247  17022421.16144  23144310.2114                   23144309.0044
 11  8 27  3 21 30.0000000  0  9G26G21G15G12G29G05G02G25G18
  -4531033.31648  -3509056.26846  21193324.2734   21193323.4534   17789508.71147
  13879413.23244                  23610377.4064                   23610375.7074
   3511724.11348   2758046.90646  21323474.0784                   21323473.1094
 -23619348.41446 -18386607.10443  24450014.8444                   24450014.7384
 -13832641.34048 -10758116.47947  20346812.9384                   20346811.7234
 -28045133.47347 -21834883.04045  22578040.4064                   22578039.2854
 -49741032.57847 -38740049.30444  23227070.1484                   23227067.7274
 -12244060.12947  -9522732.70745  23172874.3914                   23172875.6764
  21655562.98447  16895706.21244  23113365.4064                   23113363.4844
 11  8 27  3 22  0.0000000  0  9G26G21G15G12G29G05G02G25G18
  -4645600.53948  -3598329.39846  21171523.1884   21171521.4964   17634858.68846
  13758906.80844                  23580948.8674                   23580947.1644
   3351495.90248   2633193.79346  21292983.7114                   21292982.5594
 -23623216.59046 -18389621.31744  24449278.6094                   24449278.8204
 -13957718.73848 -10855579.38247  20323011.5004                   20323010.0744
 -28055710.85247 -21843125.14245  22576027.3364                   22576026.1764
 -49779635.12146 -38770129.23244  23219724.7114                   23219722.0434
 -12262694.96947  -9537253.39445  23169327.9384                   23169329.6844
  21493208.17647  16769196.02444  23082470.4304                   23082468.5354
 11  8 27  3 22 30.0000000  0  9G26G21G15G12G29G05G02G25G18
  -4759499.43448  -3687081.75946  21149848.6804   21149847.8594   17480170.03947
  13638370.23144                  23551512.5164                   23551510.3134
   3191706.51248   2508682.61346  21262577.1724                   21262575.6914
 -23627189.62146 -18392717.29644  24448522.8134                   24448523.4224
 -14082304.05948 -10952658.83747  20299304.0474                   20299302.3324
 -28066191.44947 -21851291.84545  22574032.6724                   22574031.4414
 -49818087.17646 -38800091.91544  23212407.3524                   23212404.6804
 -12281172.07447  -9551651.15145  23165812.1954                   23165813.9884
  21331116.03947  16642890.49744  23051625.2734                   23051623.7464
 11  8 27  3 23  0.0000000  0  9G26G21G15G12G29G05G02G25G18
  -4872730.27748  -3775313.55746  21128301.6094   21128300.4694   17325440.85546
  13517802.09944                  23522068.1094                   23522066.5004
   3032356.57848   2384513.85646  21232253.6254                   21232252.6094
 -23631271.94946 -18395898.41543  24447746.0864                   24447746.8714
 -14206397.05548 -11049354.66247  20275689.6564                   20275688.3364
 -28076578.65247 -21859385.79645  22572056.1414                   22572055.1804
 -49856390.37946 -38829938.57444  23205118.5004                   23205115.7894
 -12299496.59447  -9565930.03445  23162324.8524                   23162326.9844
  21169284.97747  16516788.44244  23020829.5004                   23020828.2704
 11  8 27  3 23 30.0000000  0  9G26G21G15G12G29G05G02G25G18
  -4985287.35948  -3863020.33146  21106882.3674   21106881.8134   17170675.71947
  13397205.98844                  23492617.3444                   23492615.4774
   2873453.29348   2260693.14746  21202015.5554                   21202013.9494
 -23635461.44946 -18399163.06944  24446948.4454                   24446949.4924
 -14329991.88748 -11145662.30947  20252170.4694                   20252168.6804
 -28086870.14147 -21867405.14145  22570098.0234                   22570096.8444
 -49894539.70346 -38859665.33844  23197858.9454                   23197856.1094
 -12317667.03547  -9580088.83745  23158867.0784                   23158868.8244
  21007719.50847  16390893.30844  22990084.7734                   22990083.2734
 11  8 27  3 24  0.0000000  0  9G26G21G15G12G29G05G02G25G18
  -5097175.02348  -3950205.49946  21085591.2734   21085590.0944   17015868.84847
  13276577.35144                  23463158.2344                   23463156.5664
   2714993.17248   2137217.75946  21171861.1724                   21171859.9614
 -23639766.60246 -18402517.80744  24446130.0554                   24446129.9104
 -14453092.58248 -11241584.91447  20228744.9844                   20228743.7814
 -28097073.91047 -21875356.12945  22568156.2734                   22568154.8164
 -49932540.43046 -38889276.31744  23190627.5944                   23190624.9654
 -12335692.43747  -9594134.61944  23155436.9454                   23155438.6914
  20846414.45747  16265201.12844  22959389.5864                   22959388.3754
 11  8 27  3 24 30.0000000  0  9G26G21G15G12G29G05G02G25G18
  -3632967.12148  -2809264.24646  21364220.6564   21364219.5944   18436446.55947
  14383521.05044                  23733485.8754                   23733483.8284
   4132405.24248   3241694.74346  21441585.6884                   21441584.3794
 -22068768.48446 -17178363.59844  24745080.6174                   24745081.1334
 -13000271.71148 -10109516.69047  20505207.3524                   20505206.2154
 -26531770.22347 -20655638.97045  22866023.8204                   22866022.2154
 -48394969.69147 -37691169.24344  23483217.7814                   23483214.5234
 -10778153.96947  -8380468.30945  23451826.6644                   23451828.6174
  22260796.76247  17367317.25844  23228537.1644                   23228535.6844
 11  8 27  3 25  0.0000000  0  9G26G21G15G12G29G05G02G25G18
  -3743509.71148  -2895401.29846  21343185.2194   21343183.9144   18281558.74247
  14262829.29444                  23704011.0084                   23704008.8484
   3974841.44147   3118917.78546  21411602.2504                   21411601.0164
 -22073309.99246 -17181902.51643  24744216.6954                   24744216.3714
 -13122376.07048 -10204662.94247  20481971.8914                   20481970.3714
 -26541801.72747 -20663455.72145  22864115.0944                   22864113.2194
 -48432669.69947 -37720545.90144  23476043.5864                   23476040.4774
 -10795895.97347  -8394293.27544  23448450.3754                   23448452.1254
  22100015.97347  17242033.58044  23197942.0084                   23197940.2504
 11  8 27  3 25 30.0000000  0  9G26G21G15G12G29G05G02G25G18
  -3853379.50848  -2981014.09746  21322277.5164   21322276.0634   18126628.98047
  14142104.91244                  23674528.6564                   23674526.8094
   3817728.70348   2996492.30246  21381704.4064                   21381703.3754
 -22077975.12146 -17185537.80143  24743328.8914                   24743329.0514
 -13243981.78148 -10299420.61847  20458831.3204                   20458829.6174
 -26551751.56647 -20671208.85845  22862221.3834                   22862220.1954
 -48470220.06646 -37749805.92844  23468898.0864                   23468894.6374
 -10813502.49247  -8408012.69744  23445099.8204                   23445101.9494
  21939496.31347  17116953.36544  23167395.7504                   23167394.3794
 11  8 27  3 26  0.0000000  0  9G26G21G15G12G29G05G02G25G18
  -3962575.16048  -3066101.58546  21301498.2584   21301497.2424   17971657.43447
  14021347.94344                  23645038.3134                   23645036.3984
   3661068.90247   2874419.75346  21351893.2664                   21351891.8164
 -22082766.09046 -17189271.07543  24742417.4614                   24742417.1804
 -13365086.72748 -10393788.10747  20435785.5864                   20435784.1884
 -26561621.62147 -20678899.81145  22860343.1564                   22860341.5474
 -48507620.33646 -37778949.02044  23461780.7894                   23461778.4384
 -10830976.59847  -8421628.88844  23441774.9844                   23441776.7704
  21779238.08647  16992076.85944  23136899.7344                   23136898.3754
 11  8 27  3 26 30.0000000  0  9G26G21G15G12G29G05G02G25G18
  -4071092.90648  -3150660.83346  21280847.8204   21280846.9414   17816646.67247
  13900560.38544                  23615541.5634                   23615539.4884
   3504867.75047   2752704.59446  21322169.2814                   21322167.7664
 -22087683.01646 -17193102.59243  24741481.4454                   24741482.4844
 -13485686.68448 -10487762.08547  20412836.1174                   20412834.7034
 -26571411.25047 -20686528.05945  22858480.5784                   22858478.6174
 -48544867.24646 -37807972.58944  23454692.4844                   23454690.2194
 -10848318.74647  -8435142.28344  23438474.7274                   23438476.7774
  21619243.98447  16867406.19644  23106453.6484                   23106452.2194
 11  8 27  3 27  0.0000000  0  9G26G21G15G12G29G05G02G25G18
  -4178932.66448  -3234691.78746  21260327.0234   21260325.6214   17661596.00847
  13779741.74244                  23586035.7034                   23586034.2934
   3349126.16447   2631347.55146  21292532.2974                   21292531.1294
 -22092729.30146 -17197034.85843  24740521.5704                   24740521.3834
 -13605781.71548 -10581342.62747  20389982.9384                   20389981.3634
 -26581123.29347 -20694095.89245  22856632.7114                   22856630.5824
 -48581961.83247 -37836877.47044  23447634.3524                   23447631.5004
 -10865533.17647  -8448556.15344  23435198.9694                   23435200.6214
  21459513.30547  16742940.77844  23076058.0084                   23076055.9494
 11  8 27  3 27 30.0000000  0  9G26G21G15G12G29G05G02G25G18
  -4286092.00848  -3318192.54546  21239934.9774   21239934.2034   17506506.58247
  13658892.91944                  23556523.2894                   23556521.1484
   3193848.04748   2510351.65146  21262983.8054                   21262982.8834
 -22097906.31646 -17201069.05343  24739536.5784                   24739536.8134
 -13725368.62148 -10674527.21847  20367226.0784                   20367224.7934
 -26590758.25847 -20701603.66245  22854798.3284                   22854797.0474
 -48618902.13747 -37865662.11244  23440604.8914                   23440602.1884
 -10882621.63347  -8461871.87344  23431947.2974                   23431949.4574
  21300047.54347  16618681.78044  23045712.5164                   23045711.3984
 11  8 27  3 28  0.0000000  0  9G26G21G15G12G29G05G02G25G18
  -4392570.65248  -3401162.87946  21219672.8754   21219671.7074   17351377.97747
  13538013.56644                  23527003.2814                   23527000.9454
   3039034.95748   2389718.11546  21233524.0314                   21233522.8244
 -22103217.13346 -17205207.50743  24738526.0314                   24738526.0474
 -13844446.62148 -10767315.26147  20344566.3984                   20344565.0554
 -26600319.10247 -20709053.65945  22852979.2894                   22852977.8794
 -48655688.93747 -37894327.19044  23433605.1954                   23433601.5944
 -10899588.10547  -8475092.51244  23428718.8674                   23428720.5824
  21140846.40647  16494629.00644  23015417.9224                   23015416.2894
 11  8 27  3 28 30.0000000  0  9G26G21G15G12G29G05G02G25G18
  -4498368.15648  -3483602.45346  21199540.1334   21199538.9414   17196209.96147
  13417103.49644                  23497476.1804                   23497473.7424
   2884688.86348   2269448.46446  21204153.0634                   21204151.6334
 -22108664.97346 -17209452.59243  24737489.7274                   24737489.5704
 -13963014.56648 -10859705.86547  20322003.6254                   20322002.0514
 -26609807.94947 -20716447.55445  22851173.3984                   22851171.7664
 -48692321.87947 -37922872.33344  23426633.4694                   23426630.5664
 -10916436.16047  -8488220.91344  23425512.7274                   23425514.3834
  20981909.37547  16370782.03744  22985173.2344                   22985171.2734
 11  8 27  3 29  0.0000000  0  8G26G21G15G29G05G02G25G18
  -4603481.66448  -3565509.06646  21179537.6484   21179536.9224   17041003.73847
  13296163.63444                  23467940.9614                   23467939.2584
   2730813.67247   2149545.74646  21174871.3444                   21174869.6884
 -14081069.66048 -10951696.84147  20299538.5394                   20299537.0594
 -26619225.18747 -20723785.66945  22849381.4304                   22849380.5084
 -48728799.09847 -37951296.14844  23419692.2274                   23419689.2034
 -10933167.27347  -8501258.12944  23422329.2504                   23422330.7274
  20823238.62947  16247142.53144  22954978.5634                   22954976.9344
 11  8 27  3 29 30.0000000  0  8G26G21G15G29G05G02G25G18
  -4707906.93448  -3646879.37246  21159666.0474   21159665.1954   16885762.98447
  13175196.88944                  23438400.2274                   23438397.9144
   2577415.39848   2030014.65446  21145681.0864                   21145679.4534
 -14198606.81648 -11043284.23547  20277171.8524                   20277170.5744
 -26628569.09447 -20731066.64945  22847603.3754                   22847602.0044
 -48765116.63946 -37979595.57444  23412780.7894                   23412777.9384
 -10949781.04347  -8514203.95544  23419167.6414                   23419168.5594
  20664837.66047  16123713.25344  22924835.9454                   22924834.6134
 11  8 27  3 30  0.0000000  0  8G26G21G15G29G05G02G25G18
  -4811640.45748  -3727710.66646  21139926.1724   21139925.2074   16730490.55947
  13054205.49244                  23408852.2114                   23408850.4654
   2424498.72748   1910858.85446  21116581.4614                   21116580.0204
 -14315621.68748 -11134464.63347  20254904.8284                   20254903.5514
 -26637839.14547 -20738290.05845  22845839.4454                   22845837.8244
 -48801271.58646 -38007768.22844  23405901.3914                   23405898.9614
 -10966277.96547  -8527058.70145  23416028.8284                   23416029.6134
  20506709.50047  16000496.55844  22894745.2974                   22894743.7074
 11  8 27  3 30 30.0000000  0  8G26G21G15G29G05G02G25G18
  -4914675.06648  -3807997.35846  21120319.5554   21120318.4064   16575192.58247
  12933194.12744                  23379300.1094                   23379297.9574
   2272072.46548   1792085.15846  21087575.7344                   21087574.3164
 -14432107.11748 -11225232.50247  20232738.3984                   20232736.7624
 -26647031.00047 -20745452.55545  22844090.7814                   22844089.3244
 -48837257.26647 -38035809.01744  23399052.9144                   23399050.3674
 -10982655.06247  -8539820.09445  23412911.7504                   23412913.3364
  20348860.18047  15877497.13844  22864707.4534                   22864705.8134
 11  8 27  3 31  0.0000000  0  8G26G21G15G29G05G02G25G18
  -5017013.92648  -3887741.88946  21100844.6804   21100843.9184   16419865.26647
  12812159.93144                  23349742.1884                   23349740.2894
   2120134.97348   1673692.34646  21058663.1804                   21058661.5984
 -14548065.52048 -11315589.68347  20210672.1484                   20210670.6564
 -26656151.09447 -20752559.09145  22842354.5944                   22842354.0274
 -48873077.37146 -38063720.81244  23392236.9844                   23392234.6374
 -10998919.50847  -8552493.70444  23409816.8364                   23409818.7624
  20191285.76647  15754711.91744  22834721.9064                   22834720.0634
 11  8 27  3 31 30.0000000  0  8G26G21G15G29G05G02G25G18
  -5118658.97748  -3966945.81246  21081502.6724   21081501.2734   16264506.30947
  12691101.03445                  23320178.5784                   23320176.6134
   1968685.74248   1555679.98246  21029842.9144                   21029841.9734
 -14663498.03148 -11405537.09447  20188706.2584                   20188704.8324
 -26665202.96547 -20759612.53445  22840632.2114                   22840631.1914
 -48908734.27746 -38091505.47544  23385451.6724                   23385449.1294
 -11015076.88747  -8565083.90244  23406742.2034                   23406743.9574
  20033983.93447  15632139.13744  22804788.0314                   22804786.5394
 11  8 27  3 32  0.0000000  0  8G26G21G15G29G05G02G25G18
  -5219606.96948  -4045606.56646  21062293.0004   21062291.9184   16109118.43447
  12570019.67744                  23290608.9064                   23290606.9534
   1817729.53948   1438051.78946  21001117.2734                   21001115.7704
 -14778400.93048 -11495071.81447  20166840.6564                   20166839.2894
 -26674186.37147 -20766612.56645  22838922.7274                   22838921.1564
 -48944225.09846 -38119160.65644  23378697.9694                   23378695.1604
 -11031127.86747  -8577591.16144  23403687.7034                   23403689.5634
  19876957.29347  15509780.75244  22774907.0394                   22774905.4144
 11  8 27  3 32 30.0000000  0  8G26G21G15G29G05G02G25G18
  -5319862.29348  -4123727.58646  21043214.9144   21043213.6604   15953696.39547
  12448911.65745                  23261032.8834                   23261030.8754
   1667263.53548   1320805.57846  20972484.3754                   20972483.1414
 -14892777.68048 -11584196.55047  20145075.8134                   20145074.1414
 -26683108.19947 -20773564.63245  22837225.0004                   22837223.2664
 -48979554.20746 -38146689.86744  23371975.0474                   23371972.8754
 -11047080.61347  -8590021.91044  23400652.5004                   23400654.6134
  19720200.99247  15387633.00744  22745077.3834                   22745075.3954
 11  8 27  3 33  0.0000000  0  8G26G21G15G29G05G02G25G18
  -3843998.60548  -2973703.91046  21324062.4774   21324060.9654   17373667.50847
  13555382.72344                  23531244.7424                   23531242.0474
   3092716.82848   2431548.42846  21243739.6954                   21243738.0554
 -13431201.04348 -10445305.65547  20423204.2974                   20423202.9614
 -25116547.86347 -19552868.28145  23135331.4224                   23135330.6334
 -47439298.30946 -36946490.48844  23665076.1644                   23665073.5634
  -9487515.80547  -7374776.65044  23697427.8134                   23697429.8284
  21139142.28147  16493301.58944  23015093.1564                   23015090.5004
 11  8 27  3 33 30.0000000  0  8G26G21G15G29G05G02G25G18
  -3942863.47748  -3050741.46046  21305248.5704   21305247.5044   17218180.35247
  13434223.94244                  23501656.4384                   23501653.9574
   2943240.50848   2315073.40346  21215294.7034                   21215293.4574
 -13544519.27048 -10533605.57047  20401640.3984                   20401638.9964
 -25125349.27347 -19559726.50845  23133656.6174                   23133655.2894
 -47474300.77046 -36973765.14144  23658415.5864                   23658412.7504
  -9503278.88347  -7387059.63245  23694427.3914                   23694430.2464
  20982929.44547  16371577.36344  22985366.9774                   22985364.9024
 11  8 27  3 34  0.0000000  0  8G26G21G15G29G05G02G25G18
  -4041036.03547  -3127239.53746  21286567.3754   21286566.0784   17062657.10947
  13313037.07844                  23472061.3524                   23472058.9184
   2794258.55948   2198983.58446  21186944.6954                   21186943.1414
 -13657310.49648 -10621494.82447  20380177.2274                   20380175.5744
 -25134097.10947 -19566543.00345  23131991.7194                   23131990.8404
 -47509143.33246 -37000915.23744  23651784.7344                   23651782.6294
  -9518955.60247  -7399275.28744  23691444.4144                   23691446.8204
  20826984.71947  16250062.01644  22955691.7424                   22955689.2544
